GFSSW_250_spd_000.txt.gz
Wind_Speed
43 46 55 69 78 85 89 98 102 104 106 111 117 118 114 111 105 114 116 116 117 112 111 110 108 112 112 111 121 122 119 107 103 88 80 78 67 63 60 58 53 50 53 52 54
39 40 48 51 58 70 71 83 89 95 99 96 102 106 108 115 106 105 112 116 107 108 110 109 120 122 119 108 107 106 104 87 67 60 56 53 48 41 39 37 37 36 35 33 34
37 37 39 41 45 51 53 67 78 72 79 84 86 91 84 103 93 94 103 104 109 113 112 112 107 99 97 89 62 55 54 46 41 38 32 27 23 23 23 22 21 21 22 20 21
29 32 33 33 40 44 47 50 55 70 73 73 78 80 75 81 87 86 100 101 104 95 85 97 70 57 46 34 25 21 21 21 20 19 16 16 15 15 15 15 18 18 18 18 16
35 32 34 34 37 35 36 37 38 40 44 49 47 47 54 60 72 75 67 69 68 56 49 23 17 13 10 7 9 8 8 8 9 11 12 15 17 20 21 23 23 27 24 25 26
31 34 34 33 29 28 28 23 18 16 19 20 24 27 30 38 35 34 34 25 15 14 16 13 13 15 14 14 18 17 20 21 18 21 20 23 23 15 14 24 37 28 31 33 33
31 29 28 21 16 15 13 11 8 9 12 15 19 22 23 23 18 17 12 13 12 14 13 12 11 12 14 17 18 20 20 21 17 20 24 26 35 33 34 35 35 36 38 39 40
22 19 18 18 16 12 9 7 6 9 12 14 17 19 16 15 13 14 12 11 9 10 8 6 5 7 10 10 12 14 15 15 17 29 32 35 34 33 34 35 36 36 37 37 36
21 19 16 14 12 11 11 8 7 9 11 12 15 14 13 11 7 11 7 4 4 5 2 3 4 7 10 14 15 12 13 19 25 28 27 27 29 31 31 33 35 36 36 38 39
19 16 13 11 10 10 6 5 8 10 10 10 12 10 10 8 7 6 1 2 5 3 3 11 13 15 13 11 13 16 17 18 19 21 22 21 23 26 27 30 32 34 36 37 40
18 14 10 7 6 4 5 7 9 9 8 10 9 8 7 10 9 4 7 4 4 3 8 9 11 13 12 11 12 13 15 17 17 17 16 17 18 20 24 26 27 27 33 38 40
18 14 11 7 3 4 6 7 9 10 12 11 9 11 11 8 6 4 7 4 5 5 7 6 8 7 7 10 13 12 12 13 13 14 15 17 17 18 20 22 24 26 31 35 39
15 13 9 6 6 7 9 9 10 13 15 14 10 12 16 14 9 9 8 8 7 7 3 2 3 5 6 6 7 7 10 9 12 13 15 14 14 18 18 18 20 23 30 34 37
16 11 9 8 8 9 10 12 13 15 16 16 13 13 17 21 14 13 10 11 9 8 7 6 6 6 6 10 10 6 11 11 9 9 12 14 14 13 16 20 27 31 30 34 36
12 11 10 9 10 10 12 12 12 17 19 18 17 17 18 25 23 17 12 12 13 10 10 11 10 12 11 12 14 14 14 12 9 13 19 20 21 14 16 22 26 32 37 40 43
12 12 13 12 10 10 10 10 14 18 21 18 18 19 20 22 29 23 18 15 14 13 12 12 13 15 18 20 18 20 19 18 19 22 21 28 28 29 26 18 29 35 36 40 46
14 16 15 12 12 11 10 12 15 20 19 17 16 19 20 23 31 26 18 17 14 14 14 14 17 18 21 24 25 23 21 22 23 24 27 22 27 34 35 35 39 41 42 44 49
13 14 14 14 14 13 14 16 17 18 17 18 16 18 21 23 29 25 18 13 12 13 14 18 11 17 19 23 24 24 20 21 20 21 25 33 36 42 36 36 39 37 41 47 48
13 12 14 15 16 17 17 17 17 18 19 18 19 17 18 22 31 26 21 18 16 16 12 17 15 17 19 22 23 23 27 24 23 28 29 35 39 48 46 44 43 47 47 49 55
15 15 15 16 17 17 18 20 19 20 21 18 17 21 21 27 30 30 25 23 20 18 16 18 20 19 17 21 22 27 29 32 31 33 30 37 37 50 45 51 57 60 62 63 64
18 16 16 16 16 19 19 18 19 20 22 18 16 19 19 21 27 32 30 25 21 21 21 21 22 23 23 23 25 27 32 33 37 39 34 30 35 50 49 56 61 64 65 65 66
22 19 19 16 17 16 16 18 18 18 20 20 19 19 17 21 26 30 31 29 27 29 28 27 22 28 27 30 31 33 37 39 37 34 40 37 44 54 60 59 60 62 65 69 73
25 22 21 20 20 19 20 19 20 20 19 18 18 20 21 23 30 34 37 38 40 36 34 33 32 29 34 32 34 45 53 51 44 40 42 41 48 59 64 64 68 70 70 77 81
28 27 26 25 22 19 20 21 22 23 22 20 16 16 18 23 26 35 39 40 38 39 40 38 39 36 38 45 46 45 52 58 55 50 48 54 46 58 62 66 70 75 76 81 85
32 32 32 31 28 25 22 21 21 23 22 20 18 18 18 19 23 31 36 39 42 41 40 39 45 46 50 47 42 42 48 54 58 61 59 56 62 64 69 73 75 81 83 85 85
34 33 34 36 32 32 29 27 25 25 23 24 20 22 19 20 22 22 23 25 31 32 36 34 36 37 39 45 44 44 52 56 60 63 65 65 67 76 76 81 84 84 85 86 90
37 36 36 35 35 32 35 34 35 33 31 29 28 26 27 27 26 29 30 33 33 34 37 37 37 37 39 47 50 54 61 64 64 67 70 70 72 75 79 81 84 87 90 91 97

GFSSW_250_spd_003.txt.gz
Wind_Speed
42 45 49 54 57 69 79 88 101 98 105 110 112 114 115 114 113 112 112 114 113 113 116 117 114 114 115 122 123 111 111 121 128 125 110 102 97 88 78 69 61 57 51 44 40
32 36 42 48 52 58 71 79 80 81 89 101 100 101 104 109 111 113 111 111 111 114 111 110 109 114 114 117 115 121 111 110 104 101 89 73 63 55 45 38 37 32 27 24 20
34 37 40 42 44 46 50 55 58 64 72 80 84 92 94 100 103 103 103 106 108 110 111 107 98 106 109 110 90 97 104 82 63 55 51 44 37 33 25 20 12 13 12 11 9
35 35 36 37 38 41 40 41 47 53 63 72 82 85 87 88 93 94 100 103 107 109 104 105 101 107 92 72 51 37 37 30 27 26 20 13 6 5 8 14 19 21 26 28 29
27 26 30 32 32 32 34 40 43 47 53 55 61 65 72 75 79 77 82 73 92 98 100 97 72 42 36 15 15 15 12 4 10 6 10 16 18 20 26 28 30 34 37 42 40
30 32 31 33 32 33 35 32 32 36 36 38 42 40 42 43 45 46 52 50 47 39 25 19 6 6 10 10 10 9 12 13 16 21 23 23 26 29 28 33 37 38 39 38 38
31 30 26 27 26 30 27 24 24 23 21 20 16 17 19 21 19 19 17 7 9 4 7 6 9 14 15 12 12 14 16 18 20 26 27 31 31 32 31 33 36 36 36 36 37
26 25 25 26 27 19 20 20 15 9 9 11 11 13 14 12 9 4 1 4 5 8 13 14 15 12 9 10 11 13 15 13 23 26 27 27 29 28 28 28 29 32 31 32 33
24 24 22 19 20 20 18 12 5 6 8 9 9 11 10 8 3 2 4 5 9 10 14 13 10 7 8 9 7 12 12 14 19 19 20 20 19 20 19 20 24 26 27 30 32
17 21 21 18 14 12 11 7 5 7 8 8 9 10 10 6 3 3 5 6 9 9 11 7 10 8 8 7 7 6 8 10 13 13 12 12 14 16 18 20 19 20 23 25 27
24 21 18 14 15 14 10 6 5 7 7 8 10 10 9 7 4 5 4 9 7 5 4 6 9 8 8 8 6 8 8 6 7 8 9 9 9 11 12 12 15 18 22 21 24
23 19 14 12 11 8 7 4 4 6 7 9 10 11 9 10 6 8 8 9 8 6 3 5 5 4 4 3 5 3 2 3 7 7 9 10 8 6 7 10 16 21 22 25 26
21 15 12 9 7 5 5 6 7 8 10 11 10 12 11 14 15 12 11 9 9 10 6 8 6 4 4 5 3 3 3 10 12 7 6 9 8 14 17 17 14 18 21 25 29
18 13 11 8 8 6 6 8 9 11 11 14 14 13 16 15 19 17 14 13 13 11 10 11 10 8 7 8 9 9 12 15 11 11 14 18 18 12 14 15 18 21 26 30 34
12 10 10 8 6 7 8 9 10 10 12 16 18 17 17 18 19 23 19 14 13 14 15 14 18 15 12 13 13 13 14 15 14 14 15 19 19 10 13 13 14 20 29 29 35
13 11 10 9 8 9 8 9 10 12 16 19 19 17 19 20 21 20 26 19 15 16 16 18 17 16 20 21 22 20 22 16 17 22 19 22 27 32 21 22 19 20 23 27 37
15 15 13 12 10 9 10 10 12 15 18 18 17 17 19 20 22 20 26 27 20 17 16 16 18 20 17 18 16 21 21 22 23 21 26 23 32 36 38 41 38 35 35 41 45
16 14 11 9 9 10 12 13 14 15 18 19 20 21 20 17 22 20 22 32 19 17 17 17 16 20 19 20 21 22 24 22 23 27 31 36 38 43 43 43 43 42 44 48 54
13 11 9 10 9 12 14 15 13 16 19 19 23 24 23 22 19 19 23 29 21 16 16 18 16 18 20 18 21 24 25 27 28 31 33 35 46 51 46 48 47 45 48 50 55
12 13 11 11 11 13 13 14 17 18 18 19 22 22 18 23 19 24 24 24 24 18 18 21 20 20 20 22 25 28 28 32 34 35 36 38 45 51 52 52 55 54 53 63 68
17 16 14 12 12 14 14 14 15 16 16 18 19 20 20 20 17 17 21 26 24 25 24 24 26 25 28 26 29 29 33 31 35 38 42 37 43 50 47 50 55 59 58 65 69
21 19 17 15 13 14 14 15 15 16 17 18 18 18 18 19 16 15 18 24 28 28 31 28 31 38 35 33 34 37 43 44 39 37 43 38 45 56 58 60 62 66 70 73 76
23 22 22 19 16 18 18 18 19 19 18 18 17 17 15 15 16 16 21 27 31 33 35 40 40 42 42 39 40 44 53 56 48 45 46 44 48 57 61 62 65 70 74 78 79
25 26 25 23 21 23 22 20 18 18 17 16 16 15 15 16 16 17 21 26 32 38 40 41 43 40 43 42 38 40 44 48 50 48 47 58 54 64 68 71 74 76 77 78 80
30 30 28 27 27 29 27 26 24 21 18 18 17 18 18 16 16 16 17 18 22 28 26 27 31 29 36 33 35 37 43 48 53 59 59 59 67 69 71 73 75 78 80 84 87
35 34 33 32 32 32 30 32 29 31 27 26 23 24 24 21 22 23 23 23 25 27 27 29 30 32 39 44 44 47 55 56 58 60 62 63 65 70 74 79 83 86 86 90 95
39 38 37 37 36 34 33 32 29 30 34 34 32 28 28 30 29 30 32 33 34 34 38 39 37 36 39 45 47 51 57 56 56 61 64 68 71 73 78 84 86 88 90 94 98

GFSSW_250_spd_006.txt.gz
Wind_Speed
35 34 38 41 44 48 62 75 83 99 109 106 102 108 103 108 114 113 111 115 115 112 112 113 113 108 109 113 113 113 115 116 113 113 108 107 110 114 108 92 87 73 61 50 40
35 37 37 37 40 43 51 56 70 74 81 83 89 93 99 99 100 108 110 115 116 117 116 117 116 114 113 113 109 108 110 112 111 105 113 112 107 85 67 55 50 36 33 24 17
35 36 35 34 37 43 43 46 47 56 58 64 75 75 86 88 93 91 99 106 107 111 114 110 105 102 110 112 114 108 111 113 107 99 87 66 55 46 31 21 11 7 5 5 4
29 30 30 33 33 34 35 37 41 42 46 49 61 68 71 69 73 73 81 76 87 76 86 90 82 79 99 100 108 88 80 57 51 52 39 32 24 12 4 7 12 19 27 32 30
28 29 30 31 31 32 33 32 33 36 43 43 44 50 50 54 59 61 66 68 72 60 63 60 74 74 79 58 45 34 22 24 19 17 13 7 6 13 19 25 27 29 28 29 30
22 23 22 22 24 27 28 29 29 31 32 32 33 37 36 44 45 52 55 63 65 66 74 49 49 24 38 28 20 12 8 8 3 1 6 14 22 23 26 27 27 26 26 26 25
23 24 25 24 23 25 23 22 24 25 25 27 26 28 30 27 32 39 38 34 33 27 16 15 8 13 14 10 6 4 8 10 8 14 16 20 19 21 19 22 21 23 21 22 23
27 27 26 24 20 16 19 21 21 18 18 16 14 13 14 16 18 20 18 13 11 7 5 2 2 2 2 5 8 9 13 17 19 18 18 16 14 15 17 16 18 17 18 18 20
24 20 19 17 19 17 17 16 15 13 9 8 9 10 8 10 10 11 10 9 2 2 3 4 3 3 3 8 7 6 10 14 12 11 10 9 9 9 10 9 10 12 13 15 16
18 16 13 13 16 18 19 18 13 8 6 6 5 6 7 8 9 9 9 5 1 3 4 3 4 4 4 7 8 8 6 9 8 7 3 1 1 1 0 2 5 9 13 12 12
18 17 20 21 22 21 19 14 10 6 5 6 6 6 8 9 9 12 9 5 5 2 1 4 6 3 1 4 5 8 11 12 10 8 7 7 7 5 6 5 9 12 12 12 13
20 24 24 21 19 19 15 10 7 5 5 6 8 9 9 8 9 11 11 8 8 7 5 8 7 6 7 9 9 11 11 10 10 10 12 10 12 11 11 9 13 12 12 17 21
27 25 22 21 19 16 14 10 6 6 7 8 8 10 13 12 11 13 13 13 11 9 8 11 11 10 9 10 9 12 13 13 15 15 13 17 16 18 22 21 20 27 23 25 29
28 21 19 15 12 9 6 6 7 9 11 11 12 14 17 16 12 14 15 16 16 14 13 12 14 13 11 11 13 13 16 21 21 21 21 24 25 19 15 20 24 23 26 34 36
22 15 14 12 10 7 8 9 10 10 9 11 14 17 18 18 17 17 18 21 20 16 14 15 13 14 17 16 18 20 22 21 23 25 25 24 27 25 20 26 24 22 28 35 36
16 13 14 12 11 9 9 8 8 9 11 13 15 16 16 17 19 21 21 22 23 19 18 17 18 17 15 15 19 20 18 20 21 25 29 29 31 29 27 20 24 33 36 34 37
16 14 14 11 9 8 8 8 9 10 12 13 14 16 17 19 18 20 23 22 24 25 21 20 20 20 17 19 19 19 23 24 23 27 29 28 34 33 36 34 33 32 37 39 45
18 15 13 12 11 10 10 11 12 12 11 14 16 16 19 19 18 16 22 21 22 26 25 22 22 22 20 18 19 20 23 26 27 26 31 37 41 44 44 45 45 46 46 48 53
16 14 15 13 10 12 13 11 12 14 15 16 15 16 19 14 16 18 19 19 21 25 26 21 20 21 20 22 23 23 26 26 28 28 29 37 46 51 50 48 47 49 51 54 60
15 14 14 10 10 11 11 11 12 14 14 15 15 14 18 15 14 17 19 20 22 24 23 23 21 22 26 25 27 31 33 30 29 28 30 36 51 56 49 48 50 52 55 59 63
17 16 15 13 11 11 13 12 13 12 14 14 13 13 17 16 14 13 10 14 19 26 24 26 27 26 25 27 34 38 38 37 40 44 46 42 44 49 47 49 51 55 60 65 68
19 18 18 16 15 13 13 14 13 14 16 16 14 13 14 15 15 12 12 12 16 23 28 29 32 32 31 34 41 49 49 43 39 37 39 35 41 49 52 53 56 60 63 67 70
22 21 19 21 20 18 16 18 16 15 17 14 13 12 13 14 14 14 13 14 16 21 26 32 37 39 38 43 44 51 50 37 34 37 41 44 46 54 55 57 62 64 70 72 75
27 25 24 25 24 23 21 21 20 18 18 16 16 15 13 15 15 13 13 14 13 15 20 28 33 37 38 36 30 37 41 42 43 46 46 52 50 58 59 61 64 71 78 81 83
30 28 27 28 29 26 25 24 24 24 25 24 22 19 19 18 18 20 18 18 18 19 21 23 24 26 31 34 36 43 45 50 53 56 56 58 60 61 64 69 74 79 80 83 90
34 32 29 31 31 30 29 28 29 26 28 28 29 30 29 25 26 26 26 26 27 28 29 31 32 34 39 42 44 47 48 49 51 53 56 59 64 68 71 75 77 80 82 91 99
40 38 35 35 36 34 35 35 33 31 31 30 29 30 33 33 32 29 29 30 31 32 35 35 34 38 44 47 50 52 52 55 58 64 65 67 70 74 78 79 85 88 89 100 104

GFSSW_250_spd_009.txt.gz
Wind_Speed
27 29 31 38 42 46 47 50 64 81 84 105 115 118 115 118 116 115 116 111 113 106 109 108 108 111 113 110 109 107 109 115 115 111 115 124 125 125 126 120 114 106 86 76 55
27 31 32 37 36 37 40 48 57 59 68 80 94 99 110 94 106 113 113 115 117 110 110 110 111 110 111 115 117 113 117 118 121 114 111 110 106 102 98 93 91 73 58 39 29
29 32 33 35 31 33 36 42 47 54 54 51 58 65 76 89 90 94 104 95 109 98 102 116 114 108 109 109 106 105 104 100 102 97 96 89 87 71 70 60 47 36 17 13 4
28 31 34 33 32 36 37 36 37 37 38 39 42 47 53 65 67 67 82 84 86 96 79 90 88 94 87 86 100 92 86 89 86 76 64 56 47 35 37 31 19 11 4 9 14
30 32 33 31 32 33 30 31 33 31 31 34 32 33 42 49 44 47 56 64 61 56 70 90 73 71 80 74 79 77 67 70 47 36 35 30 23 15 10 2 7 13 16 16 16
30 32 32 32 31 31 29 28 26 25 26 28 31 31 31 34 37 38 38 46 53 48 55 49 44 46 47 50 43 37 28 28 20 15 13 8 8 7 11 14 15 13 11 12 14
27 27 27 27 25 22 21 20 19 18 20 22 22 22 26 28 29 29 28 29 29 29 26 26 23 23 18 26 21 25 18 11 6 7 9 12 14 13 10 10 8 6 7 8 9
29 28 28 26 25 24 22 21 20 17 14 16 17 17 18 18 17 17 20 19 23 23 20 17 11 12 9 10 11 8 3 9 11 13 13 10 9 9 5 5 2 1 1 4 6
31 29 28 27 25 22 19 15 12 14 15 13 11 10 10 11 13 15 16 16 10 12 9 9 8 7 6 6 9 10 12 16 16 17 11 8 7 7 9 7 7 7 6 8 10
28 25 24 23 20 16 13 14 13 11 9 8 8 7 9 11 13 15 15 14 12 8 7 9 8 7 10 10 9 11 15 18 14 13 10 12 12 13 12 14 14 15 18 21 21
25 22 19 16 15 13 13 14 11 9 7 7 6 6 7 11 13 14 16 15 11 7 6 8 9 10 9 12 14 14 14 13 15 14 15 16 18 18 17 19 17 18 22 24 26
20 19 15 14 12 14 16 16 13 9 6 6 6 6 8 10 10 11 14 16 12 10 11 11 12 12 9 9 8 10 14 15 14 15 19 20 20 18 20 24 24 26 29 28 29
17 17 16 17 18 18 18 13 9 6 5 5 7 7 9 10 12 13 16 18 19 13 10 13 15 13 13 12 13 15 18 20 22 20 23 24 25 21 26 29 32 34 34 37 38
21 21 19 17 17 16 14 10 7 6 7 8 9 9 11 14 15 15 17 20 21 19 15 14 16 18 16 17 20 20 21 24 26 28 30 29 29 29 33 34 31 32 35 39 42
26 22 21 21 19 16 11 7 6 7 9 9 10 12 15 14 15 17 17 20 21 22 20 14 15 16 18 21 22 22 23 27 28 29 29 31 32 32 34 37 36 34 38 34 42
25 23 20 17 13 10 8 8 9 10 9 10 12 11 11 14 15 16 18 19 23 24 24 20 17 16 16 20 23 24 23 23 22 22 24 28 30 30 31 33 35 38 40 38 45
21 18 17 15 14 11 10 11 12 9 8 11 12 13 13 14 17 19 18 18 21 25 26 26 21 19 17 20 21 23 22 21 24 27 28 30 30 32 33 35 34 40 43 43 45
21 18 18 16 14 13 14 12 12 10 11 11 13 15 15 14 15 16 19 18 20 22 23 27 27 22 21 20 20 20 23 25 25 29 33 35 37 41 36 34 42 39 37 42 47
25 18 17 15 14 13 13 12 10 11 12 12 13 15 14 15 17 14 16 18 19 20 24 25 26 24 23 22 21 21 22 24 27 31 35 43 49 48 48 47 40 37 44 48 52
24 19 16 16 16 14 13 12 12 11 11 11 13 13 12 15 15 17 17 17 19 20 21 24 26 26 25 24 26 26 26 30 34 37 41 47 53 47 44 39 44 48 51 54 58
24 20 19 17 15 13 14 14 11 12 13 12 12 14 14 15 15 14 12 13 14 16 21 25 27 28 29 31 32 33 35 38 43 46 46 34 39 45 46 48 52 55 58 59 61
26 23 22 21 18 16 15 14 14 13 13 14 15 14 14 15 15 16 15 11 10 14 14 25 29 29 31 34 37 38 41 44 40 36 37 36 42 46 50 53 57 59 61 65 69
29 26 23 23 23 21 19 18 18 17 14 13 14 14 15 15 15 16 16 13 11 12 13 17 22 27 31 36 41 42 39 34 34 39 42 45 48 56 53 55 58 62 67 71 75
33 29 27 26 24 26 24 23 23 20 19 18 17 19 20 18 18 17 17 18 17 16 17 20 21 21 22 24 30 36 37 40 43 46 46 52 48 56 59 63 67 70 72 74 78
36 34 30 29 28 27 28 28 27 25 23 22 23 25 26 26 26 24 24 25 26 25 24 26 28 29 32 33 36 42 44 49 49 49 47 52 57 61 65 69 72 75 75 77 79
40 38 36 33 31 30 29 30 30 29 29 27 25 27 28 29 31 32 33 33 33 32 30 31 30 32 38 37 40 47 46 47 50 53 55 59 63 69 73 75 76 79 81 81 83
45 42 40 36 34 32 32 33 34 32 33 34 33 32 32 31 34 34 32 30 33 35 34 34 32 36 42 44 46 50 48 51 55 59 60 64 69 72 77 78 79 82 87 91 95

GFSSW_250_spd_012.txt.gz
Wind_Speed
28 28 31 34 37 38 43 47 45 54 63 80 94 108 111 113 113 114 109 108 110 103 109 112 105 107 112 106 104 109 115 103 104 106 109 111 109 114 121 120 118 117 106 103 96
25 26 30 32 33 36 36 40 42 45 52 60 73 83 97 107 114 115 111 110 109 109 109 111 110 114 113 110 114 107 110 113 110 109 111 116 113 116 113 111 100 101 85 69 61
21 29 28 27 30 31 33 33 38 39 44 48 56 68 82 89 99 104 103 104 111 104 112 109 110 106 109 110 100 108 115 112 106 99 105 104 95 107 98 86 75 69 55 49 36
22 25 29 28 30 31 31 33 36 38 41 44 46 59 61 76 87 90 97 96 95 97 93 102 80 69 84 82 92 86 86 86 91 95 92 90 85 76 61 53 49 38 29 16 7
24 27 30 31 29 30 31 34 34 31 31 32 34 37 38 39 49 62 75 82 82 82 88 105 101 103 98 90 95 94 88 82 84 83 71 60 51 40 30 27 18 5 8 2 6
30 29 31 33 31 30 31 28 29 26 25 23 21 19 25 30 32 43 49 54 52 53 74 71 74 86 106 96 89 83 68 66 55 47 37 29 29 22 16 6 3 5 4 2 4
31 32 29 26 28 31 28 25 23 20 19 18 17 19 18 20 23 28 31 27 28 24 44 67 71 65 67 78 70 61 45 35 29 28 20 15 13 13 8 6 5 6 7 8 10
32 30 30 27 25 24 24 19 15 14 14 13 12 11 13 17 18 16 18 18 16 19 24 25 31 28 35 54 38 20 17 19 17 15 12 13 11 11 8 8 8 8 11 14 17
31 30 28 25 22 19 17 17 19 15 14 12 11 11 12 11 15 16 15 14 14 19 25 25 19 18 18 14 13 16 13 13 13 16 16 15 12 13 12 13 16 16 18 20 20
34 31 28 27 26 26 25 24 19 14 12 11 13 12 11 11 13 12 13 14 19 21 17 15 12 12 13 13 12 11 13 15 15 19 17 15 13 15 17 19 23 24 26 25 25
31 30 29 29 27 24 21 18 18 12 13 11 9 7 8 8 9 10 13 13 13 12 11 11 12 12 13 11 10 13 15 16 20 18 22 19 19 22 23 25 26 27 32 35 34
29 28 27 24 21 17 16 13 9 9 10 9 7 7 6 5 7 9 11 13 14 13 9 12 11 13 12 12 13 15 17 16 16 20 21 22 25 24 27 28 28 31 35 37 39
27 25 21 16 12 12 15 13 10 10 7 6 6 3 3 6 9 12 14 15 16 16 14 13 15 16 15 15 14 14 14 15 18 23 25 25 29 31 31 34 36 38 40 41 41
23 21 18 15 15 16 17 14 11 8 7 7 4 3 6 10 12 13 14 17 19 21 18 15 15 18 19 19 18 17 19 20 23 25 28 31 32 32 32 35 36 36 36 36 40
22 21 19 16 16 17 16 12 8 8 6 5 3 5 9 10 11 12 13 15 19 21 22 22 18 17 20 23 22 22 24 25 27 29 31 28 25 27 28 31 32 32 34 40 43
25 21 20 18 18 17 13 11 9 8 6 6 7 9 12 13 15 15 16 15 16 21 24 25 23 18 18 22 22 21 22 27 29 28 25 25 26 26 28 29 30 32 36 39 47
24 22 22 21 19 16 12 9 8 7 7 8 8 10 15 17 19 20 21 20 19 20 24 28 27 23 20 21 23 24 23 22 21 20 21 24 27 30 35 35 36 41 44 47 50
23 23 23 21 17 16 12 10 9 8 9 11 11 12 14 17 19 19 19 18 19 22 22 26 28 27 26 24 23 25 25 22 20 19 22 27 37 36 40 38 40 40 40 40 43
25 24 21 19 18 16 12 10 9 9 10 11 13 13 14 16 16 16 18 17 19 18 21 22 25 26 27 27 25 24 24 23 22 24 30 39 47 42 41 39 39 42 43 47 52
29 21 21 21 18 14 12 13 13 11 11 11 11 11 13 14 14 14 14 14 15 14 15 19 23 26 25 27 26 26 27 27 28 31 37 44 55 49 36 41 46 49 53 53 54
32 28 21 19 16 16 16 15 13 11 12 11 12 12 13 14 15 14 13 13 13 13 12 14 18 24 26 28 27 29 30 31 34 39 41 34 49 45 49 52 54 54 55 59 62
34 29 24 20 20 18 17 17 15 15 13 11 12 13 13 14 15 14 12 12 12 13 12 12 13 19 26 30 32 34 36 37 39 40 40 36 45 49 50 49 51 54 58 63 68
33 29 26 23 22 21 20 18 18 19 17 15 14 15 15 16 18 19 17 16 15 16 17 16 13 12 16 20 23 26 27 28 31 35 40 43 44 46 45 51 56 61 63 65 70
34 31 27 25 25 23 23 23 23 22 21 19 20 19 19 22 23 24 23 22 23 23 24 25 25 24 26 30 31 33 33 34 36 39 40 45 42 52 57 59 62 65 64 69 77
36 34 31 28 27 26 26 27 27 27 27 26 25 23 24 26 28 30 29 29 30 30 32 34 34 31 33 33 34 36 37 39 40 42 41 46 53 58 60 62 66 72 73 79 83
41 38 35 33 30 29 30 29 30 30 31 30 30 29 29 30 31 32 32 32 32 33 33 32 32 33 36 35 38 43 44 44 44 48 51 53 58 62 65 68 72 76 79 83 87
43 43 41 39 37 35 34 33 32 31 32 32 32 33 33 35 36 37 37 35 35 35 36 36 34 34 39 41 45 50 50 45 48 55 58 59 63 67 72 74 79 81 84 88 93

GFSSW_250_spd_015.txt.gz
Wind_Speed
25 25 26 31 33 36 38 41 42 46 49 57 62 68 83 90 105 107 109 107 107 104 101 100 102 100 98 103 94 92 96 100 99 104 108 102 108 104 113 107 108 97 97 98 98
21 25 27 31 33 34 35 38 41 43 46 51 53 56 60 76 88 96 101 105 103 104 107 103 110 106 104 100 101 101 102 108 98 105 107 106 110 108 114 101 89 87 100 97 91
21 24 28 30 32 33 34 37 39 42 44 46 48 49 54 60 73 87 98 97 97 99 102 103 107 111 105 105 99 101 103 104 106 104 105 101 102 96 87 82 90 89 81 75 56
23 27 28 30 31 32 34 34 36 36 35 34 35 41 44 53 62 71 82 91 89 84 96 104 106 104 96 106 101 92 89 88 96 102 98 88 83 86 81 76 66 62 55 44 32
25 26 29 31 29 31 33 31 32 31 34 36 35 36 41 43 45 48 52 65 72 77 89 99 104 103 103 101 99 100 98 96 86 80 90 97 84 67 61 48 49 39 28 16 14
24 28 28 28 30 32 31 33 33 30 28 26 25 24 26 30 32 35 37 44 55 57 58 72 86 78 80 85 80 88 78 80 76 77 73 66 47 49 36 32 27 15 12 11 10
30 30 32 31 31 29 28 26 26 24 21 18 14 13 15 14 15 19 27 32 41 49 51 52 70 68 71 83 79 78 64 55 53 56 45 40 29 25 21 14 10 11 13 15 17
33 34 34 30 26 25 25 22 21 20 14 14 9 7 5 5 7 7 9 13 19 24 28 32 37 41 40 45 55 44 38 35 28 27 25 24 21 16 11 13 15 17 16 17 22
37 33 30 27 26 24 20 17 15 16 15 12 11 9 9 10 11 11 14 17 18 19 21 25 27 27 29 30 28 25 22 23 21 19 17 14 13 12 15 19 20 21 24 26 29
33 31 27 24 22 22 20 20 19 18 14 14 10 11 12 12 13 15 17 18 18 19 19 22 25 24 20 16 16 15 14 15 18 16 13 13 15 18 20 21 25 27 29 31 33
32 28 26 25 25 26 24 23 21 19 15 13 14 16 16 13 12 13 14 15 14 21 23 20 18 15 10 10 10 12 13 16 18 16 17 19 21 23 23 24 24 26 27 30 33
32 30 28 27 27 25 24 23 19 15 16 17 16 14 10 7 5 5 7 9 11 13 16 11 13 11 12 11 8 10 13 16 17 17 20 23 25 28 29 32 32 33 33 32 34
33 31 30 28 26 26 24 21 18 17 17 15 12 9 6 4 3 5 7 8 11 12 13 13 11 10 11 11 10 11 13 15 17 18 16 18 23 27 31 31 29 29 32 36 39
32 31 28 26 22 23 24 21 18 16 13 10 7 7 6 4 5 8 9 11 13 13 14 13 12 12 12 15 17 18 18 19 21 22 22 25 27 31 26 26 26 27 32 38 41
32 29 26 21 22 24 23 19 17 13 11 10 10 9 6 4 5 7 9 11 13 16 17 18 17 16 18 19 22 22 21 23 25 24 26 28 27 24 24 24 27 33 39 43 43
28 25 22 22 22 22 20 17 13 11 9 7 7 5 3 5 9 11 13 15 17 19 20 21 22 22 23 22 23 21 21 22 23 23 23 21 21 22 25 25 31 36 41 45 47
26 23 22 21 22 22 19 15 11 8 7 4 4 3 4 8 11 13 13 15 15 15 21 22 24 27 27 27 25 23 22 21 22 24 21 19 20 25 29 32 35 40 40 38 39
26 24 24 24 23 20 16 12 9 8 6 6 6 6 10 13 11 12 13 13 13 14 15 18 21 22 27 26 28 25 25 23 21 20 21 23 25 31 37 38 40 38 38 42 44
27 27 26 24 22 18 15 11 10 9 8 8 7 8 9 9 10 10 10 11 13 14 13 15 18 20 20 23 26 29 28 25 23 22 26 31 32 37 39 37 38 43 46 47 46
27 26 26 24 20 17 16 12 12 11 9 8 6 6 8 9 11 10 8 10 12 13 13 13 14 16 18 20 22 25 26 25 24 25 28 37 43 37 35 37 42 46 45 46 50
28 25 25 22 20 19 17 15 14 13 11 9 7 7 10 12 9 8 7 9 9 10 11 13 14 13 14 16 18 21 23 25 29 32 34 36 51 39 40 44 45 45 47 52 56
32 28 23 22 22 21 19 16 16 14 11 8 7 9 10 11 12 12 12 13 12 12 13 13 14 13 13 13 16 18 22 25 25 25 30 31 41 42 44 43 46 49 54 57 59
30 34 29 25 23 22 18 18 18 16 13 11 12 14 13 13 14 16 16 17 18 19 20 21 21 21 21 22 23 26 27 27 27 29 33 35 40 43 41 46 48 52 55 60 64
31 33 33 29 26 24 21 21 20 17 15 16 16 16 16 17 19 21 22 23 23 25 27 28 27 29 31 30 29 30 27 27 29 31 33 43 37 44 46 51 57 60 63 67 70
31 33 34 32 29 27 25 23 21 20 21 22 22 23 24 24 25 25 26 27 28 27 28 29 30 30 29 29 30 32 34 34 33 37 39 40 43 48 52 58 62 66 69 72 75
32 34 35 34 31 30 28 26 25 24 25 26 28 28 28 28 29 30 31 32 32 32 31 31 30 32 35 32 34 38 37 38 39 41 42 45 50 55 58 62 68 71 73 78 83
40 39 38 38 36 33 31 30 30 29 29 29 30 30 31 32 33 34 35 35 36 36 36 36 31 29 34 36 40 45 42 43 45 48 50 53 58 61 65 69 74 77 82 86 92

GFSSW_250_spd_018.txt.gz
Wind_Speed
28 30 31 35 37 39 42 41 41 44 46 51 57 64 71 72 82 89 100 102 102 100 101 101 99 97 100 101 96 98 92 95 93 95 86 93 96 95 95 97 100 94 104 97 94
27 29 30 30 34 37 37 36 38 41 44 47 53 57 58 62 64 70 77 89 97 102 103 101 98 100 100 101 103 102 101 99 101 100 95 98 99 101 100 96 101 94 90 91 77
24 26 27 28 30 32 33 34 37 39 42 44 45 49 51 54 59 61 63 74 83 91 96 97 91 92 100 104 103 105 104 105 101 101 102 106 104 96 90 92 87 83 84 79 77
22 22 25 28 28 28 29 31 34 36 40 43 44 45 47 48 50 53 55 59 68 81 84 92 97 85 88 88 99 103 107 107 107 107 96 95 93 92 86 80 84 70 69 61 43
22 24 26 27 26 28 31 31 33 34 36 40 41 40 38 39 39 42 49 53 57 63 64 66 78 81 79 96 90 94 96 92 101 98 86 92 88 86 69 69 58 47 39 29 24
24 26 27 25 27 29 30 31 33 34 33 34 34 30 29 31 34 34 36 36 37 44 54 61 74 82 77 74 72 79 85 79 74 75 80 74 68 68 53 48 39 25 22 20 17
26 27 29 31 30 31 32 32 31 31 27 25 24 23 20 20 21 25 27 27 27 31 35 41 52 61 68 57 72 64 64 74 75 60 56 62 49 37 26 28 21 16 18 20 20
30 32 32 30 31 31 31 29 28 24 22 20 18 16 16 16 17 19 18 21 25 30 33 36 39 41 47 55 57 56 56 38 38 41 32 25 25 19 17 18 19 19 21 23 24
33 34 31 31 31 29 27 26 24 23 18 19 17 16 16 14 14 13 15 16 17 18 21 23 25 25 26 25 25 27 25 28 25 21 20 18 18 16 17 21 22 23 24 27 30
36 36 33 31 29 27 25 23 21 19 19 18 15 14 12 11 10 10 11 14 15 16 18 20 18 17 18 19 18 18 18 17 17 18 18 15 16 18 21 22 25 24 25 27 31
36 34 30 29 29 27 25 25 24 25 22 18 16 14 12 11 10 11 12 12 12 13 14 15 14 16 16 17 16 15 15 16 16 15 15 18 20 22 25 28 30 33 35 35 33
33 31 30 30 28 27 29 27 23 21 19 16 14 13 13 11 10 9 10 11 13 14 15 17 19 16 16 18 16 16 14 15 15 15 20 21 23 28 29 28 30 31 29 29 31
31 32 32 32 30 29 25 21 21 20 19 17 14 14 12 11 9 8 7 8 11 13 16 18 16 15 16 16 16 16 13 13 15 16 18 22 21 22 24 27 28 25 27 28 30
32 32 32 30 27 25 26 25 23 21 19 17 16 14 12 9 8 7 7 8 10 13 15 17 18 18 17 18 19 19 17 17 19 21 20 21 22 25 27 26 25 25 24 28 36
31 30 30 29 30 29 27 24 20 20 19 16 15 13 8 5 4 3 5 7 10 13 13 17 20 21 22 23 21 21 21 22 23 23 24 25 27 29 25 24 23 24 29 35 40
33 31 32 30 30 30 27 21 21 18 15 15 12 11 10 8 4 4 5 7 11 12 15 18 21 22 26 26 24 22 23 24 25 26 25 25 25 25 25 26 26 27 35 41 41
31 30 29 28 29 28 25 23 20 17 16 14 14 11 8 4 4 6 7 10 10 12 13 15 20 23 22 24 28 28 24 25 26 27 27 27 27 27 28 29 30 34 42 41 38
31 29 27 28 28 28 24 21 17 15 13 13 11 8 6 5 6 6 7 8 10 10 10 12 14 15 19 20 23 27 28 28 28 28 28 30 29 30 32 33 37 41 42 41 43
30 30 29 28 29 27 23 20 15 13 12 9 7 7 6 5 5 5 5 7 7 9 10 11 12 12 13 16 17 18 23 27 30 29 28 27 29 31 32 35 39 41 41 44 48
32 29 28 29 28 26 22 16 12 12 11 10 7 6 6 4 4 4 2 3 5 7 9 10 12 12 13 11 10 13 17 21 24 25 27 32 34 37 36 34 38 41 45 46 46
32 30 28 28 27 23 20 15 13 12 12 9 8 7 8 7 5 4 3 4 5 6 7 7 9 13 13 12 11 12 12 15 20 24 27 33 42 32 32 35 40 44 44 47 51
32 31 29 28 25 22 19 16 14 14 13 11 10 8 6 4 5 5 6 8 9 10 11 13 14 15 16 17 18 20 20 21 22 24 29 31 38 37 35 40 43 45 48 53 57
34 30 29 28 24 22 21 19 17 15 15 13 11 10 8 9 10 11 11 13 14 15 17 20 22 20 21 23 23 22 24 24 24 26 29 33 38 42 43 48 47 50 54 60 63
36 33 29 28 25 24 22 21 20 17 17 15 14 12 12 13 14 16 16 17 18 20 21 24 26 26 24 26 26 26 26 25 26 28 30 37 39 43 45 47 52 56 61 65 68
39 36 34 32 27 27 26 25 22 19 20 18 17 16 18 20 21 22 22 23 24 25 26 27 29 32 32 32 34 32 30 30 32 34 35 38 42 43 48 53 57 63 67 70 74
39 37 36 35 34 30 29 28 27 24 23 22 21 21 22 24 25 27 28 29 28 28 29 29 31 36 39 35 35 34 31 35 37 37 38 41 45 51 53 57 62 67 70 72 74
35 36 38 34 35 34 33 31 30 29 27 25 25 24 26 26 28 30 31 32 32 33 34 35 37 37 40 39 42 39 40 42 42 43 44 47 52 57 59 64 69 71 75 79 85

GFSSW_250_spd_021.txt.gz
Wind_Speed
33 32 33 35 37 39 40 44 45 45 46 47 49 54 58 64 72 79 78 88 92 92 99 97 95 96 94 91 90 93 88 92 89 91 93 90 93 93 91 93 95 96 101 106 102
29 28 28 29 30 33 35 39 42 43 45 46 47 50 51 55 60 69 71 74 85 92 93 96 92 92 93 94 96 92 93 94 93 93 93 94 95 96 98 101 99 103 105 106 95
25 25 27 28 27 32 35 38 40 41 43 44 45 46 49 52 52 53 59 63 69 79 82 86 89 88 94 94 96 95 93 90 93 96 98 99 102 102 105 104 108 105 100 84 79
23 23 25 27 29 32 33 35 36 38 39 40 42 43 45 46 46 48 51 56 61 66 75 80 86 89 88 88 89 89 90 89 90 96 92 96 102 95 93 92 86 92 85 79 68
22 24 25 26 28 29 30 31 31 34 36 38 39 39 40 41 42 45 47 50 53 57 61 68 78 87 85 82 83 82 85 87 90 90 92 86 85 91 86 81 81 72 67 62 64
23 24 24 27 28 27 27 27 28 30 34 34 36 35 35 35 37 39 42 46 50 53 56 58 61 63 68 67 71 73 80 81 82 85 76 73 78 82 69 67 64 63 54 47 36
24 25 25 25 25 25 25 27 28 30 30 32 30 31 32 32 34 36 37 37 38 42 46 47 50 53 54 57 59 62 63 60 65 70 77 80 73 63 61 55 53 50 37 26 25
26 27 26 26 27 27 27 27 27 28 28 27 27 25 23 23 23 23 24 26 29 32 35 36 38 39 41 44 47 50 51 54 53 53 53 62 63 53 43 42 34 29 26 27 26
27 30 30 30 28 27 27 26 26 26 24 22 22 22 21 20 22 23 26 29 31 33 35 35 36 38 38 39 38 36 35 31 33 32 32 29 28 26 29 26 25 24 26 29 29
31 32 31 29 28 27 28 27 26 22 21 21 23 22 25 24 24 25 25 25 28 28 30 29 28 28 27 24 23 20 18 19 18 20 21 24 22 20 22 22 23 26 28 31 33
35 33 33 33 32 30 28 27 26 23 25 24 22 23 22 20 19 16 16 16 15 15 17 16 17 18 17 15 16 17 18 16 17 17 19 19 19 21 22 24 26 29 33 35 35
37 37 36 34 30 26 26 27 27 27 26 23 19 17 14 12 11 11 11 12 14 14 15 15 15 15 16 16 17 17 17 16 17 17 18 20 22 25 28 29 31 33 32 34 32
38 34 33 32 31 30 29 28 28 25 23 18 13 12 9 9 10 10 11 11 11 13 15 16 16 17 18 18 18 18 18 20 19 20 23 25 25 29 30 30 29 30 33 30 30
32 32 32 32 31 30 29 25 22 22 18 15 13 13 13 13 11 9 8 9 9 11 13 17 19 22 22 22 21 21 23 24 24 24 23 25 27 31 30 32 31 32 30 30 31
32 33 33 31 28 26 24 23 22 19 16 15 17 17 15 12 10 7 6 7 9 11 12 13 17 21 23 24 25 25 26 27 27 27 28 28 32 23 32 33 31 30 31 32 35
33 32 31 28 26 27 25 22 19 18 18 19 18 15 13 9 7 7 8 9 11 11 12 14 16 18 21 24 27 29 29 30 31 34 33 31 35 24 31 29 30 33 35 37 39
32 30 29 28 30 28 25 22 21 22 20 16 14 13 11 9 8 7 8 10 11 11 11 11 12 13 14 18 23 26 30 32 33 31 32 33 35 30 32 32 33 34 37 40 43
33 32 32 31 30 27 24 22 21 19 15 15 16 15 14 12 7 6 4 3 4 5 3 5 8 10 11 12 15 19 21 27 32 34 34 36 36 34 32 33 35 37 41 43 47
35 33 31 30 28 27 25 23 21 18 18 18 17 14 11 9 6 4 2 2 2 4 5 6 6 8 9 9 11 15 16 17 20 26 32 37 38 33 36 37 39 42 46 44 45
37 34 30 29 31 29 26 23 20 19 18 17 14 10 10 6 2 2 2 1 1 2 3 4 7 10 12 12 11 12 12 15 18 21 25 29 35 30 36 36 37 39 42 43 47
36 33 32 30 30 29 27 23 19 18 16 13 11 11 10 7 5 5 4 3 3 4 6 8 10 13 15 15 16 17 18 20 20 22 23 28 35 33 33 35 39 42 46 49 55
35 33 32 32 31 30 26 23 17 15 14 13 13 13 10 8 7 6 7 7 7 7 9 11 13 15 18 20 20 20 22 23 26 29 32 33 39 37 38 37 42 46 50 54 55
36 35 31 31 30 29 26 24 17 15 15 14 15 14 11 10 10 9 9 9 11 13 14 16 18 20 22 24 26 26 25 26 27 29 32 34 39 37 41 44 48 49 53 54 58
39 35 33 31 30 29 26 23 18 17 17 17 17 16 15 14 13 13 13 15 17 18 19 21 24 25 27 28 27 27 29 32 33 35 34 38 38 44 45 45 49 52 55 60 63
41 37 34 33 32 30 26 23 21 20 20 20 20 19 19 19 17 17 19 20 21 21 23 24 26 29 31 34 37 34 33 35 36 38 37 43 45 46 46 50 52 54 59 64 68
43 40 35 35 33 31 28 26 25 25 24 24 23 23 22 20 20 20 22 23 24 26 26 27 30 34 39 39 42 43 41 39 39 39 40 43 46 49 49 52 57 59 66 70 74
42 40 38 36 34 32 29 27 26 27 27 27 26 25 24 24 24 25 26 27 29 30 32 33 34 35 39 42 47 44 42 42 41 41 45 46 47 49 53 57 62 65 72 74 77

GFSSW_250_spd_024.txt.gz
Wind_Speed
34 35 36 35 38 38 36 36 38 42 44 45 43 47 48 53 58 63 69 71 73 78 81 87 81 86 96 83 85 87 88 90 92 92 89 90 89 90 88 90 93 94 93 94 99
31 32 33 33 36 35 35 35 37 39 41 43 44 43 42 45 48 52 59 68 71 77 80 77 83 81 77 80 84 86 86 87 85 90 90 93 93 94 93 95 96 93 93 97 94
30 31 29 31 32 31 30 31 34 37 40 42 40 38 40 41 43 47 52 58 66 71 79 76 75 78 79 83 86 88 81 87 91 89 91 89 85 88 88 92 91 95 95 88 91
29 27 25 27 27 25 26 28 32 34 35 36 35 36 38 40 43 45 49 52 56 60 64 73 78 73 81 86 87 87 89 89 89 97 98 93 95 91 89 88 86 86 87 90 82
25 22 23 24 24 25 24 27 29 30 31 32 34 37 38 41 42 42 46 47 49 51 55 60 67 76 77 77 83 82 81 80 83 84 84 86 87 87 86 85 88 88 86 79 72
21 20 22 23 24 24 25 26 27 28 29 30 33 34 34 34 36 37 40 42 45 49 51 54 57 62 64 65 69 73 74 76 79 81 84 81 80 80 82 82 82 83 75 67 55
18 21 24 26 25 24 25 25 25 26 26 29 30 30 31 31 31 33 36 39 41 43 46 49 51 54 57 59 61 62 63 63 67 71 75 78 79 82 84 78 74 70 54 45 41
20 24 24 26 25 24 23 23 23 23 24 25 27 26 26 26 27 27 30 33 37 40 43 46 49 50 50 51 53 54 55 55 59 61 63 65 63 63 63 59 53 37 40 28 33
21 23 25 26 24 23 21 21 22 22 22 25 24 21 19 20 22 24 27 30 32 35 35 35 34 35 36 38 39 40 44 47 51 54 56 59 58 49 43 43 37 28 29 27 26
25 28 24 24 24 23 23 23 24 23 22 21 20 20 23 22 22 23 26 27 28 27 27 30 31 31 31 35 37 39 42 45 47 44 46 42 36 34 31 30 27 24 26 28 28
30 29 28 26 25 25 27 28 27 26 23 20 23 25 20 21 20 21 21 22 25 26 25 27 28 29 32 32 31 30 33 33 34 34 32 31 29 25 26 25 24 24 28 31 28
31 32 30 28 27 28 28 26 22 23 23 24 23 23 22 21 20 18 18 17 17 18 18 19 20 21 22 22 23 22 23 23 25 26 28 26 23 24 24 24 27 29 33 32 33
34 34 32 34 33 30 30 29 25 25 26 25 22 19 17 15 14 14 14 13 12 13 15 16 17 18 19 21 21 22 23 23 25 26 27 28 27 26 26 29 28 32 35 35 36
38 37 38 38 29 27 27 28 27 27 25 20 17 16 13 12 12 12 10 9 9 10 12 13 15 17 19 20 21 21 22 23 26 27 26 31 29 25 30 31 31 35 36 37 39
41 39 34 31 29 31 29 28 27 20 17 16 14 15 14 13 11 8 7 9 10 12 12 11 13 15 18 21 22 23 24 27 27 28 28 31 36 26 28 33 38 35 38 39 40
41 36 36 35 33 28 26 23 20 19 18 17 16 15 13 11 9 9 7 7 8 8 10 11 13 15 17 20 23 25 27 28 29 30 32 35 39 29 31 31 34 38 39 39 41
37 35 34 31 27 26 24 22 19 19 17 18 17 15 14 12 11 7 6 6 5 6 8 8 7 8 9 12 15 21 24 24 28 30 35 38 42 30 38 35 28 33 39 40 40
35 35 31 29 27 26 24 22 20 19 18 17 17 17 13 9 7 4 4 5 3 3 2 0 2 4 5 6 7 8 11 15 19 23 26 36 39 30 34 37 35 33 34 40 43
34 32 31 28 27 28 24 21 21 21 18 16 15 14 12 11 9 6 5 3 2 3 5 5 5 7 9 10 11 12 12 13 14 15 19 25 24 27 30 35 38 38 41 41 44
31 32 31 31 31 27 24 23 22 19 17 16 16 15 12 11 7 7 7 5 3 1 1 3 5 7 9 12 14 16 18 19 22 23 26 27 27 25 27 31 35 40 41 46 45
36 35 32 34 29 27 26 23 22 19 18 18 16 13 12 11 8 7 7 5 2 2 3 5 8 10 12 14 17 19 21 23 24 25 27 31 37 32 35 34 38 39 42 46 50
37 35 35 32 30 26 25 24 21 20 22 20 17 14 13 12 11 9 9 8 6 6 7 9 11 13 15 18 19 20 21 23 28 31 31 34 42 38 41 41 42 45 46 51 51
40 37 35 31 29 29 27 26 23 22 23 19 15 14 14 14 13 10 9 9 9 10 12 14 16 18 20 23 27 29 30 32 34 36 39 39 41 42 43 43 47 49 49 51 53
40 36 33 30 29 30 31 29 25 21 20 17 14 15 16 16 14 13 12 11 11 13 15 18 20 22 22 23 27 30 32 34 34 37 42 42 41 45 48 46 48 49 53 54 57
39 37 34 31 32 34 32 29 28 22 19 18 17 18 19 19 17 16 17 16 16 17 18 19 22 24 26 29 31 36 36 38 39 41 38 43 41 42 45 48 51 50 54 57 62
36 35 35 33 32 33 33 29 28 25 22 20 20 20 21 21 20 20 20 20 18 20 21 23 26 29 32 34 36 38 41 42 43 44 44 43 45 47 48 48 50 52 57 63 68
39 37 36 34 33 33 32 30 28 27 24 23 23 22 24 24 24 24 24 24 25 25 27 29 32 35 39 40 41 41 44 46 47 47 45 47 48 47 45 50 53 56 64 68 72

GFSSW_250_spd_027.txt.gz
Wind_Speed
34 34 36 36 39 40 38 37 38 38 40 42 43 41 39 38 39 45 49 56 57 60 63 62 58 66 67 86 92 97 94 86 82 84 85 85 77 82 88 87 87 90 92 92 92
32 33 34 33 36 35 34 34 34 32 36 41 41 38 36 36 39 42 48 50 54 55 57 58 59 66 70 77 84 89 90 84 78 82 84 82 85 83 78 74 74 86 88 92 90
32 29 30 32 33 32 30 29 31 32 33 36 38 36 32 32 36 38 46 48 51 54 58 61 66 62 72 75 74 79 80 85 80 83 89 89 87 90 93 92 97 98 97 89 87
27 28 30 29 30 28 26 26 29 30 31 31 30 29 27 32 34 37 39 44 47 51 57 68 68 72 74 76 77 76 79 85 86 77 84 85 91 89 92 87 88 89 91 92 93
27 30 29 26 25 23 22 23 25 26 26 26 27 28 29 32 33 35 38 40 43 46 51 63 73 75 69 72 76 71 75 80 79 76 78 83 83 87 88 93 88 84 91 91 91
28 29 26 24 22 20 20 21 21 21 23 24 25 28 28 28 30 31 32 33 37 41 46 47 60 79 78 72 73 73 76 81 81 83 83 82 84 84 85 88 87 85 83 84 82
28 24 21 22 19 19 20 19 19 20 20 21 24 27 28 29 30 30 31 32 35 38 44 48 48 52 62 75 81 79 78 76 78 85 86 88 84 82 82 87 88 88 89 86 83
23 22 21 20 19 20 19 19 18 18 20 22 22 22 23 24 25 28 29 29 32 34 37 42 45 48 53 57 64 73 79 79 83 78 78 78 83 83 80 82 80 73 70 65 66
19 18 20 21 20 20 19 20 19 19 20 21 22 23 23 24 25 25 27 29 30 32 35 38 40 44 46 48 51 52 54 59 60 63 62 61 62 62 59 57 57 54 50 51 44
17 19 20 22 22 21 21 21 22 22 21 21 20 21 21 21 21 22 22 23 24 26 29 31 34 36 38 42 43 45 46 47 50 52 51 48 47 46 48 46 46 43 43 30 29
19 22 22 22 23 22 22 24 24 24 23 22 16 21 18 18 18 19 20 21 23 25 29 31 32 32 32 33 34 35 35 32 39 38 41 41 38 38 40 37 40 34 32 27 30
24 24 23 24 24 23 23 24 23 25 27 29 23 23 20 18 16 17 17 17 17 18 19 22 23 22 24 27 28 28 27 29 32 32 33 35 31 34 35 33 33 33 34 32 34
26 27 27 29 32 33 31 28 26 27 26 27 22 20 21 19 18 17 16 16 16 17 18 19 19 20 20 20 19 22 25 24 28 28 29 32 28 29 34 34 32 31 33 34 36
30 31 31 29 29 33 32 31 28 23 24 24 22 24 22 19 17 16 14 14 16 14 13 13 13 13 15 15 15 23 17 22 23 27 26 32 29 28 32 36 31 34 34 37 36
34 33 31 32 32 32 30 31 28 25 25 23 20 22 19 17 15 16 11 9 8 8 9 10 12 14 15 16 17 20 20 21 24 26 26 34 32 25 27 30 32 40 34 36 39
39 38 35 34 31 32 31 29 30 25 25 21 21 19 18 17 14 12 11 8 6 8 10 11 12 12 13 13 15 17 20 23 23 25 29 33 35 30 27 27 31 38 40 42 43
39 37 41 30 32 32 31 30 28 26 22 20 19 19 17 14 12 9 7 6 6 8 8 8 8 7 6 7 9 11 13 16 18 21 24 28 30 29 25 24 27 32 34 38 42
38 41 38 32 33 32 30 26 26 23 21 19 18 16 14 13 11 8 6 4 5 4 3 4 5 5 5 5 5 5 6 7 9 14 20 22 25 29 27 24 21 26 30 36 39
45 35 36 33 31 29 27 27 24 22 20 18 17 15 15 11 10 6 4 5 4 5 8 9 7 5 4 5 7 9 11 13 16 19 22 18 21 22 29 31 30 29 32 38 43
40 36 34 32 29 28 29 26 23 21 20 18 18 17 12 10 8 7 7 7 7 7 7 4 2 2 4 7 10 13 15 17 19 23 28 28 25 27 31 35 36 36 37 40 45
37 36 31 27 28 29 29 25 23 22 21 18 16 14 13 13 10 9 9 9 8 6 4 3 3 4 7 10 13 14 17 19 20 22 26 35 34 32 35 35 38 39 41 43 47
37 34 31 30 30 32 28 25 23 22 20 17 17 17 15 14 11 10 10 10 8 8 7 8 9 10 12 14 15 16 18 22 27 28 30 33 42 38 38 41 40 40 44 44 48
34 34 32 29 32 30 28 26 24 21 20 18 19 17 15 13 12 12 11 12 13 12 12 11 11 14 16 19 20 20 24 27 31 37 38 36 40 40 39 42 40 47 47 48 50
33 35 32 32 34 28 26 26 25 22 20 20 19 18 14 13 14 14 14 13 13 13 14 15 15 15 15 18 21 25 28 31 32 34 39 42 43 43 42 43 48 49 52 53 50
39 38 36 37 34 29 27 27 27 24 21 22 21 19 16 14 15 16 16 16 15 16 16 16 17 18 20 23 26 30 33 36 38 40 41 44 43 42 53 51 48 49 52 54 56
43 39 35 37 32 26 28 29 29 26 22 22 20 17 17 19 19 19 18 18 18 19 19 20 23 25 27 31 34 37 38 41 43 44 44 47 50 47 49 51 52 54 55 56 59
41 39 39 35 31 28 30 30 30 28 26 21 18 20 21 17 18 19 20 20 20 21 24 25 28 31 35 38 41 44 47 48 49 48 48 48 50 53 56 54 55 57 57 59 61

GFSSW_250_spd_030.txt.gz
Wind_Speed
42 37 36 39 42 39 39 37 35 37 39 39 41 42 38 38 35 35 38 43 46 48 51 55 54 62 62 64 64 68 87 96 95 96 91 83 82 85 84 83 86 86 86 80 83
36 36 35 38 36 37 34 34 36 35 37 38 38 38 36 37 39 37 37 42 45 48 48 53 58 53 54 60 54 57 64 73 87 96 98 97 90 87 88 89 90 92 94 91 88
32 32 33 33 35 36 33 31 32 33 35 34 34 35 40 38 36 37 37 41 44 47 48 54 67 65 68 64 64 60 58 62 67 75 89 95 95 91 88 91 86 81 84 86 83
30 32 30 31 33 32 30 28 29 32 31 30 32 35 39 37 34 36 36 40 45 47 48 51 66 70 63 59 64 53 57 60 62 66 74 77 74 86 85 87 92 89 88 86 84
34 33 32 31 29 30 26 25 26 27 25 26 27 29 33 33 30 33 37 39 40 43 42 44 52 67 70 61 59 64 66 67 66 69 72 75 78 80 79 75 72 74 81 78 86
33 30 31 29 29 26 23 20 19 18 19 23 27 29 29 28 25 27 31 34 40 40 44 48 57 66 71 67 69 70 69 70 69 70 75 74 75 75 74 76 78 80 79 82 81
32 31 28 29 25 20 18 17 16 16 19 23 28 27 26 28 28 28 31 32 33 41 46 46 50 63 70 72 75 75 68 68 68 72 72 73 78 76 78 81 85 84 83 82 85
32 26 26 23 18 17 18 17 17 17 19 22 24 26 27 27 28 29 31 32 33 33 35 40 44 48 64 68 69 71 77 71 65 71 74 76 76 78 81 81 84 88 87 88 85
29 22 22 18 18 19 18 18 18 18 19 21 24 26 27 28 27 27 27 28 30 31 33 33 34 36 40 53 65 69 69 67 67 68 69 72 76 78 81 79 75 75 70 71 70
24 20 16 17 18 19 20 20 20 21 23 23 24 25 25 25 24 21 23 24 25 27 26 27 30 35 37 38 40 43 46 52 62 64 62 64 65 67 70 63 60 58 55 52 51
19 15 17 20 22 22 21 20 21 21 23 24 23 23 24 24 24 23 23 23 25 26 26 26 28 30 32 33 35 38 43 47 47 49 49 47 44 44 46 42 44 41 43 45 45
16 18 21 20 22 24 25 27 29 28 27 26 24 26 25 24 22 21 21 22 23 23 24 24 26 27 28 30 31 30 29 31 33 35 36 32 35 39 40 35 38 38 38 38 38
19 21 20 26 30 28 28 28 27 27 27 26 27 28 27 26 23 18 17 17 17 16 14 14 15 16 17 19 23 25 27 31 32 30 30 31 29 31 32 28 29 32 35 37 35
24 25 27 28 28 29 30 29 28 28 26 24 25 25 22 19 17 17 16 13 12 12 14 16 17 19 18 18 20 21 21 23 25 26 25 29 25 26 28 30 32 35 37 37 36
29 29 28 27 29 32 31 30 30 29 28 25 25 24 23 21 17 15 15 14 16 15 16 17 17 17 17 17 18 19 20 21 23 26 30 28 28 24 26 31 35 38 36 37 40
33 33 33 34 34 33 33 31 30 26 24 24 24 24 21 18 19 18 17 16 15 12 12 10 10 10 11 13 14 16 19 20 22 26 27 24 21 20 26 30 31 34 37 39 40
37 39 38 34 33 34 32 31 30 28 27 25 25 23 21 20 18 17 15 12 10 10 9 8 10 10 9 9 9 11 10 9 9 9 8 7 7 9 11 16 20 24 26 27 31
42 41 40 35 36 38 34 32 31 29 27 26 25 22 22 21 19 15 12 9 8 7 7 7 8 8 8 6 5 2 1 4 7 10 10 14 16 19 16 18 20 24 28 32 36
44 41 38 34 35 33 31 32 30 30 26 25 24 23 21 17 14 12 9 8 9 9 11 14 13 10 8 4 1 3 7 9 12 14 13 17 21 23 25 26 25 29 33 38 40
44 42 36 36 33 32 32 33 30 28 25 25 22 20 17 15 14 10 9 9 11 14 15 12 8 5 1 1 4 7 10 12 15 18 19 19 22 25 27 28 31 35 38 41 44
40 38 42 31 34 34 32 32 28 25 24 22 19 18 18 15 12 9 10 12 12 12 11 8 6 4 4 6 10 12 15 17 18 20 25 26 25 28 31 33 34 35 37 39 42
41 43 38 37 34 32 33 30 26 24 22 20 19 19 17 14 11 11 13 13 12 11 10 9 9 11 11 12 14 15 17 21 25 25 28 34 34 34 36 38 39 40 40 42 45
45 38 38 36 31 32 32 29 25 24 22 20 19 19 17 14 15 15 14 13 12 12 11 12 13 14 16 16 15 17 20 24 28 33 35 38 38 39 40 43 43 45 44 45 48
42 39 35 31 31 33 32 29 26 24 23 20 19 18 16 16 17 15 14 14 14 14 14 15 16 17 17 18 18 20 23 27 30 35 39 40 45 45 43 46 49 51 52 52 53
41 38 38 34 33 35 34 31 27 24 22 19 19 18 18 18 19 17 15 15 15 15 16 17 19 18 18 20 23 27 31 34 37 40 42 45 46 48 50 51 52 54 56 58 59
43 40 37 37 32 34 30 28 26 25 22 19 18 21 23 22 21 17 15 15 15 17 18 20 19 19 22 24 29 33 36 38 40 46 48 50 52 52 53 56 57 59 60 61 63
38 39 37 33 32 34 29 26 25 24 23 21 23 24 22 20 18 17 17 16 18 19 20 21 22 24 26 28 33 36 37 41 45 50 55 59 58 56 58 60 63 64 63 63 64

GFSSW_250_spd_033.txt.gz
Wind_Speed
74 70 61 45 38 39 42 45 41 38 39 41 40 39 38 40 43 43 39 38 42 43 44 47 51 51 57 55 60 67 65 73 75 93 96 91 90 93 91 88 84 90 87 83 82
70 61 49 41 37 39 42 41 36 33 38 40 35 36 35 40 42 40 37 33 37 40 40 45 48 51 52 54 60 62 64 69 69 70 73 83 92 95 94 89 86 85 85 85 89
62 55 41 38 37 39 40 35 32 34 36 34 32 35 38 40 42 43 37 32 34 40 43 45 44 48 52 51 47 56 50 57 61 66 71 70 74 76 82 88 93 94 81 81 82
57 51 39 38 36 37 38 32 29 33 31 31 33 36 37 40 42 39 36 37 35 41 43 42 41 45 47 47 48 40 42 48 52 58 61 66 71 70 72 75 72 71 75 81 89
53 45 34 34 35 35 35 32 30 30 30 32 32 34 36 37 40 38 34 35 34 36 39 39 40 41 47 48 51 49 48 54 52 52 52 53 59 62 67 74 78 79 68 69 72
52 41 34 36 36 34 32 30 28 27 24 27 29 31 35 36 36 33 30 30 30 33 37 38 39 43 53 60 63 61 57 50 58 57 58 60 60 61 61 60 61 67 72 77 77
47 35 34 37 35 33 31 27 24 19 22 27 29 31 31 31 31 30 28 31 34 35 37 40 41 41 49 57 69 63 59 65 54 58 58 61 61 61 66 66 65 65 68 72 73
40 32 35 35 32 31 23 21 19 20 22 25 28 29 27 29 31 30 30 34 36 37 37 37 39 41 42 52 64 66 63 64 59 61 64 64 64 69 71 69 69 71 74 78 80
36 32 35 31 31 22 18 19 21 20 20 21 26 29 30 32 35 32 29 31 32 33 33 37 36 35 38 43 51 58 69 71 68 66 65 66 67 69 68 73 74 76 77 79 80
31 33 29 30 23 18 19 20 21 21 21 22 26 28 29 30 29 25 25 26 27 26 25 24 25 27 30 33 39 48 55 63 65 67 66 68 73 69 68 61 60 64 64 68 62
28 28 28 21 15 18 19 21 23 22 23 25 27 27 27 24 24 26 25 24 23 23 27 30 29 27 27 30 33 34 38 47 61 60 59 56 58 58 56 58 53 54 48 46 45
26 25 20 15 18 20 24 27 26 27 27 27 28 28 27 28 27 27 26 26 27 27 26 26 27 26 26 30 33 34 35 34 34 35 38 42 43 42 39 36 40 43 43 43 43
22 20 15 19 21 24 26 26 26 27 28 26 25 26 28 28 27 26 25 25 24 23 22 24 23 23 23 25 25 26 26 26 25 25 28 29 32 33 34 33 35 38 39 38 35
19 17 20 23 24 25 25 25 27 26 26 27 28 28 28 25 24 23 23 21 19 20 20 19 16 17 18 20 21 23 24 26 25 25 26 25 26 27 27 29 32 36 37 35 36
18 21 24 26 26 27 28 28 28 28 27 28 29 29 28 24 22 22 18 16 16 14 15 16 17 20 21 22 22 24 23 24 25 26 23 23 21 25 28 32 34 36 39 39 41
21 27 26 26 28 31 32 31 31 30 23 22 25 24 24 21 15 16 18 17 16 17 17 17 18 19 19 19 20 21 21 21 21 20 17 15 17 23 24 26 28 29 32 33 33
28 30 29 30 33 33 31 32 31 29 26 25 24 21 20 19 20 18 16 17 16 16 16 17 17 17 16 14 13 12 11 9 5 3 3 5 6 9 12 16 20 24 29 32 34
33 35 35 37 36 33 31 32 30 28 25 22 23 22 21 20 20 19 17 16 15 13 12 13 13 11 10 9 7 6 5 3 1 4 7 8 10 12 14 19 24 28 31 34 39
37 40 41 40 36 32 31 30 27 27 24 26 26 23 22 22 19 18 15 13 13 13 12 10 10 12 10 8 7 5 4 3 5 8 10 13 17 19 20 26 28 31 34 35 37
43 47 44 40 32 35 32 29 30 30 28 27 24 26 25 22 21 17 14 12 12 12 14 15 14 12 10 7 4 4 5 9 11 13 15 17 19 21 23 28 30 30 33 35 38
47 47 43 35 34 34 32 29 30 28 26 26 27 26 24 22 18 14 11 11 13 15 17 14 12 10 6 5 7 9 12 14 16 18 18 21 24 28 31 34 35 38 40 41 42
53 48 41 33 34 34 32 31 28 28 28 29 27 25 22 19 16 12 12 13 14 16 14 13 12 9 9 11 13 14 15 17 19 21 25 26 28 32 35 37 40 41 42 44 46
51 48 42 38 34 33 33 33 32 30 29 27 24 22 21 18 15 12 13 15 15 14 14 12 11 12 13 16 17 18 17 19 22 27 29 32 33 36 38 41 44 47 48 49 51
54 46 40 41 34 36 36 36 33 30 27 24 23 22 21 17 15 15 16 15 16 15 14 13 15 16 17 18 18 18 21 23 27 30 32 34 37 41 45 48 51 51 51 52 54
47 42 44 35 33 35 36 35 32 30 27 24 23 22 22 20 18 18 17 17 17 16 15 16 18 19 21 21 21 22 24 27 30 31 34 39 44 46 50 53 56 57 58 57 57
43 45 41 40 39 37 38 35 31 29 27 25 23 23 23 20 18 18 17 15 16 16 17 18 20 22 23 23 25 27 29 29 31 35 38 42 47 51 54 56 59 63 60 58 58
45 48 41 38 35 36 37 35 32 30 28 26 24 23 22 18 20 19 19 22 20 20 19 20 21 23 26 25 27 31 31 31 37 42 44 48 52 55 58 60 64 66 61 59 60

GFSSW_250_spd_036.txt.gz
Wind_Speed
78 76 74 78 76 63 56 44 36 36 36 36 37 38 42 41 42 44 44 43 41 43 43 44 46 48 49 49 52 57 56 63 67 73 74 75 72 83 87 80 78 74 74 80 84
81 76 77 77 70 62 51 39 36 37 36 34 36 35 39 42 41 42 43 40 39 40 41 39 41 41 43 43 44 46 48 55 59 64 68 73 76 78 85 78 80 75 73 78 82
79 78 78 71 72 60 50 36 37 37 34 34 36 40 41 41 40 37 38 37 35 35 37 33 38 37 40 38 37 40 40 36 40 58 59 66 71 70 74 81 84 77 77 83 80
81 79 78 70 67 55 44 36 37 35 34 35 38 37 36 37 35 34 34 31 32 30 29 31 33 33 35 35 35 33 35 47 47 50 47 48 58 63 67 70 76 71 73 76 77
81 79 74 68 62 50 40 36 38 35 35 33 35 34 36 34 33 32 30 32 32 27 21 27 31 34 31 33 36 40 43 46 50 52 53 54 53 55 56 56 56 59 62 63 68
79 80 70 68 57 46 38 37 36 35 36 32 31 32 32 28 30 32 31 31 32 30 25 29 32 32 31 37 42 45 46 47 40 39 44 46 48 53 57 64 63 63 64 61 64
79 78 67 67 52 44 35 35 36 37 33 30 29 28 27 26 29 30 29 33 30 29 28 31 37 38 37 38 44 45 44 48 42 39 42 46 49 49 46 49 52 53 56 60 64
76 76 66 65 51 40 33 35 36 31 29 27 24 25 24 28 29 29 32 31 29 30 29 28 34 37 37 35 38 43 46 48 50 47 50 47 53 56 56 55 59 62 63 67 68
77 72 65 56 44 32 32 35 30 28 24 20 20 20 25 25 28 31 34 33 32 31 30 28 28 33 33 33 34 34 35 39 37 52 55 56 55 55 58 58 59 60 66 68 70
71 65 63 47 35 33 32 30 27 22 17 16 17 20 25 26 29 32 32 29 27 25 27 28 28 28 30 34 37 37 37 39 40 42 42 51 53 60 56 57 63 66 69 70 70
67 59 55 37 33 32 26 23 19 16 17 17 20 24 23 23 24 25 22 19 18 21 26 26 26 27 31 33 34 34 34 39 42 45 49 49 51 49 60 64 63 61 67 61 50
64 51 45 32 30 22 17 16 17 19 20 20 23 26 26 27 29 27 23 20 21 22 23 21 23 25 25 26 27 28 28 28 32 37 42 41 41 47 50 45 46 42 44 45 44
53 44 34 32 23 16 13 18 21 21 21 21 23 24 26 25 25 25 24 24 24 21 20 22 23 24 24 24 25 24 23 24 26 26 27 30 32 34 35 37 38 40 41 37 34
42 39 30 27 18 17 18 21 21 22 22 22 22 23 25 26 25 23 22 22 22 21 21 20 21 22 23 22 21 20 20 20 21 22 24 26 29 30 32 34 35 36 37 37 36
39 34 28 22 19 20 20 22 22 21 21 22 22 22 24 23 21 22 19 18 18 17 16 15 17 18 18 18 18 20 21 21 21 21 21 23 24 31 31 32 32 32 33 36 37
37 31 27 23 23 22 22 23 23 23 24 24 24 24 23 22 21 21 19 18 18 18 18 16 16 17 16 17 17 17 17 17 17 18 20 23 26 30 27 27 28 27 25 25 27
37 31 27 26 26 25 24 25 27 27 26 26 26 24 22 23 20 19 19 17 17 16 15 16 17 17 17 17 18 18 18 16 14 13 12 12 12 15 15 17 20 23 26 29 32
37 31 29 30 29 28 30 30 30 27 24 24 24 23 24 23 22 19 16 16 15 15 16 15 16 16 17 17 16 13 11 11 11 9 9 9 11 14 17 19 23 27 30 33 36
37 30 34 32 31 33 34 32 30 28 25 27 23 23 22 20 19 18 16 16 15 15 16 15 17 18 15 14 11 11 10 8 6 5 6 9 13 15 18 22 25 28 33 37 40
39 31 38 35 37 35 33 30 31 29 28 26 26 25 22 21 19 18 18 16 15 14 15 15 15 13 12 11 11 9 7 6 6 9 11 14 16 19 22 25 29 31 35 39 42
39 38 40 40 41 32 32 31 29 28 27 26 26 23 23 21 21 19 15 14 14 14 14 13 12 12 10 10 8 7 6 9 11 13 15 18 19 22 26 29 33 35 38 41 43
38 45 44 44 41 34 34 30 28 30 27 25 24 24 23 23 20 16 14 14 14 14 16 15 14 11 9 8 7 9 12 15 16 17 19 20 24 27 29 31 35 38 41 45 47
44 50 50 47 40 37 35 31 28 28 26 26 26 25 25 22 20 18 15 15 16 16 17 14 13 11 9 9 11 14 17 20 21 21 22 25 28 31 32 35 39 43 45 46 48
53 53 52 51 40 40 36 31 32 29 29 29 29 28 26 23 22 19 16 16 16 17 16 14 12 10 11 13 16 18 20 21 23 24 28 29 31 33 38 41 44 46 49 51 53
53 54 50 41 37 37 35 34 34 32 32 31 30 28 27 25 22 19 16 15 15 15 14 13 13 13 15 16 18 21 24 25 27 29 31 32 35 39 42 47 50 51 52 55 59
54 56 50 43 43 38 35 36 35 34 33 32 29 28 26 25 21 17 16 16 15 14 16 17 18 18 19 20 22 25 27 28 30 31 31 36 41 44 49 54 56 57 56 61 61
56 58 53 44 41 37 38 40 38 37 35 32 28 26 25 23 21 18 17 17 17 21 22 20 20 21 24 23 24 30 30 31 30 31 36 41 44 48 53 58 60 61 62 65 67

GFSSW_250_spd_039.txt.gz
Wind_Speed
68 67 69 78 74 77 75 72 69 63 48 36 31 30 31 31 34 36 34 40 40 41 39 36 36 37 40 43 43 44 45 49 52 60 64 68 70 75 75 72 75 79 85 81 77
72 69 70 78 79 76 75 73 67 62 45 36 33 32 32 31 31 32 33 35 39 39 37 35 35 36 39 39 39 39 40 41 46 51 61 64 70 70 73 74 68 62 61 62 68
71 68 75 79 80 78 76 75 69 61 42 36 29 30 32 33 31 32 32 34 38 36 34 33 32 34 34 34 33 33 34 33 36 44 49 58 61 60 63 68 69 69 68 66 64
67 72 79 78 79 78 76 73 67 54 40 35 32 32 35 36 32 28 27 31 33 32 30 28 29 29 28 28 29 25 28 31 35 38 41 49 54 55 56 58 63 65 64 64 67
69 76 79 81 80 79 78 70 61 46 39 38 34 33 30 34 25 23 27 29 31 28 28 27 25 25 25 24 24 24 26 29 30 35 37 36 39 44 48 51 60 64 66 69 70
72 78 78 81 78 77 75 71 56 40 39 37 34 32 28 28 22 23 26 29 28 29 29 23 23 24 26 26 26 26 28 29 36 35 30 26 31 38 38 39 44 49 54 55 58
74 79 77 81 78 75 73 67 47 38 37 35 35 30 22 22 20 23 27 28 27 30 28 22 23 24 27 26 26 26 32 33 34 35 35 36 36 36 37 41 46 49 56 59 61
72 75 77 79 80 72 68 61 41 37 35 33 32 24 19 19 21 23 27 28 28 33 28 27 25 27 28 29 26 22 28 36 36 38 40 37 39 39 40 44 46 45 47 48 53
75 73 73 77 76 68 65 55 39 37 34 28 24 15 17 17 21 24 26 28 30 29 28 27 25 25 27 27 28 25 30 37 38 40 42 46 42 39 39 37 47 52 54 57 58
69 69 71 73 72 63 60 46 39 33 28 20 15 13 15 17 21 25 26 28 31 27 28 25 23 23 27 29 31 29 25 28 37 36 40 46 47 51 44 47 49 42 48 51 50
70 67 71 69 68 59 53 42 33 25 18 14 14 14 14 17 23 28 26 27 25 25 26 25 21 21 21 27 27 29 28 29 31 32 35 39 52 42 48 46 50 53 56 56 58
73 71 72 69 66 53 44 34 23 16 15 14 14 14 16 17 20 23 22 23 23 25 25 25 27 25 26 25 25 26 30 32 33 33 32 33 35 35 34 35 43 47 48 46 42
75 70 69 67 63 48 37 25 18 14 15 14 14 17 19 21 23 26 29 28 23 21 23 25 25 25 26 27 27 28 27 28 28 28 28 29 30 30 32 33 37 40 38 36 35
72 67 65 65 56 41 31 20 16 14 14 14 16 20 21 24 26 26 24 22 20 20 21 20 21 22 23 23 23 24 24 24 25 26 26 26 29 31 32 32 32 32 31 30 31
72 63 54 55 46 33 26 18 16 15 14 15 17 21 22 23 24 23 21 19 19 19 20 20 21 22 21 20 20 21 23 24 23 23 25 27 27 30 28 26 26 26 28 28 24
70 56 49 46 41 28 23 19 16 17 18 18 19 20 20 21 21 21 19 18 17 19 20 20 18 15 17 18 20 20 20 19 21 24 26 24 24 23 22 22 20 17 16 19 22
66 52 45 40 37 26 24 20 16 20 20 21 20 20 21 21 22 21 21 22 21 20 18 17 17 17 17 17 17 17 18 20 21 18 17 18 16 12 9 10 13 15 18 21 24
56 47 42 36 35 25 24 22 22 22 21 21 21 20 20 20 20 21 20 19 18 17 17 16 14 12 12 11 11 11 12 13 13 11 9 8 7 8 10 13 16 18 21 25 29
49 46 44 37 33 28 26 24 26 25 22 23 23 22 24 23 23 23 21 19 17 15 13 13 12 13 12 11 13 13 15 14 12 9 7 8 10 12 14 16 19 23 27 30 32
51 47 47 39 31 32 31 28 30 27 26 25 26 25 23 25 24 21 18 15 14 13 12 12 13 13 11 13 14 15 14 12 9 8 9 11 12 14 16 19 22 26 29 32 34
57 53 44 40 33 33 35 34 34 31 26 27 27 24 25 24 20 17 15 14 14 13 13 12 11 12 14 15 15 11 8 6 6 7 11 13 15 17 20 23 26 28 32 35 39
57 57 43 39 37 38 36 36 35 33 27 27 28 26 24 20 17 18 17 16 13 12 12 12 14 15 15 15 13 9 6 6 8 10 13 16 18 21 24 25 28 31 33 39 41
59 52 46 40 41 43 39 38 33 31 30 31 29 26 24 21 20 19 16 14 13 13 14 16 16 14 14 12 8 6 8 10 12 14 15 19 22 23 25 27 31 34 38 40 45
53 47 48 46 51 47 42 37 35 31 31 30 29 27 24 23 22 19 17 16 15 15 16 16 15 14 11 10 10 10 12 15 17 18 20 21 26 24 28 31 35 39 42 46 52
46 47 44 49 52 48 45 41 36 30 31 29 29 28 25 25 23 21 18 16 15 15 15 15 15 14 12 12 13 14 17 19 20 23 25 27 30 25 32 37 41 44 47 52 56
48 50 49 59 58 50 45 40 36 33 33 32 31 28 27 26 24 22 20 18 17 17 17 16 16 16 16 15 17 19 24 23 25 28 28 30 32 32 37 41 45 49 53 57 61
53 50 59 60 56 50 46 42 37 35 34 33 31 30 29 28 25 23 21 19 19 19 21 22 19 17 19 20 20 25 29 27 29 31 32 31 35 38 43 47 52 55 58 62 66

GFSSW_250_spd_042.txt.gz
Wind_Speed
61 57 54 60 64 67 70 75 75 72 65 62 52 40 28 30 24 24 27 33 38 39 38 37 39 36 35 37 40 41 41 41 43 46 49 53 54 59 63 66 73 76 77 73 74
62 61 59 62 64 69 72 77 76 74 67 63 53 37 28 27 25 22 26 29 34 34 36 37 37 35 32 33 34 38 37 39 40 41 45 49 55 59 63 64 67 71 72 69 70
62 65 62 66 68 74 75 75 75 75 67 63 54 37 28 29 26 24 24 26 29 32 34 36 36 33 31 29 29 31 32 33 35 36 38 43 50 56 57 57 66 66 67 65 65
58 59 64 64 71 75 74 78 73 75 68 64 53 36 28 29 27 28 28 29 28 30 32 33 32 31 27 27 27 24 25 24 25 30 34 36 40 42 50 57 62 64 62 62 66
58 64 66 67 71 71 74 74 71 73 68 64 49 35 29 25 24 30 24 26 27 29 29 29 30 28 28 26 23 23 22 24 27 29 33 35 33 36 43 46 52 53 54 56 62
58 64 65 67 71 71 72 71 71 71 65 59 44 33 26 26 25 25 20 22 25 25 24 26 23 26 27 24 23 24 23 25 29 28 31 26 30 28 36 41 38 43 49 51 56
62 65 65 72 74 71 71 71 71 67 64 49 41 35 32 24 21 20 19 22 23 24 26 27 27 27 26 24 25 25 23 24 25 29 29 26 22 26 24 31 33 36 37 39 41
61 64 66 70 74 73 72 72 70 62 57 44 41 35 29 20 19 17 20 21 23 25 28 31 29 27 27 26 26 25 25 25 25 26 27 26 24 26 27 28 29 32 40 37 41
63 64 67 69 72 72 73 70 69 61 51 42 33 26 20 17 15 17 21 25 27 29 34 33 29 27 26 30 26 24 25 22 22 29 29 28 29 33 33 33 34 37 38 41 41
63 67 67 71 72 70 69 70 63 57 46 36 25 18 14 13 13 18 23 28 29 33 36 32 31 27 27 29 29 25 21 19 20 22 26 28 31 36 37 38 39 40 41 41 34
68 68 68 76 71 70 70 67 59 51 38 29 18 15 12 11 14 21 25 30 30 38 34 31 28 26 27 29 29 27 23 22 24 25 28 24 26 30 36 39 45 44 42 45 48
70 71 68 76 73 67 68 67 50 42 34 25 18 14 11 11 16 22 26 28 32 33 29 30 27 24 24 25 27 25 27 29 25 25 25 28 30 33 34 38 43 46 45 50 48
71 71 72 73 74 67 63 65 47 37 27 20 14 11 10 12 13 20 23 27 30 27 27 30 27 26 25 25 25 27 27 27 28 29 31 34 35 37 40 44 41 46 46 40 38
70 74 74 72 71 67 59 61 43 31 23 16 10 9 11 14 19 21 26 29 28 26 27 26 28 27 25 25 27 28 28 29 29 30 31 32 33 32 33 32 31 31 31 32 30
74 76 74 80 72 65 57 55 37 27 21 14 11 10 12 14 20 27 29 30 28 27 27 27 25 25 26 27 27 27 28 28 29 30 30 29 29 28 27 26 27 29 29 27 25
72 77 74 71 71 63 53 45 30 25 19 14 12 14 17 17 22 27 29 27 24 23 22 21 21 22 21 22 24 24 25 25 25 26 28 25 24 21 24 24 23 20 17 15 17
74 73 73 66 70 59 49 36 27 22 19 15 14 16 19 19 22 25 24 24 24 24 24 23 24 22 22 20 19 18 20 22 24 23 21 20 20 19 15 10 8 11 14 16 19
74 72 70 65 67 53 45 29 25 20 21 17 18 19 21 22 24 24 24 24 21 20 20 21 22 20 17 16 17 19 19 20 19 18 20 20 14 10 9 9 11 13 15 19 22
70 69 68 68 64 48 39 25 25 21 22 19 19 20 23 22 22 22 21 20 20 21 20 19 19 19 20 22 22 21 19 19 18 17 14 10 8 8 10 13 14 16 17 20 24
72 73 67 65 57 44 32 27 24 25 25 23 25 23 23 25 24 23 22 21 20 18 18 18 19 18 17 17 16 15 14 14 13 13 11 9 9 12 14 15 17 19 21 22 26
69 69 64 59 54 43 29 30 28 31 28 28 27 24 25 23 23 23 23 23 20 18 17 16 15 15 16 15 15 14 14 14 13 10 11 11 13 15 15 18 20 22 23 25 29
69 71 65 57 54 41 34 32 34 35 32 31 25 26 25 25 25 23 21 19 19 17 15 14 14 15 16 18 19 19 17 13 12 13 14 15 15 17 20 22 24 24 25 29 33
73 73 65 58 52 44 41 37 40 39 36 32 29 30 30 28 24 21 21 21 17 15 15 15 18 19 20 19 17 15 14 14 14 16 17 19 19 21 22 26 27 28 31 34 37
73 73 62 58 53 48 42 42 45 41 39 33 30 30 31 27 23 22 23 20 18 16 15 17 20 19 18 18 19 17 16 17 17 17 20 22 23 23 27 31 32 33 37 39 42
68 61 57 55 47 45 44 49 46 42 42 36 30 32 32 27 23 25 24 21 17 16 18 20 21 20 20 19 19 18 18 20 20 20 23 25 28 25 28 35 35 38 42 44 47
61 57 57 53 51 49 50 49 48 45 42 35 34 34 33 25 26 27 24 20 18 17 19 21 22 22 22 21 19 20 23 23 22 24 27 27 33 33 34 36 39 44 46 49 54
54 57 54 53 47 51 55 51 51 46 40 35 34 35 31 28 30 28 25 22 20 21 22 24 25 24 23 21 20 26 27 25 26 30 31 32 36 39 41 41 44 48 50 54 60

GFSSW_250_spd_045.txt.gz
Wind_Speed
56 59 60 62 64 66 63 64 65 69 69 68 66 65 58 51 32 29 24 25 31 35 39 39 40 40 39 38 37 42 42 43 45 43 21 32 46 56 55 58 60 60 61 66 64
59 62 59 62 66 66 65 64 65 69 70 67 68 68 61 51 30 25 22 24 26 27 29 35 38 39 35 33 34 37 40 39 37 23 19 57 55 52 47 54 61 59 60 66 66
61 61 61 61 66 69 65 64 69 73 75 73 71 66 62 44 30 25 26 27 24 27 28 31 36 35 37 32 31 32 31 33 32 33 38 42 44 39 45 52 56 55 47 58 65
63 63 59 62 65 68 69 64 70 72 77 74 71 67 56 37 30 28 27 28 27 28 28 27 32 34 34 30 27 25 25 29 34 40 41 36 29 34 36 49 48 50 54 59 57
62 66 63 63 66 69 65 64 67 73 76 74 68 66 52 36 28 25 26 29 29 31 27 24 27 31 29 28 29 29 30 26 26 29 30 22 12 34 30 33 37 42 47 49 52
64 69 65 67 66 68 64 63 68 73 77 74 68 60 48 38 29 26 26 27 25 25 26 25 25 24 27 28 31 31 26 27 26 30 27 27 40 42 28 28 31 37 41 45 48
67 69 68 64 68 68 65 63 67 76 75 71 67 54 43 34 27 24 24 22 20 21 25 25 27 30 33 32 29 27 28 28 29 29 25 28 34 33 26 26 27 30 35 35 32
69 69 69 68 69 66 65 65 65 73 74 70 62 49 37 30 26 21 18 16 18 20 25 29 31 36 32 32 31 32 29 30 29 29 30 29 26 23 24 24 22 23 24 27 30
71 72 70 69 69 68 68 65 66 72 75 61 57 46 34 26 22 16 13 16 20 25 28 30 34 36 34 32 32 31 30 28 23 20 20 19 21 17 24 26 27 24 23 27 30
73 71 69 66 66 67 70 67 66 71 68 60 51 41 29 23 17 13 14 19 25 29 29 36 35 33 33 33 33 33 31 25 20 19 21 24 26 25 27 30 28 31 31 31 38
73 71 74 69 74 68 70 66 66 73 70 56 46 35 27 21 15 12 16 25 28 30 33 38 34 35 33 35 31 29 27 22 22 24 25 29 27 27 30 32 33 34 34 36 37
75 74 74 70 70 68 70 65 67 71 72 51 42 30 24 18 13 13 19 29 32 33 41 37 33 31 28 30 33 27 24 24 24 23 28 32 34 34 34 34 36 41 43 43 42
74 74 72 71 71 68 70 65 67 71 68 49 37 26 20 15 10 12 22 29 32 33 38 35 34 31 28 26 27 26 27 27 26 26 29 31 33 35 35 35 36 39 40 42 43
78 75 69 72 72 70 67 67 70 73 68 47 32 22 16 11 9 14 19 25 29 37 37 34 35 28 26 27 29 29 31 29 29 26 29 30 30 35 36 36 37 40 42 42 42
74 76 76 74 74 72 68 67 68 71 60 46 28 20 13 9 10 16 19 21 30 33 32 30 30 26 24 27 29 33 32 30 28 30 32 32 35 37 34 33 34 35 35 35 35
81 79 77 76 75 70 67 68 69 66 59 45 25 17 12 9 12 15 23 29 28 30 28 32 31 27 26 27 27 28 29 30 32 34 34 33 33 34 28 29 31 31 31 30 27
85 81 79 78 77 74 66 65 66 63 54 40 24 16 13 14 14 16 25 29 29 28 28 28 27 28 25 26 30 30 30 31 32 31 29 29 27 23 27 27 27 26 22 18 17
85 82 82 79 77 77 69 66 64 61 48 35 23 17 15 17 16 17 20 23 24 25 26 26 26 27 27 28 29 30 28 25 23 23 22 23 24 24 22 19 17 16 16 16 16
87 86 82 81 78 77 71 62 64 56 42 32 20 20 19 21 23 24 26 25 24 25 27 27 27 27 27 26 24 21 20 20 21 22 23 21 20 18 17 15 15 16 16 17 19
93 89 88 81 79 75 67 60 63 53 38 30 19 20 21 21 25 26 28 27 28 28 26 23 23 25 24 23 22 22 22 21 21 21 21 19 20 19 16 15 16 17 19 21 23
95 92 91 84 77 70 58 61 55 49 35 30 24 24 22 24 25 26 27 26 26 23 21 21 24 23 22 22 21 23 24 22 20 20 19 20 17 16 17 18 20 21 23 25 27
95 93 88 82 73 66 61 66 50 45 36 32 27 27 27 24 25 24 24 22 23 24 24 24 24 23 22 22 23 24 22 19 19 20 19 18 17 18 20 22 25 26 27 30 32
91 93 92 80 67 69 71 64 47 45 40 37 33 30 30 26 27 26 25 25 25 25 24 23 23 23 23 24 24 21 20 19 20 20 20 21 20 23 25 27 30 30 32 34 38
96 89 86 69 72 72 68 58 47 46 43 41 36 32 33 30 30 29 31 28 27 26 25 24 24 24 23 20 22 22 23 22 21 22 21 25 22 25 27 30 34 34 37 39 42
89 79 70 68 73 67 63 53 49 46 45 41 39 38 37 33 32 33 31 29 27 26 23 23 23 23 23 24 25 24 23 22 24 25 25 26 26 29 28 32 36 39 42 44 46
81 75 70 74 70 66 62 51 49 47 46 45 43 43 37 36 36 34 30 29 27 24 23 22 24 25 26 26 26 24 26 27 27 25 26 30 31 32 35 35 39 42 45 48 49
69 56 58 62 65 63 56 49 52 48 50 49 48 43 38 36 38 35 31 32 29 25 23 24 27 28 29 28 26 28 30 27 28 30 30 32 36 37 40 43 45 47 50 52 54

GFSSW_250_spd_048.txt.gz
Wind_Speed
49 51 53 54 53 58 61 64 67 70 74 68 69 68 73 70 68 57 45 34 29 25 25 28 35 44 48 49 49 46 41 41 44 41 20 27 27 31 48 51 48 49 42 46 45
50 52 51 54 56 59 62 65 70 72 72 71 70 68 77 76 64 54 40 33 28 22 20 22 29 36 40 45 40 37 40 40 36 30 22 18 24 34 46 54 56 48 53 53 42
51 54 54 55 54 59 62 67 66 72 73 68 71 70 72 74 54 54 41 34 30 26 22 23 27 32 34 36 37 34 36 34 35 24 30 23 28 41 41 48 55 57 49 56 44
54 55 55 56 57 59 63 67 71 71 71 72 73 73 76 73 59 50 39 36 32 30 27 24 26 30 35 34 35 34 32 30 27 38 41 30 30 37 49 49 44 27 41 46 41
54 56 55 57 58 61 64 67 69 70 69 70 73 72 74 72 58 45 33 32 32 28 28 30 27 27 30 35 34 26 23 24 28 48 50 41 43 44 43 34 25 33 38 39 31
56 55 57 60 59 62 65 67 68 67 67 74 75 74 70 70 54 42 29 26 30 29 25 28 28 23 28 27 29 27 24 25 26 47 44 42 40 44 41 30 29 28 32 29 28
55 56 58 59 61 63 66 68 68 68 71 75 76 73 65 66 50 40 28 24 24 21 21 23 28 23 25 29 32 28 28 30 27 32 43 45 48 44 32 26 24 20 19 21 28
59 59 58 59 62 65 66 67 69 68 69 73 75 70 62 61 45 36 27 21 18 15 19 23 26 26 31 37 30 27 30 32 32 34 40 42 42 32 33 30 17 20 21 20 25
63 62 62 60 63 65 66 70 70 68 69 73 74 75 57 58 43 32 26 17 13 14 18 22 29 32 33 34 29 34 34 34 38 38 36 35 29 30 29 31 24 20 20 21 23
64 65 63 64 64 65 68 69 68 66 68 72 73 64 56 49 40 30 23 14 14 14 19 28 32 34 34 30 32 33 33 33 33 28 23 21 14 18 16 19 20 21 27 27 25
64 65 65 67 67 67 69 67 65 62 69 72 73 56 52 41 36 26 19 12 14 16 26 28 29 35 33 32 33 35 34 31 23 23 21 21 20 23 21 21 23 27 30 27 29
65 65 67 69 68 69 70 67 66 69 69 69 71 64 47 37 34 25 17 12 17 21 26 32 36 39 35 31 31 33 31 25 20 21 23 23 26 28 30 34 34 33 34 37 40
69 68 69 70 72 72 71 68 64 62 65 69 71 60 48 33 30 23 16 15 20 22 27 33 31 30 29 28 31 27 25 24 23 24 24 29 35 35 37 35 32 33 38 40 42
72 70 72 72 72 73 71 66 69 67 66 68 69 64 50 31 25 20 15 15 21 21 28 37 33 28 31 28 28 24 26 22 21 18 28 32 35 36 39 39 37 41 43 40 40
74 75 73 71 75 71 70 62 68 69 68 69 69 67 49 30 21 17 13 15 21 19 26 37 29 29 28 22 21 22 24 23 22 25 26 30 30 32 32 31 32 38 40 43 42
78 79 74 73 74 69 65 65 68 67 68 67 68 66 48 28 21 16 14 12 15 17 27 30 27 24 19 20 21 25 24 26 29 31 34 36 30 29 32 31 26 39 35 34 34
81 80 79 75 70 70 71 65 68 67 69 68 67 63 47 26 22 15 15 17 18 20 27 27 22 25 23 21 21 24 24 26 30 35 33 29 31 38 28 38 31 39 33 33 33
85 82 79 79 77 72 72 69 67 68 69 67 66 66 47 26 22 15 16 19 22 24 27 23 24 29 26 22 25 30 28 31 31 32 33 34 37 34 31 30 29 31 31 27 24
87 85 83 81 83 80 72 70 69 71 69 67 67 66 41 28 24 18 15 19 22 23 22 22 23 30 30 30 28 28 30 32 34 36 35 32 28 30 28 29 28 26 24 24 24
92 90 88 88 85 84 76 73 72 75 72 71 65 64 35 29 25 24 23 24 25 26 29 24 27 32 29 33 33 33 33 32 30 30 28 26 28 25 27 25 24 24 24 23 24
96 91 93 90 87 83 77 75 76 79 75 73 68 56 32 30 27 26 29 30 31 31 32 28 32 30 33 33 30 30 30 29 28 29 28 28 24 25 22 24 25 24 24 26 27
97 92 96 92 87 83 75 76 79 80 75 73 69 49 32 34 28 28 29 30 29 30 31 26 25 28 27 27 30 31 31 29 29 27 27 28 24 23 24 24 24 26 28 29 32
98 98 98 98 88 83 80 79 81 79 76 72 66 45 34 35 31 31 27 26 26 25 25 31 31 28 27 32 31 30 27 26 26 27 28 24 24 23 24 24 27 30 32 35 36
106 105 101 95 88 87 85 83 82 80 72 69 62 44 36 38 36 31 27 27 26 26 31 29 29 30 30 32 26 30 29 28 26 27 25 23 22 23 25 26 31 35 37 37 39
107 105 98 93 91 87 90 88 80 77 69 71 58 44 41 40 39 35 30 30 29 32 31 31 32 29 29 29 31 28 27 26 26 27 22 27 22 27 28 28 34 38 39 44 46
103 100 100 98 92 86 80 80 80 73 70 66 48 46 45 44 42 37 35 31 31 34 32 30 29 28 30 29 29 26 27 28 28 27 24 26 26 33 31 35 38 40 44 45 48
92 99 95 93 87 82 79 78 73 69 64 56 47 50 46 48 42 35 37 35 34 36 33 30 31 29 29 29 28 29 31 29 27 28 28 29 33 35 37 39 45 47 48 51 55

GFSSW_250_spd_051.txt.gz
Wind_Speed
60 57 60 53 48 52 55 55 56 55 61 64 69 72 72 73 79 69 66 61 52 46 38 31 27 26 34 39 41 44 46 51 47 44 38 32 36 40 39 39 31 37 33 22 30
61 61 54 50 47 50 53 56 54 53 58 65 68 73 74 79 76 69 67 56 48 41 34 27 23 23 34 36 37 41 42 41 41 38 32 33 35 31 33 30 29 20 15 17 20
60 58 54 49 50 50 53 56 56 56 58 64 67 74 76 76 76 77 65 54 43 37 30 27 25 20 25 33 34 37 38 36 40 31 28 34 28 32 33 31 29 26 23 25 33
61 57 50 48 51 51 53 54 55 57 61 65 69 75 78 74 77 73 65 52 39 32 26 26 28 24 21 31 33 34 35 34 26 26 33 35 33 38 20 37 36 30 28 37 41
58 53 50 49 50 52 52 55 56 56 61 64 70 76 77 73 79 71 60 49 39 30 24 21 28 26 23 25 36 36 30 26 26 32 36 45 41 28 32 32 32 42 41 35 29
55 51 50 49 51 51 53 55 57 55 60 63 69 74 72 72 77 66 54 46 38 28 23 21 21 25 21 26 32 31 23 26 29 30 39 36 40 32 32 30 25 29 31 33 26
53 50 49 50 52 52 54 57 57 58 60 64 70 74 73 75 70 62 51 43 37 26 17 18 19 19 18 21 29 28 30 28 26 33 40 33 32 29 29 15 22 22 25 28 33
55 52 53 55 52 54 58 58 57 57 61 63 71 72 72 71 61 64 50 41 35 25 13 13 15 22 24 26 30 34 29 30 28 41 36 39 43 37 34 34 30 28 30 25 31
60 59 59 57 57 58 58 57 55 58 61 66 69 69 68 67 66 59 48 39 32 20 9 10 15 22 24 31 38 32 28 30 29 32 41 44 41 36 32 37 35 31 25 23 22
56 58 59 64 61 62 60 56 55 56 59 65 68 66 66 69 62 51 43 38 28 15 11 8 17 24 31 36 34 30 30 29 31 29 33 41 41 38 33 30 26 28 20 21 24
54 56 61 64 64 63 61 57 54 55 60 64 67 65 64 67 54 48 39 36 26 13 12 12 20 28 33 41 34 31 31 30 29 31 30 27 28 26 22 22 21 23 28 26 26
53 57 61 65 66 66 65 61 56 56 58 63 65 65 64 66 61 46 37 34 24 12 11 16 25 30 30 32 34 32 32 30 26 28 27 23 22 18 17 21 27 25 26 28 28
59 61 61 60 62 62 62 57 59 56 56 61 61 62 63 64 64 44 37 30 21 15 13 19 21 26 31 29 30 25 25 28 27 26 26 24 23 24 28 27 25 29 31 33 33
66 64 63 61 62 65 59 60 58 58 55 63 60 61 64 64 61 44 36 26 18 15 16 19 20 25 30 28 24 21 20 25 28 25 23 22 24 29 32 35 35 35 38 37 38
71 72 67 66 67 64 63 59 60 60 54 58 58 62 63 63 65 43 34 21 17 17 17 19 20 18 25 24 21 19 22 22 26 26 25 28 29 30 31 33 30 37 39 42 40
72 73 70 70 70 67 65 63 63 58 57 59 60 61 60 64 62 49 35 23 15 15 19 18 21 24 21 19 18 16 18 21 25 23 28 29 24 22 23 28 29 35 34 35 37
78 75 77 70 72 67 68 68 64 56 60 56 61 60 60 64 61 59 39 23 16 16 19 19 20 24 19 19 19 24 22 20 26 30 32 27 29 25 31 29 30 35 35 34 31
83 81 83 76 75 73 73 68 60 63 62 60 62 61 61 64 62 60 42 25 17 17 17 16 16 25 24 26 27 29 28 28 30 31 32 32 28 24 29 28 30 36 35 31 33
90 84 82 83 80 79 74 66 56 63 64 63 64 62 64 66 61 59 44 28 17 18 19 18 21 25 24 29 30 30 24 26 25 26 26 31 28 32 34 33 32 31 31 32 34
95 90 87 91 85 84 77 63 56 66 68 66 64 63 63 65 63 60 44 30 27 20 21 23 26 29 28 29 31 34 30 28 29 31 32 34 32 31 33 32 29 31 32 30 27
102 93 91 94 89 85 68 58 62 68 69 67 65 67 68 63 64 61 49 29 30 26 26 29 30 31 24 22 31 35 35 35 32 32 32 30 27 30 34 29 29 29 27 26 27
96 93 94 94 88 78 68 63 65 69 69 67 65 66 69 66 66 66 51 32 31 29 33 34 30 35 36 32 31 33 36 37 30 27 29 31 29 32 33 32 30 25 26 30 32
98 93 90 96 86 71 72 72 68 71 70 70 70 72 70 67 68 69 48 37 35 32 35 35 33 33 31 30 31 29 28 27 27 30 32 34 35 32 33 30 24 26 30 32 34
99 99 96 88 82 72 73 71 69 73 70 71 72 73 73 71 68 70 40 38 34 31 32 34 33 28 30 30 27 27 29 29 31 32 36 32 36 29 31 22 25 31 33 36 37
109 103 96 86 79 75 81 77 72 73 74 73 71 75 72 73 73 76 48 39 36 31 29 29 30 29 30 31 31 32 30 31 31 33 36 35 32 26 26 25 28 33 38 42 41
109 101 94 86 90 83 84 82 77 77 77 75 75 77 75 71 71 66 46 40 37 34 31 29 30 29 34 35 32 30 32 33 32 34 33 30 27 31 27 29 31 37 40 40 45
105 110 103 95 93 87 82 83 79 82 79 77 77 77 75 71 69 60 44 42 37 36 35 30 31 31 33 32 30 32 32 30 31 31 29 29 28 32 35 35 37 42 45 48 50

GFSSW_250_spd_054.txt.gz
Wind_Speed
58 58 58 56 52 56 60 61 51 50 53 54 54 56 63 65 72 76 76 80 74 68 55 47 37 30 27 24 27 35 42 45 39 34 24 30 32 37 41 44 42 39 42 40 41
61 60 60 56 54 56 60 60 49 46 51 53 54 59 62 65 72 78 76 76 75 63 51 42 32 28 25 22 28 34 41 38 32 26 29 30 32 36 42 44 39 28 25 31 38
62 61 59 56 54 58 59 57 47 45 49 51 53 58 63 65 71 76 74 76 75 59 46 38 26 25 25 21 30 31 35 30 29 25 28 29 30 37 36 39 35 30 24 28 32
63 63 57 54 53 61 57 53 45 45 48 50 53 56 62 63 70 75 74 76 72 56 43 36 24 22 23 20 26 30 28 24 25 26 26 24 27 34 33 29 37 27 24 29 23
64 63 54 55 61 60 52 48 44 46 49 53 52 57 62 65 70 71 73 73 66 54 43 33 24 19 22 21 21 26 25 23 28 29 27 27 32 32 31 29 27 36 28 21 23
65 56 56 57 58 54 50 48 44 46 49 53 54 55 58 64 69 67 70 71 59 49 40 29 20 16 16 21 17 23 24 24 30 25 26 30 37 39 35 29 34 33 39 29 23
61 58 54 54 53 52 49 47 46 48 52 53 53 55 61 63 68 67 71 68 55 47 36 24 17 12 16 22 19 19 25 27 28 26 34 37 39 43 39 35 34 33 29 32 33
58 51 51 50 50 54 51 48 47 49 53 53 53 57 59 63 65 66 69 63 51 43 32 21 14 13 17 21 20 21 23 26 31 33 34 39 43 41 42 29 34 32 28 33 31
58 54 52 50 52 51 53 51 49 53 54 53 53 57 61 64 66 60 67 61 49 44 31 22 13 13 20 23 21 28 27 38 37 32 33 44 43 37 32 31 32 30 30 33 35
53 52 53 52 52 53 51 47 48 53 52 55 55 56 59 64 66 60 62 59 46 42 31 27 17 11 19 20 22 24 32 34 36 31 28 38 38 40 30 33 32 30 29 29 29
52 56 54 52 52 52 50 46 45 52 50 50 51 50 57 59 61 58 58 56 44 42 30 27 21 13 17 23 26 29 28 26 24 28 24 33 33 36 35 32 29 33 31 30 26
55 56 57 55 54 53 47 42 45 45 45 46 48 49 56 57 59 61 54 55 47 41 32 25 24 16 14 21 24 27 21 21 20 23 23 23 22 22 28 29 32 33 34 37 31
61 59 60 58 56 53 48 44 47 43 43 45 48 49 55 57 57 58 52 57 49 35 35 21 17 12 14 18 25 17 20 21 20 20 21 21 23 25 23 27 27 31 34 39 28
66 66 63 62 60 57 54 49 48 48 46 46 49 50 54 57 54 56 55 52 48 32 31 18 17 14 14 19 28 19 19 21 20 21 21 25 28 30 28 25 24 29 29 31 34
75 73 66 65 66 63 57 54 53 52 46 49 50 52 56 55 53 55 54 49 47 34 26 17 14 17 15 23 21 23 20 19 20 21 26 29 30 33 32 25 27 29 31 35 37
74 77 71 71 68 62 59 58 56 52 47 49 51 51 54 57 55 56 58 52 41 41 27 21 14 15 14 14 22 21 18 19 20 24 29 26 28 29 33 34 34 34 34 37 38
79 77 77 72 71 67 65 62 57 47 52 47 50 51 56 54 53 55 57 52 49 50 28 20 17 11 14 16 19 19 17 18 23 27 27 28 26 24 25 27 29 27 27 30 31
87 81 81 81 73 72 71 66 56 51 53 50 51 53 54 50 52 55 58 51 53 43 30 19 17 10 13 19 20 23 23 21 20 22 29 27 26 24 28 30 31 26 25 30 33
89 86 86 87 81 79 76 68 54 55 58 52 53 56 56 54 51 54 56 53 49 39 37 24 18 14 17 26 28 27 27 24 26 25 24 24 26 30 29 29 31 33 35 30 30
92 90 87 95 86 82 73 61 58 61 60 55 55 57 60 52 52 53 55 54 54 45 41 31 24 19 22 25 27 27 30 30 27 27 28 25 27 32 32 33 35 33 32 32 32
100 93 95 94 89 83 69 63 61 70 66 59 61 56 57 54 54 54 56 56 53 56 49 29 30 28 28 27 21 26 29 31 28 32 34 33 33 36 34 30 28 31 32 32 31
109 97 101 99 92 81 70 69 68 74 68 63 64 58 55 55 53 55 57 58 55 54 43 38 34 32 34 30 24 29 32 35 36 34 34 33 33 32 28 27 27 31 32 32 32
114 108 106 106 97 85 78 74 72 76 70 63 62 55 57 59 54 56 58 59 58 55 48 47 37 35 38 36 32 33 29 28 27 28 30 30 31 24 29 31 30 29 30 31 30
111 115 117 107 95 90 82 77 71 75 66 63 61 57 58 58 57 57 60 62 61 59 51 42 35 32 35 34 34 28 26 25 25 28 32 32 31 29 26 29 29 26 27 31 32
118 111 100 102 93 84 83 78 72 74 67 61 55 57 60 61 58 59 61 62 62 64 56 39 35 30 30 30 27 28 27 29 29 32 33 34 33 31 27 25 22 25 31 36 33
119 107 102 94 91 86 80 74 73 75 66 59 57 61 62 62 58 61 59 58 67 64 56 44 37 28 28 30 29 26 32 36 29 32 33 34 34 29 24 22 27 31 33 35 37
113 111 106 98 92 83 70 66 67 75 67 62 60 61 61 63 61 59 61 63 70 70 62 46 37 31 30 30 27 29 37 35 34 30 33 32 31 28 25 28 31 33 36 39 41

GFSSW_250_spd_057.txt.gz
Wind_Speed
63 62 62 61 61 59 59 59 60 57 57 58 59 53 51 54 58 61 65 72 76 75 72 65 57 47 37 30 26 22 23 26 25 24 26 26 32 38 38 40 45 45 41 39 40
61 60 59 59 60 62 63 61 58 56 55 58 59 50 51 55 58 61 66 70 77 78 76 63 54 45 32 25 23 19 23 24 25 24 25 27 32 33 37 38 39 32 36 32 29
59 63 63 63 63 62 61 60 56 53 56 57 55 48 52 56 58 59 64 71 73 79 75 61 53 42 25 20 16 18 19 21 25 27 27 29 30 32 41 42 34 31 20 20 23
62 66 66 63 63 62 65 62 56 52 58 52 48 46 51 55 59 59 65 71 73 76 71 59 50 36 20 14 12 16 16 20 26 28 27 27 29 29 36 36 38 33 25 23 26
65 62 64 63 64 63 63 61 53 52 54 51 49 49 54 56 55 59 65 71 69 73 66 56 43 30 17 11 12 14 17 18 25 24 25 27 25 25 28 35 36 38 35 32 33
65 67 66 65 64 61 60 56 54 52 49 51 46 49 53 55 55 57 63 67 69 72 62 52 35 26 17 11 12 10 20 21 19 23 26 22 23 22 25 26 27 31 37 36 35
65 69 66 66 60 61 53 50 49 44 48 46 47 51 53 53 54 54 59 65 70 69 58 48 34 24 19 12 12 12 19 28 26 26 24 23 23 29 32 32 36 42 38 34 30
65 65 64 64 62 58 51 45 43 42 48 46 48 51 54 49 50 51 59 63 66 69 56 44 34 21 16 12 10 13 16 21 25 23 24 26 30 35 36 34 37 40 32 30 25
65 61 62 62 61 55 52 45 46 42 43 46 48 48 46 45 47 51 56 62 63 67 53 41 31 22 18 12 7 10 14 23 22 22 28 31 34 36 40 35 36 40 36 34 31
64 60 60 60 57 50 48 45 46 44 46 44 43 42 41 41 46 50 54 60 60 63 52 39 30 26 19 10 8 10 14 21 21 23 32 36 35 37 32 33 35 39 42 26 34
66 61 60 57 55 50 43 43 45 48 47 40 37 37 39 39 43 49 53 58 59 62 53 40 30 29 23 14 11 9 17 17 19 22 28 34 36 33 34 30 34 38 43 35 28
66 64 61 57 55 52 48 43 45 47 44 37 37 35 41 41 44 46 53 56 57 58 51 37 28 28 20 13 9 11 17 20 24 23 19 15 34 32 28 33 30 27 29 34 32
69 66 62 60 57 56 53 45 49 48 43 39 39 37 40 43 43 46 50 54 55 54 47 35 27 23 20 11 9 7 15 14 15 17 19 17 23 25 23 29 34 30 31 35 38
75 72 68 64 61 57 53 51 51 50 45 46 40 40 41 43 44 44 48 52 54 54 49 34 25 21 18 13 6 13 14 10 13 16 16 15 18 21 22 26 33 34 32 40 41
78 72 70 67 65 61 56 56 52 53 47 48 42 44 41 43 42 44 47 49 52 55 43 35 22 20 14 12 8 17 12 11 14 16 18 16 18 24 27 28 29 27 29 32 38
80 78 72 71 71 66 62 59 58 55 46 47 46 45 42 42 43 45 47 50 52 50 43 35 23 18 16 8 7 13 16 15 16 19 20 21 22 25 28 31 34 34 34 36 37
83 79 76 75 74 71 69 66 63 53 51 46 47 47 43 44 44 45 47 50 52 50 47 37 28 18 18 11 7 12 14 16 16 16 19 21 26 25 31 33 34 33 35 37 37
87 83 79 79 74 72 71 70 63 53 53 50 49 48 45 43 44 45 47 50 50 49 47 40 34 19 20 19 12 13 16 15 16 16 15 19 24 25 28 30 30 32 33 31 32
94 88 81 82 77 77 73 67 57 54 56 52 51 49 46 45 44 47 48 51 49 50 50 42 41 26 22 22 21 17 19 18 22 21 18 18 24 30 29 28 30 29 33 33 34
102 97 92 90 87 81 75 64 61 61 60 57 54 49 49 49 44 49 50 52 49 50 49 45 43 31 37 27 25 20 20 21 20 24 23 22 24 27 27 28 29 30 33 37 38
113 107 100 97 93 86 70 64 65 66 63 60 54 50 49 48 48 49 52 50 48 48 48 47 44 44 45 30 30 27 26 24 20 22 26 26 28 30 32 32 35 34 35 33 32
117 114 105 106 98 87 75 67 64 67 67 64 56 52 50 51 51 49 49 51 47 48 50 48 46 46 43 34 32 31 27 26 27 31 29 25 29 30 31 33 33 30 31 32 32
112 112 116 113 99 85 81 74 69 72 69 63 60 55 53 54 53 52 50 52 48 47 53 51 50 50 42 38 30 33 31 31 34 33 33 27 30 23 23 26 28 31 31 34 35
119 118 121 122 98 89 88 81 77 78 73 68 63 59 55 54 53 51 48 51 50 48 53 53 53 56 46 43 31 30 33 33 33 28 25 25 24 22 22 27 32 33 32 36 38
126 119 110 104 102 93 90 86 83 79 73 70 66 60 59 57 54 52 48 52 51 50 52 57 58 62 48 48 33 34 30 30 27 25 22 24 23 26 28 29 31 34 35 37 38
122 116 108 97 95 98 94 87 81 83 79 72 69 65 60 55 56 56 55 52 50 52 48 51 55 61 57 45 32 33 29 27 26 23 22 25 28 28 32 32 32 32 31 31 31
108 113 109 101 96 97 88 83 83 88 84 76 69 68 64 63 62 61 55 51 48 47 47 53 59 61 58 51 32 30 36 30 29 28 23 27 30 31 30 28 29 27 28 31 33

GFSSW_250_spd_060.txt.gz
Wind_Speed
69 67 60 64 57 56 59 57 57 57 58 61 60 63 62 60 60 56 58 64 72 74 77 81 79 66 58 46 32 23 22 19 17 19 20 25 27 32 36 37 39 41 45 44 49
68 66 64 62 63 59 57 55 58 58 59 60 62 64 61 58 56 54 59 64 71 72 74 81 76 62 53 40 27 20 12 12 16 19 20 24 27 31 34 36 40 42 45 45 38
70 60 62 59 61 56 58 57 60 60 61 60 61 62 57 57 54 54 57 63 69 67 73 76 71 57 48 37 25 18 11 11 13 21 21 22 24 24 30 35 36 39 41 35 37
72 70 66 66 60 55 55 57 55 53 60 60 59 58 55 56 51 51 57 62 64 66 71 74 65 53 44 33 23 14 10 13 14 19 23 22 20 21 26 34 35 39 33 27 23
69 66 66 63 60 62 60 59 59 60 59 55 59 53 53 49 49 52 57 59 60 67 70 70 62 52 42 27 22 9 7 9 14 17 19 20 20 23 26 31 32 35 25 22 22
66 67 60 61 56 55 58 59 58 55 53 54 49 49 46 45 48 53 54 54 58 62 69 68 58 51 35 21 17 10 5 15 13 14 15 20 16 20 25 27 36 36 27 26 24
66 64 60 59 57 55 56 52 53 54 52 52 47 42 43 47 48 50 48 51 57 61 68 65 56 49 25 16 12 7 8 13 13 10 13 12 15 20 22 26 33 32 32 27 30
54 60 62 60 54 53 54 54 54 52 53 47 45 42 44 44 42 43 44 48 54 62 66 65 54 45 19 14 7 7 8 10 13 13 14 15 17 20 26 29 30 34 35 38 33
63 60 58 56 54 54 53 55 54 51 49 50 45 44 43 41 39 40 42 47 52 58 62 66 52 41 18 16 7 3 10 8 14 10 12 16 19 25 30 32 33 35 26 30 25
64 60 64 63 58 56 55 52 48 50 49 45 41 41 39 39 37 37 41 44 52 56 60 65 53 40 26 18 12 10 12 5 11 10 15 19 20 29 30 30 33 31 28 26 30
66 66 64 64 62 57 54 53 52 51 46 40 39 36 37 36 36 35 39 43 47 54 57 63 60 39 30 26 16 10 8 7 12 11 15 20 25 31 28 29 28 30 36 34 29
66 67 66 65 62 62 58 53 53 51 47 42 36 36 38 37 36 36 38 41 44 51 55 59 61 37 27 26 19 10 5 1 8 8 17 17 24 26 26 24 26 32 33 33 34
75 70 71 63 63 60 60 55 53 51 46 43 38 37 39 38 40 37 36 39 41 48 51 53 56 36 24 19 20 10 5 7 7 10 10 14 19 26 26 27 29 31 31 32 29
82 76 70 68 65 63 58 56 55 54 48 46 40 39 41 41 43 39 36 39 41 44 47 49 54 39 24 18 13 6 2 5 9 9 11 14 13 26 31 24 28 31 28 29 27
89 84 76 72 72 65 61 62 60 57 51 46 38 41 42 44 43 41 36 38 41 41 45 49 52 42 22 17 12 5 8 7 4 6 9 10 12 14 24 26 23 28 31 34 35
89 86 84 76 78 73 68 64 62 61 53 48 43 41 44 43 43 40 38 38 39 40 44 48 46 45 22 17 13 7 8 14 12 8 9 13 14 15 19 22 24 25 29 32 37
86 86 85 83 83 77 70 66 63 58 53 51 48 47 47 44 45 43 40 37 37 38 42 46 44 41 26 19 16 11 7 7 10 10 10 15 16 17 19 21 25 28 32 36 39
93 89 86 87 85 78 74 72 64 54 55 52 52 49 49 47 44 43 43 38 37 39 41 45 46 41 31 29 18 14 11 10 10 9 9 12 15 13 19 23 23 25 30 33 34
100 97 86 89 92 84 82 75 60 57 60 56 57 53 50 43 43 42 42 39 36 39 40 45 44 41 39 31 25 17 17 17 14 13 16 18 20 23 17 21 25 28 30 32 35
104 100 92 93 98 89 84 70 63 63 64 59 55 54 50 45 42 44 41 40 36 40 42 45 46 42 41 35 32 24 18 18 19 19 20 21 24 23 20 22 26 32 35 34 35
110 101 97 98 101 96 78 68 64 68 66 63 56 50 46 44 45 44 44 42 38 40 43 44 45 43 43 42 40 35 25 21 22 27 25 23 28 29 29 28 28 31 33 35 37
108 104 104 105 103 92 78 71 70 69 67 64 59 54 52 50 47 44 40 43 42 42 44 43 43 41 43 44 45 38 33 25 21 27 27 26 31 29 31 32 33 33 35 37 37
106 104 109 111 105 85 80 77 74 73 66 64 61 57 51 52 52 47 43 46 42 44 45 42 39 41 45 48 42 41 37 23 24 28 32 33 35 29 27 29 32 33 33 33 33
107 108 117 114 95 89 87 83 77 77 71 66 64 61 56 52 49 49 48 47 48 47 44 44 41 40 43 49 46 44 43 26 23 26 30 36 35 31 25 28 30 33 34 34 36
107 106 109 104 96 84 88 86 84 83 80 72 68 64 60 55 51 52 54 54 53 53 47 45 41 41 44 45 48 49 43 29 24 25 26 34 29 32 29 30 32 30 32 35 37
99 101 101 99 96 94 90 88 86 85 81 74 68 68 65 60 58 59 60 59 57 53 47 46 41 45 44 48 49 51 51 34 26 26 26 26 29 32 33 34 33 32 33 36 37
86 97 98 97 103 99 89 91 88 90 85 79 77 77 69 67 68 65 62 61 59 56 50 48 46 44 46 48 49 49 51 33 30 26 25 27 33 33 33 32 31 34 36 35 33

GFSSW_250_spd_063.txt.gz
Wind_Speed
65 67 65 67 65 57 61 63 58 56 59 58 59 57 57 59 61 62 60 58 60 57 63 71 73 78 78 65 56 52 39 32 22 16 18 21 26 30 31 38 36 44 47 44 49
65 69 68 67 66 66 67 66 62 57 54 52 53 52 54 58 59 59 57 56 54 58 65 68 74 76 74 60 56 48 32 30 19 14 16 18 22 26 30 38 38 41 43 43 45
63 68 68 72 69 69 71 67 61 54 56 56 54 53 55 58 57 54 52 50 51 57 63 64 70 75 71 56 52 38 27 19 14 13 17 17 19 23 28 35 41 40 37 43 41
59 60 62 65 67 68 65 67 66 63 58 57 56 55 57 52 50 49 46 48 52 56 59 63 71 71 64 54 48 28 22 15 11 11 18 16 16 19 24 29 36 38 37 40 41
60 61 61 61 60 59 60 58 56 58 55 54 54 53 52 47 46 44 45 48 50 52 56 62 67 70 57 54 41 21 16 11 9 10 16 18 15 15 18 20 26 26 30 33 33
60 62 61 60 59 57 56 53 51 49 49 51 48 45 45 46 43 44 45 45 45 49 55 60 66 70 55 51 34 18 12 10 3 3 10 14 11 16 18 22 28 29 31 25 25
56 59 58 59 57 55 52 53 53 51 49 49 45 45 45 45 43 43 42 41 43 47 52 60 65 64 52 47 26 14 7 8 2 4 4 7 12 17 18 20 24 29 30 22 25
58 62 57 56 50 51 47 48 47 43 44 45 43 45 45 43 43 41 36 37 41 45 49 59 58 66 51 43 22 9 8 6 4 4 5 10 10 15 18 20 26 28 26 23 17
67 64 61 58 58 53 50 45 42 44 45 44 44 43 42 42 40 36 32 35 39 43 47 54 58 61 51 42 23 15 12 8 3 6 7 12 14 14 19 23 25 29 31 25 24
71 67 67 62 59 55 49 46 45 41 42 44 45 41 41 39 37 32 31 32 37 43 46 51 56 60 52 43 23 16 10 8 4 7 10 15 16 17 20 24 25 28 31 29 22
86 75 73 69 65 62 58 50 49 49 49 45 42 42 41 39 34 31 32 34 39 43 44 49 52 55 52 40 25 16 11 1 5 10 14 17 16 21 20 22 23 31 24 28 27
84 88 81 73 72 66 61 52 51 51 48 51 43 41 39 35 33 33 32 34 38 41 42 44 48 52 54 37 26 15 9 5 5 7 11 16 14 22 21 23 25 26 21 23 26
85 84 84 80 77 72 66 56 54 53 48 48 42 43 36 33 32 33 33 35 37 39 39 43 45 49 49 35 25 16 11 10 4 3 10 11 14 24 21 21 21 25 33 23 24
85 82 78 81 75 78 73 61 59 53 53 49 43 41 34 36 34 33 33 34 36 37 37 39 41 46 50 32 24 11 7 7 10 3 8 11 16 16 22 23 22 23 26 29 29
92 90 82 81 81 81 76 67 60 57 51 52 47 41 40 37 35 35 33 33 36 34 35 39 40 40 44 41 25 16 6 2 5 4 5 6 11 10 19 24 26 21 30 31 28
90 89 85 79 82 85 80 75 63 59 53 47 47 45 43 39 36 35 33 34 36 35 35 38 37 37 40 39 31 20 12 4 4 8 8 9 11 11 12 20 29 31 32 32 35
94 94 89 85 82 83 82 77 71 57 56 52 48 48 46 43 39 37 37 37 37 36 35 36 34 34 36 39 35 24 13 8 6 6 8 11 12 13 19 19 21 24 27 27 27
99 95 90 88 89 85 86 80 74 59 61 58 53 48 46 45 42 39 39 40 37 34 34 32 32 32 35 37 33 30 18 10 12 9 9 11 16 11 16 18 23 26 27 28 27
107 99 91 91 92 90 87 84 70 64 65 63 57 51 47 42 42 40 41 42 36 34 32 32 31 32 34 35 34 39 25 16 14 14 15 13 19 19 15 19 19 24 26 25 26
105 105 96 96 99 96 87 76 72 68 70 65 60 54 51 46 43 44 44 43 38 34 33 32 33 32 33 35 35 40 27 24 16 20 20 19 20 23 23 24 21 26 28 30 30
102 102 99 104 104 102 84 70 72 71 72 66 62 56 54 48 47 46 46 45 38 34 35 33 34 33 32 36 39 35 33 31 27 19 24 25 28 27 26 25 28 29 30 31 33
99 98 98 110 109 96 83 70 72 75 74 69 64 60 57 53 50 48 44 44 40 36 36 36 32 35 33 36 37 36 37 33 31 25 22 29 37 30 28 27 30 33 35 38 39
95 94 102 114 107 91 80 79 79 75 76 72 65 61 60 56 54 52 48 47 44 40 39 35 35 35 35 37 37 37 35 31 34 29 28 28 36 31 31 33 34 33 35 38 39
93 97 104 112 94 94 91 85 80 77 77 75 69 63 60 59 57 56 53 48 47 42 40 36 37 39 40 38 38 41 35 38 35 35 26 31 33 33 35 34 31 31 32 31 34
91 95 95 91 81 88 88 87 87 82 79 77 74 65 62 62 59 56 56 53 49 45 41 39 38 40 41 41 42 43 34 41 39 36 29 33 30 34 35 32 29 32 33 34 37
81 84 86 83 83 88 91 87 86 86 82 76 73 68 67 66 65 62 60 57 52 47 43 42 43 43 43 42 44 39 33 41 45 37 37 31 33 36 33 32 31 30 33 36 36
70 77 80 79 85 85 86 86 83 89 81 78 77 76 71 69 68 64 61 58 55 50 48 47 46 45 45 45 43 38 45 40 47 42 36 27 33 35 37 34 32 32 33 35 37

GFSSW_250_spd_066.txt.gz
Wind_Speed
36 41 45 52 57 57 62 65 63 62 64 63 64 63 58 57 56 58 57 58 57 56 52 55 60 63 65 73 78 70 56 44 36 32 29 21 18 26 33 34 33 35 40 44 48
46 43 43 44 50 53 57 57 62 62 65 64 64 65 58 56 57 54 55 55 51 52 52 55 60 59 66 73 72 59 47 39 33 28 22 15 17 24 28 30 36 38 45 48 45
50 48 43 42 41 49 49 55 52 53 61 60 58 57 57 56 51 51 52 48 48 50 49 54 55 59 64 71 64 52 43 34 28 24 16 13 15 18 25 33 39 41 48 51 51
56 49 43 44 44 43 49 47 49 48 52 54 52 50 46 43 44 43 42 45 48 47 49 48 52 60 68 68 57 49 39 29 24 18 14 15 14 16 23 29 41 40 45 51 50
63 58 50 50 49 47 48 49 48 47 48 49 46 48 42 42 45 43 40 46 45 43 44 45 51 58 66 69 52 44 29 21 16 13 11 18 17 12 17 24 34 37 37 42 46
63 63 62 57 55 49 47 47 47 46 47 46 44 44 42 42 36 38 40 44 42 39 41 45 50 59 64 64 49 39 20 16 8 2 2 11 13 14 16 19 26 32 36 33 35
63 65 67 63 58 48 48 48 47 45 46 44 46 43 42 37 35 38 40 40 37 37 38 43 51 57 63 61 47 36 19 15 3 6 6 8 12 14 17 18 19 24 27 28 27
73 70 71 68 61 53 52 52 48 46 42 46 44 40 37 34 38 39 37 38 33 34 36 42 50 54 57 59 45 35 19 13 5 5 7 11 13 14 15 17 21 21 21 22 25
77 74 69 70 68 62 58 55 50 48 46 40 40 35 36 33 36 36 35 36 30 33 37 41 48 50 52 62 43 37 21 12 6 4 9 14 13 15 16 18 20 26 23 22 22
85 76 76 75 70 71 68 63 54 51 50 48 39 34 33 33 35 35 34 32 29 32 36 40 44 48 51 55 42 36 21 8 4 8 8 12 10 12 14 18 19 23 27 23 22
92 90 86 83 80 77 72 62 62 57 52 48 40 39 39 36 34 33 33 29 29 32 35 38 42 44 49 50 47 35 15 8 2 8 13 12 11 14 15 18 22 27 29 27 20
99 96 95 93 88 80 80 71 65 62 56 49 44 42 41 41 39 32 31 29 29 31 33 35 38 41 46 46 45 33 16 16 6 2 13 14 14 18 17 21 22 29 31 29 25
109 105 99 94 91 91 80 76 75 69 61 57 50 42 43 38 36 33 30 29 29 30 31 33 37 40 42 42 42 29 20 12 14 7 5 12 12 13 19 23 20 32 29 26 29
117 109 110 108 102 92 81 75 74 69 65 60 52 45 41 40 34 32 30 28 29 29 31 32 35 39 40 37 39 30 20 9 9 10 6 5 8 14 17 18 27 27 35 28 24
125 121 113 104 88 82 77 80 76 72 67 66 58 48 44 41 41 34 31 29 29 30 31 33 34 34 36 34 35 36 22 12 2 2 3 4 8 8 10 15 20 23 29 32 33
117 117 111 97 86 81 79 83 79 75 63 60 62 55 48 42 43 36 33 31 30 29 31 32 32 30 31 31 32 33 28 15 11 8 8 9 8 8 9 11 18 25 24 26 31
107 104 100 92 85 81 82 87 83 73 62 60 58 55 51 44 43 40 36 34 32 32 32 35 30 29 28 28 28 32 31 20 11 13 13 14 13 14 14 14 18 24 32 31 29
99 101 97 89 88 82 80 90 80 68 65 65 58 57 50 49 42 41 38 35 35 36 34 35 29 28 27 27 23 27 26 24 17 15 16 17 15 11 12 17 19 23 26 33 36
96 97 97 94 94 91 83 87 78 71 70 70 64 59 55 53 47 43 40 40 38 33 36 35 30 29 28 26 25 24 26 25 25 17 19 21 21 18 19 19 18 19 20 23 29
91 93 93 98 100 100 95 73 82 79 75 74 68 63 60 57 50 47 44 41 40 37 36 35 32 29 28 25 26 24 24 28 26 24 19 24 27 25 26 22 24 25 22 23 24
88 87 87 97 103 104 87 67 84 80 77 70 69 68 63 60 56 52 48 45 42 40 37 36 34 30 29 27 26 26 23 26 23 27 25 24 27 30 28 29 26 27 30 30 29
84 79 88 97 102 89 75 75 81 84 80 74 70 70 65 63 59 55 49 46 45 44 40 43 35 32 31 29 25 26 27 27 27 26 27 28 31 30 32 31 31 32 33 32 32
76 81 89 100 92 79 74 80 84 84 83 79 73 72 68 65 62 57 53 51 48 46 43 43 37 35 33 31 27 28 29 30 31 28 25 27 31 37 32 33 34 34 34 37 38
74 79 87 88 78 75 77 84 86 82 85 83 76 74 71 69 65 60 56 55 52 50 47 43 39 39 37 32 29 30 31 33 35 34 28 30 33 40 34 35 35 39 39 39 41
68 69 78 77 75 71 77 83 86 84 83 83 77 73 74 72 69 67 64 61 57 54 53 47 41 43 40 33 31 32 33 34 35 36 35 33 34 40 32 29 30 33 37 38 39
58 65 71 74 76 74 80 76 87 87 85 82 76 78 79 76 73 70 69 66 62 58 56 49 44 44 42 38 36 33 36 38 38 36 38 36 36 31 32 25 31 32 33 36 36
54 66 67 67 73 75 77 78 84 89 88 87 85 85 81 79 78 73 70 65 61 61 58 51 48 46 45 42 38 37 40 40 39 39 37 40 40 30 34 30 29 33 36 36 37

GFSSW_250_spd_069.txt.gz
Wind_Speed
40 35 38 45 40 38 40 41 48 49 52 50 50 53 50 53 58 58 54 52 51 53 47 49 54 54 56 56 62 68 71 62 54 40 33 30 20 24 21 21 23 37 47 50 52
38 35 34 35 35 39 39 32 30 41 46 49 52 51 50 47 50 52 49 42 42 43 43 50 53 53 53 55 61 68 65 55 45 35 31 27 10 26 31 22 19 31 39 47 54
39 40 33 41 43 43 36 35 34 33 38 42 41 41 43 41 41 46 42 41 42 41 44 49 51 51 51 56 62 67 59 48 40 34 26 19 10 17 25 18 26 29 36 44 54
51 43 47 44 47 49 48 39 36 38 36 36 39 39 39 37 38 37 38 40 41 39 44 47 50 47 51 55 61 69 55 44 36 32 23 12 9 14 16 30 37 36 37 41 43
59 56 54 45 51 52 51 53 45 39 38 34 37 40 37 36 34 37 38 35 34 40 44 46 44 44 50 55 60 67 52 42 33 25 18 7 7 7 9 23 35 38 39 44 47
67 61 64 57 50 53 53 55 51 47 46 40 38 39 39 37 36 38 36 33 39 40 41 43 40 44 48 53 58 65 49 40 28 15 10 4 13 9 9 14 26 40 40 41 47
70 68 69 65 51 46 54 56 56 51 48 43 41 39 43 38 39 39 31 36 41 40 39 40 38 42 45 50 55 63 46 35 24 16 5 8 9 5 12 14 19 30 35 36 40
70 69 70 64 68 60 57 55 55 55 50 41 39 44 40 40 36 33 29 37 39 36 37 36 38 39 43 49 54 59 41 32 12 12 4 11 18 25 22 15 16 20 30 32 37
78 74 72 72 74 68 66 62 59 57 54 45 47 45 43 43 37 30 26 35 37 35 32 36 37 39 42 47 52 55 40 32 20 10 8 6 10 17 15 13 15 18 19 29 28
82 82 80 82 85 76 73 65 61 58 54 54 50 50 47 45 41 36 26 35 33 32 31 36 38 38 41 44 49 48 38 31 18 5 7 9 5 4 7 12 18 16 13 21 25
90 90 94 84 88 85 78 77 73 64 62 58 61 54 50 46 44 34 33 35 38 32 30 35 37 34 39 41 44 46 34 27 17 8 5 9 8 10 8 13 18 22 20 17 20
96 95 97 94 90 85 84 80 75 75 71 65 66 61 51 53 49 39 36 38 36 32 31 33 33 34 37 39 40 41 41 25 14 10 5 11 7 8 12 15 16 16 20 23 24
102 102 100 98 100 94 90 88 85 84 73 75 73 61 60 57 50 43 40 40 35 30 30 32 32 33 37 37 37 37 38 29 21 9 8 8 12 12 6 14 18 25 24 21 17
110 110 109 108 108 101 96 96 93 88 84 77 74 63 65 62 50 50 41 40 34 31 29 31 32 33 35 35 34 34 33 33 19 9 5 7 3 8 5 11 19 30 30 31 26
118 117 117 114 111 108 109 105 102 96 95 85 76 71 73 62 57 49 46 39 36 32 29 30 31 32 34 34 32 31 32 28 17 16 2 5 7 7 7 9 17 26 33 33 34
124 124 125 123 119 119 116 114 110 106 95 89 77 76 67 62 53 51 47 42 40 32 31 30 32 30 32 33 30 27 28 28 24 14 17 10 9 9 12 14 16 18 35 38 34
129 130 130 129 125 126 124 123 120 111 100 94 85 74 69 61 56 53 48 44 40 37 33 30 32 32 33 32 28 26 25 23 25 24 14 16 14 15 16 17 18 22 25 32 37
124 121 119 123 121 123 129 128 118 97 101 92 78 70 69 63 56 53 50 47 39 38 35 35 33 33 33 33 27 26 23 24 22 21 18 16 17 17 19 20 23 25 27 31 39
103 102 101 105 116 116 116 116 91 88 82 77 69 71 71 64 58 56 48 43 43 43 38 37 35 33 34 33 27 27 23 23 21 22 25 22 16 18 22 22 22 24 28 33 35
89 91 90 95 102 107 107 87 83 80 78 72 72 73 71 67 60 54 50 46 46 45 41 37 36 34 33 32 29 27 26 23 22 23 25 22 25 16 25 28 28 27 28 29 29
80 80 84 90 99 98 89 64 75 77 75 70 79 77 74 70 64 57 51 52 51 49 45 41 40 35 34 36 31 29 27 23 24 25 26 28 29 27 16 21 34 34 31 29 33
74 72 83 86 86 84 73 61 74 78 75 74 80 76 75 73 65 59 53 52 57 52 47 44 42 37 37 37 31 30 30 27 23 25 26 27 32 31 30 23 24 32 38 36 35
67 68 77 78 74 74 64 66 76 81 76 76 77 79 80 75 71 65 62 55 58 58 53 48 39 38 38 36 36 35 30 29 27 25 28 27 30 34 31 33 30 26 32 35 39
67 63 68 66 69 71 66 69 77 81 81 78 78 80 84 80 75 73 69 66 58 60 60 50 44 41 39 43 39 36 35 32 30 29 29 32 30 32 27 34 32 30 24 28 34
61 53 60 57 61 67 64 70 78 83 85 85 81 79 83 82 82 76 74 71 66 61 64 52 47 43 43 44 43 40 37 34 33 32 33 35 34 34 27 34 33 30 28 27 32
50 50 56 56 64 62 63 72 78 85 92 86 83 80 81 84 82 81 77 75 73 69 68 56 49 46 48 48 46 42 41 39 36 37 37 37 38 36 28 34 33 33 32 31 33
47 50 52 55 62 57 63 73 76 86 89 91 90 91 86 86 88 80 79 76 75 73 68 60 53 51 49 52 48 44 44 41 40 40 39 39 41 39 32 36 36 34 35 35 32

GFSSW_250_spd_072.txt.gz
Wind_Speed
50 49 51 50 49 47 47 42 37 39 41 39 37 42 45 46 48 46 44 50 48 46 45 44 41 44 47 50 54 54 56 63 62 51 42 28 4 11 20 27 25 39 43 37 18
53 48 47 49 43 40 42 35 33 35 37 40 28 32 36 40 37 37 41 41 41 40 39 35 38 45 48 50 51 52 57 63 61 50 38 27 5 8 11 16 14 26 46 44 27
56 50 47 49 45 40 38 40 37 35 36 33 32 27 28 31 34 35 36 36 34 35 35 31 41 45 47 47 48 52 58 63 61 48 36 21 2 19 13 17 36 23 41 64 36
56 50 48 44 45 45 39 40 44 44 46 40 33 30 31 28 27 32 31 31 33 35 30 35 42 46 45 46 46 51 58 64 58 46 31 18 2 5 20 34 31 40 38 62 52
64 61 57 56 55 52 46 43 45 48 47 45 37 36 34 32 27 29 30 33 34 32 31 43 43 46 45 44 47 51 58 61 50 39 31 23 2 6 4 26 31 27 33 49 66
70 64 66 63 60 61 57 55 56 45 51 48 45 41 38 34 30 31 34 36 35 28 35 42 44 43 41 42 47 50 56 56 41 38 33 17 4 3 9 17 20 32 31 46 58
73 69 66 65 63 63 65 63 65 54 52 55 50 45 38 41 36 35 33 36 32 27 34 44 37 41 41 43 46 50 52 53 37 32 27 8 21 17 12 18 34 23 25 34 49
77 74 73 68 67 65 64 70 66 62 49 48 51 46 45 42 39 38 40 39 32 26 35 41 36 37 41 43 44 49 50 53 36 28 22 8 17 15 3 14 30 35 24 27 31
77 80 79 70 68 69 67 63 65 66 62 62 60 49 50 48 41 39 44 41 37 29 36 38 37 35 39 42 41 47 47 52 37 29 14 8 21 18 15 21 26 25 16 25 27
79 83 81 76 71 72 71 72 70 66 64 62 61 51 48 48 46 42 48 42 40 31 39 38 35 33 37 38 41 43 43 49 39 32 17 2 9 21 26 22 18 9 12 12 21
83 84 79 76 76 77 74 75 75 74 69 72 69 61 55 51 50 48 49 42 43 39 40 41 36 33 36 38 39 42 41 44 39 31 19 2 4 7 11 6 10 16 12 14 19
87 87 85 82 83 80 81 80 79 78 76 75 70 70 61 53 56 54 57 49 47 46 39 42 35 32 37 38 39 40 38 41 38 24 19 9 11 10 6 8 11 10 8 12 18
92 97 92 89 82 83 80 84 84 82 78 75 70 59 63 62 57 56 55 54 47 46 41 44 36 32 35 38 38 37 35 38 37 22 21 9 8 11 5 6 15 17 17 12 17
99 95 94 94 97 97 93 91 88 87 84 76 73 64 66 65 59 56 56 59 50 49 45 40 35 31 34 37 35 36 31 32 37 27 19 17 8 4 6 13 20 25 24 17 17
109 108 107 103 102 102 104 101 99 99 93 81 77 74 72 69 60 64 64 65 56 52 47 45 36 34 31 37 33 34 29 28 33 25 20 15 15 13 6 11 13 27 27 26 24
119 117 113 110 107 111 112 109 110 112 99 91 87 82 83 80 75 71 69 70 62 49 47 43 38 34 30 37 34 34 31 27 28 23 23 16 10 13 13 8 11 16 32 30 31
120 122 121 117 116 121 116 119 119 116 98 100 96 91 89 86 85 82 74 67 64 54 47 45 42 36 32 37 37 33 31 26 26 23 23 23 18 9 16 17 14 14 20 36 38
120 124 122 123 129 131 124 126 124 112 106 104 103 99 96 94 90 87 79 76 66 53 50 42 37 38 35 35 36 34 32 26 26 22 21 19 23 17 18 17 18 22 23 22 39
112 112 113 117 127 127 129 128 120 111 107 111 113 107 102 101 97 93 85 74 63 56 50 47 42 41 37 36 35 34 31 27 25 23 17 19 19 17 18 17 24 22 23 24 27
98 100 102 109 114 117 114 106 98 98 109 118 118 110 107 104 99 94 90 67 55 55 54 50 47 40 40 36 36 34 29 31 26 23 21 17 16 19 20 22 16 18 29 32 33
90 89 90 96 100 94 95 93 90 93 102 108 102 103 100 99 91 79 67 59 60 54 59 58 48 43 41 36 35 34 34 33 27 26 23 20 20 21 17 20 23 26 22 21 34
85 81 84 89 87 83 84 85 82 79 88 96 94 98 96 92 85 73 59 62 62 58 62 58 51 46 42 44 38 33 35 32 25 29 26 24 22 23 24 23 25 29 30 25 21
76 74 77 78 69 72 76 74 70 75 83 84 81 82 82 79 71 65 64 69 68 60 60 57 54 51 46 44 38 36 37 33 30 34 29 27 27 25 25 23 29 29 31 29 27
71 66 68 64 65 61 68 65 61 67 76 80 79 79 80 75 66 71 72 76 69 61 65 62 56 50 45 45 47 40 35 35 35 36 35 32 30 29 29 25 29 32 31 31 30
61 56 58 53 57 58 63 55 59 66 69 77 79 75 76 72 70 74 76 79 72 68 68 64 59 52 52 51 45 43 35 40 37 39 38 37 35 33 33 30 33 34 32 31 33
54 51 53 51 57 54 53 46 55 68 69 71 75 76 78 73 73 80 82 82 77 74 75 68 55 50 52 51 49 45 40 37 40 44 43 40 38 37 36 34 34 34 35 32 35
48 49 47 47 51 50 46 48 59 63 69 72 76 81 81 71 82 79 80 84 81 76 77 75 69 52 52 57 54 42 42 39 45 43 43 40 42 42 38 38 37 37 35 35 37

GFSSW_250_spd_078.txt.gz
Wind_Speed
63 62 61 60 62 57 52 52 51 46 44 43 43 44 41 42 36 36 36 37 41 30 35 37 36 34 35 32 27 28 37 44 46 47 48 47 45 31 15 36 39 40 42 64 56
64 64 65 65 62 61 56 52 51 50 48 46 42 39 41 40 38 33 32 35 30 33 40 32 31 32 33 30 27 34 37 39 41 48 53 48 41 27 17 43 43 41 47 68 61
69 68 68 66 65 64 59 56 54 51 53 49 42 39 38 38 38 36 31 25 23 21 23 29 30 28 25 29 29 33 36 37 43 50 52 49 35 22 23 46 45 42 52 70 55
77 75 70 70 67 67 63 61 55 53 54 52 41 41 36 43 42 33 31 33 32 26 23 27 33 28 22 24 29 36 33 32 44 47 54 48 34 23 25 45 47 42 54 64 55
77 77 77 78 71 69 66 66 59 55 55 55 43 43 46 45 46 42 37 32 31 33 31 28 33 32 29 26 31 34 31 32 43 46 54 47 24 30 29 47 43 47 45 49 57
71 73 76 77 76 76 70 66 63 58 55 57 46 43 47 49 42 43 43 41 43 40 36 32 33 35 36 28 33 33 29 30 40 45 50 43 23 23 36 49 35 38 53 53 49
82 79 76 76 79 74 76 73 73 65 60 53 52 44 50 56 46 47 50 51 48 42 38 38 33 36 38 34 31 30 30 29 40 42 48 42 33 16 47 51 27 34 52 44 34
78 80 81 75 76 79 76 76 75 68 63 56 52 48 50 56 54 55 55 57 45 36 42 45 35 39 43 44 41 27 31 27 37 40 47 46 30 24 42 51 37 27 40 58 43
75 78 83 83 76 75 78 80 77 69 67 62 59 55 63 62 55 52 51 52 45 43 46 45 39 45 42 41 38 31 32 28 34 39 45 46 24 26 37 45 44 37 35 46 55
77 77 76 81 82 74 73 82 82 76 68 67 64 60 62 69 63 57 53 50 46 45 51 45 39 48 47 41 40 36 29 27 38 34 39 40 24 28 29 48 37 32 29 26 33
81 77 75 78 80 82 78 75 76 71 70 70 62 62 62 67 68 63 56 51 49 47 50 42 48 49 41 42 41 42 28 25 30 31 34 40 32 15 28 38 34 33 26 34 30
81 81 73 75 78 80 78 79 77 72 70 68 68 65 67 64 62 68 59 54 53 51 48 49 46 44 37 36 43 41 30 25 26 32 30 36 30 23 15 30 37 38 40 37 33
78 78 73 73 77 81 82 82 78 78 71 70 71 67 71 65 61 68 63 62 55 54 56 49 51 43 32 38 45 42 34 25 24 31 29 37 32 30 20 14 28 33 35 30 24
82 81 79 83 83 80 83 86 86 82 82 69 77 70 72 70 62 69 65 64 58 55 55 48 50 43 38 40 45 34 34 27 24 29 27 33 31 31 23 14 11 21 26 24 21
88 89 86 88 89 86 84 83 83 82 87 80 78 79 76 75 69 73 71 65 60 63 55 54 55 45 39 42 40 33 33 31 24 27 28 29 27 28 28 18 18 16 23 23 24
93 93 95 94 97 93 90 88 86 85 75 77 76 77 76 76 74 75 73 69 66 68 62 56 56 48 41 44 42 42 37 40 27 27 30 27 25 25 23 17 18 13 13 25 24
91 95 98 101 105 100 101 96 94 85 76 78 78 76 75 77 79 79 77 70 69 69 64 61 57 54 50 45 46 48 43 39 35 28 25 28 22 16 19 20 18 17 10 18 26
93 93 93 101 111 108 107 108 100 88 86 87 87 86 80 83 84 84 83 78 74 75 69 65 58 58 57 55 55 53 51 41 39 28 25 27 18 17 13 13 11 11 16 12 15
94 92 93 98 106 107 114 105 103 99 94 95 98 98 92 88 90 90 83 79 78 75 72 71 65 67 66 65 62 56 52 49 39 30 26 25 20 22 15 7 13 13 11 10 14
92 90 88 97 96 95 98 95 101 109 109 107 106 105 97 97 92 91 90 83 77 76 78 77 73 69 68 69 65 62 59 54 40 38 28 26 22 24 19 15 8 6 11 8 4
88 85 88 90 88 86 78 87 94 107 111 114 112 110 109 105 104 100 94 92 92 90 90 84 80 76 75 75 69 64 58 45 40 40 34 28 25 25 19 16 13 10 10 11 9
79 70 80 82 80 74 70 79 88 88 92 104 105 103 117 120 111 108 102 97 102 100 98 92 91 81 70 71 67 68 61 49 44 43 40 31 28 27 25 21 17 14 15 14 15
76 73 76 77 69 69 73 75 80 84 83 84 88 88 97 111 101 107 106 109 112 111 104 103 102 94 89 85 77 73 67 65 50 49 40 33 33 31 24 25 21 16 15 17 18
72 70 68 69 67 68 70 72 73 77 77 74 77 75 83 95 87 86 90 91 98 99 101 107 105 97 95 83 82 72 63 56 53 46 44 38 40 32 29 27 26 24 19 18 19
66 62 64 61 64 68 68 68 69 69 70 67 70 73 76 78 78 74 80 81 84 83 83 92 87 83 79 77 82 76 65 56 54 48 44 47 43 37 32 27 29 28 28 23 24
56 57 59 59 60 59 59 57 60 66 64 64 65 72 64 69 72 73 71 75 78 79 79 81 75 73 73 71 73 63 55 61 55 49 44 49 45 44 37 34 28 30 27 27 26
50 54 54 55 56 54 52 57 59 58 54 59 63 62 60 64 62 67 67 71 70 78 73 69 69 67 60 64 63 56 55 59 55 47 46 49 47 47 42 39 34 28 31 31 32

GFSSW_250_spd_081.txt.gz
Wind_Speed
67 66 67 65 60 59 59 59 59 58 55 48 46 47 43 43 41 41 38 38 40 39 43 41 38 35 32 35 37 35 34 35 37 40 41 44 46 53 46 38 28 22 27 35 34
72 69 67 69 66 61 60 62 60 60 58 52 47 47 44 43 42 39 38 39 35 31 31 28 25 29 28 32 33 35 30 35 37 37 41 43 49 52 44 30 22 26 32 42 41
72 71 73 71 70 68 66 64 65 61 60 57 50 48 44 46 46 39 40 37 36 35 31 31 31 25 27 30 33 35 37 38 36 37 39 42 51 48 42 24 28 28 36 44 47
73 73 74 71 74 75 73 72 69 63 61 58 53 50 46 49 50 39 40 40 40 34 33 32 29 28 31 33 35 37 41 39 36 37 38 41 55 46 35 21 31 32 36 51 51
77 74 72 75 75 75 73 73 75 70 65 61 57 52 48 52 52 41 44 42 41 42 38 31 37 45 38 32 34 37 45 38 34 36 36 40 50 47 31 20 36 36 39 53 49
77 78 73 75 75 77 76 77 73 73 74 67 60 55 50 57 51 44 48 45 43 44 44 42 41 45 35 36 36 40 45 40 39 36 35 40 46 47 28 21 37 39 40 51 49
87 81 76 74 80 75 77 75 75 74 72 67 66 55 52 64 51 51 48 48 45 44 42 46 48 41 38 35 39 42 43 42 40 34 32 37 44 45 27 19 37 40 43 52 61
87 85 82 80 79 82 73 79 74 71 69 67 63 60 58 66 57 55 51 54 51 45 48 46 47 41 41 40 39 42 46 44 44 33 33 38 42 42 28 16 37 46 46 51 61
91 87 84 84 81 80 75 72 75 75 69 65 64 62 64 66 60 55 56 55 51 50 50 43 42 41 44 43 40 45 46 41 44 35 31 36 40 43 26 19 33 49 53 53 58
93 88 85 83 80 82 77 76 71 74 72 63 64 66 65 68 66 63 56 61 58 55 50 47 44 44 43 42 42 42 43 42 46 34 30 35 36 41 34 21 32 45 40 47 55
94 89 86 80 76 77 83 81 76 69 71 67 61 65 70 70 67 64 62 59 61 61 60 54 44 47 43 38 39 40 36 40 47 34 30 32 33 39 38 26 29 47 47 47 52
92 89 85 78 75 77 81 80 74 73 63 74 63 62 68 73 66 69 65 66 61 58 61 54 46 49 42 40 40 40 32 37 42 32 28 31 34 37 36 32 22 32 47 40 34
90 88 82 77 77 77 78 75 77 72 65 71 69 64 74 65 66 71 66 66 65 62 57 55 56 49 41 43 44 44 36 30 38 32 28 26 31 38 38 34 29 21 34 47 50
88 83 80 78 80 76 76 77 77 77 67 69 70 64 69 67 62 76 69 69 65 58 61 55 56 52 42 43 42 47 41 31 27 28 27 25 31 38 35 35 31 23 20 22 24
82 81 78 76 85 82 77 76 79 82 68 67 70 70 71 69 65 72 73 72 66 64 58 53 59 55 42 49 43 49 45 37 31 30 34 26 33 34 32 33 35 24 15 16 17
81 79 75 78 82 82 86 82 77 79 67 67 66 69 74 77 77 73 73 69 69 69 63 58 64 57 50 51 47 53 47 40 34 34 36 32 30 32 27 29 33 25 10 13 15
81 78 73 77 84 86 86 86 85 79 72 75 76 75 73 76 74 79 80 75 71 71 66 64 63 63 57 54 54 53 53 46 37 37 38 32 23 29 24 23 29 25 18 12 14
83 81 76 81 83 88 90 91 85 82 83 84 85 83 80 75 76 75 74 74 71 69 67 66 63 60 60 57 59 56 57 53 42 45 42 32 26 26 24 21 23 24 21 18 12
84 82 78 83 86 83 87 89 90 88 89 91 90 92 88 83 80 80 76 73 72 70 68 66 63 64 63 63 64 59 56 55 49 42 39 39 30 25 26 23 22 20 17 19 18
80 79 80 83 83 86 88 81 80 83 91 96 98 99 96 90 85 83 80 77 76 73 71 67 65 69 70 67 62 62 61 58 53 43 39 49 39 32 25 26 19 17 15 15 16
75 72 78 80 81 81 78 80 83 82 88 88 99 106 103 96 93 86 83 82 81 79 76 73 69 70 74 69 68 67 64 58 56 46 44 45 43 36 29 28 21 17 17 16 12
72 67 72 77 73 72 72 75 78 78 81 82 86 91 103 108 101 98 91 90 87 85 83 82 76 70 69 69 64 62 63 63 60 56 48 50 41 36 32 28 29 19 17 16 16
67 67 69 74 57 57 65 72 74 75 78 78 80 83 88 89 95 104 98 99 97 95 92 89 83 79 77 76 71 74 72 69 65 59 51 47 47 40 37 34 30 26 21 18 17
66 66 66 63 54 55 61 62 61 68 72 73 74 81 80 84 82 81 88 94 106 101 97 98 94 90 84 84 85 79 70 66 64 59 51 58 63 58 48 40 34 33 27 23 24
57 56 61 56 59 60 63 64 63 68 70 70 69 78 77 76 80 76 81 81 84 92 109 106 100 96 95 92 94 91 84 77 74 71 74 58 65 59 49 44 41 38 30 29 26
47 51 59 58 62 62 61 60 63 68 67 68 63 71 69 66 72 75 75 75 75 75 80 91 98 107 104 99 99 99 97 93 78 70 68 65 61 55 53 46 45 40 31 32 29
48 55 55 56 58 53 54 63 67 65 61 62 60 64 64 67 67 68 61 68 67 74 73 79 78 82 87 97 103 108 95 92 85 77 74 64 51 60 58 46 47 45 42 39 33

GFSSW_250_spd_087.txt.gz
Wind_Speed
69 67 66 69 67 71 69 66 66 61 60 52 49 49 49 51 52 52 54 54 50 47 43 39 36 34 30 29 29 31 29 29 34 36 41 39 42 49 44 44 50 48 46 30 17
69 70 71 72 74 73 73 72 67 67 59 56 50 49 50 52 53 53 53 55 53 49 45 39 37 35 29 29 31 32 31 38 40 42 40 40 41 48 44 48 52 49 37 16 12
73 72 76 72 75 75 76 76 73 67 68 62 53 51 47 53 57 56 54 55 57 53 46 42 38 34 30 29 32 36 34 39 36 37 39 39 40 46 45 48 48 45 29 12 16
75 78 72 73 72 78 76 72 76 68 64 63 61 56 52 51 59 59 58 58 58 57 50 44 40 36 33 29 33 38 34 34 38 36 40 36 39 44 46 45 45 43 29 18 20
83 81 88 87 82 82 81 78 76 71 67 65 63 59 55 51 60 59 60 59 59 58 52 48 42 40 36 35 30 39 38 36 38 35 37 38 38 42 46 42 44 40 31 23 25
87 91 89 88 85 84 82 86 83 79 78 70 65 63 60 55 58 60 61 61 59 59 55 49 45 42 40 39 34 36 38 33 32 34 39 39 38 41 46 37 40 35 31 14 25
96 97 96 94 94 88 86 86 85 86 78 72 66 61 54 61 56 59 58 60 59 60 60 53 46 43 45 42 40 39 38 33 31 35 35 36 36 40 44 34 39 38 31 19 30
107 106 104 100 100 95 96 93 85 86 75 68 64 57 54 62 57 59 59 62 62 62 61 58 50 48 47 44 44 42 41 36 34 33 35 33 34 38 40 32 36 30 31 26 21
103 102 102 99 99 101 97 98 92 78 73 65 65 61 59 63 62 59 59 66 65 62 60 59 53 51 50 49 46 44 43 41 33 34 35 31 33 34 35 36 34 30 34 31 17
105 107 105 105 99 97 100 98 89 74 68 65 62 62 64 65 63 61 60 63 68 63 61 55 53 50 52 57 49 42 41 43 35 35 35 29 32 29 30 34 37 30 35 34 30
105 107 105 100 101 91 79 78 73 64 64 65 65 64 64 66 64 62 63 65 61 63 60 58 52 48 60 57 47 41 44 45 41 33 34 29 29 28 30 36 41 31 32 36 34
108 109 106 101 87 83 76 69 67 59 58 59 60 63 71 67 59 60 67 66 63 60 59 54 46 55 58 56 49 41 42 47 39 31 34 31 31 27 28 34 39 30 32 35 36
111 110 102 91 84 76 71 65 63 57 53 64 58 59 62 59 56 62 63 67 64 53 57 55 54 57 56 56 51 47 44 44 39 30 32 34 29 30 25 30 38 31 29 34 35
105 97 89 84 79 70 67 64 60 56 52 60 56 47 53 48 55 64 58 67 64 57 59 57 55 59 58 55 54 48 48 49 41 33 33 30 28 30 27 29 36 30 25 32 34
96 88 79 75 71 64 62 59 58 57 53 56 53 49 51 53 55 59 58 61 65 64 59 56 63 63 61 61 60 54 53 49 43 34 32 32 30 29 26 25 31 32 22 27 33
85 78 72 70 68 64 62 58 57 59 53 54 52 50 53 54 54 58 58 58 66 67 62 60 62 63 63 61 57 54 55 51 45 37 32 32 28 28 28 25 28 33 22 23 28
84 78 69 67 68 66 63 57 58 52 51 52 53 54 53 55 58 60 62 64 63 66 62 62 62 63 56 55 55 52 53 51 48 39 38 31 26 30 32 34 30 31 26 22 24
80 74 69 69 69 68 66 59 52 46 51 50 55 56 58 59 60 62 64 64 65 64 65 61 62 59 62 59 59 54 54 50 48 42 37 29 27 35 36 35 34 30 29 24 22
71 68 67 69 65 67 66 55 49 49 51 50 56 58 59 64 62 63 56 63 62 58 63 61 59 61 53 54 55 52 50 54 48 41 36 30 30 35 39 36 35 27 26 28 20
64 61 66 66 63 67 63 54 52 53 53 56 56 60 63 68 69 69 67 59 65 65 62 61 58 60 60 59 61 61 56 53 49 42 37 32 31 39 41 40 38 26 25 19 22
56 54 63 62 62 62 55 54 57 58 58 60 61 65 69 69 74 74 73 70 68 64 59 63 55 61 60 58 59 64 60 55 52 46 42 39 31 45 44 43 39 32 23 19 22
54 52 65 60 56 55 55 57 59 62 62 65 67 69 68 67 70 77 77 76 72 67 68 63 63 68 70 68 66 67 64 63 59 56 52 40 36 44 43 40 47 35 21 17 22
52 53 58 54 49 51 54 59 61 64 65 67 69 70 72 71 69 74 78 77 76 74 69 69 68 64 65 68 71 66 66 66 61 59 48 47 37 46 55 45 51 38 26 20 19
46 47 50 51 50 53 58 63 62 65 67 65 67 71 73 75 73 71 74 84 85 81 77 73 72 71 71 70 70 66 66 64 62 57 50 42 46 42 56 53 51 42 36 34 30
39 46 49 48 56 61 61 61 63 65 65 65 66 72 77 77 76 73 73 71 79 82 83 80 77 82 80 75 74 76 72 72 68 62 54 51 50 48 57 60 54 47 43 40 43
42 47 46 51 56 59 57 59 61 64 63 65 68 72 70 73 75 75 70 67 68 72 81 85 83 84 87 89 89 84 79 73 68 66 58 56 52 52 54 63 60 55 51 46 48
44 45 43 49 52 51 53 61 65 65 63 63 67 65 66 71 65 68 66 69 69 66 69 73 82 92 91 92 95 93 87 87 83 76 68 61 58 63 59 62 66 64 59 52 50

GFSSW_250_spd_090.txt.gz
Wind_Speed
69 68 63 68 69 70 67 67 60 61 59 59 61 61 65 59 50 46 45 42 42 45 45 44 45 45 40 37 36 32 31 29 28 34 33 33 35 38 38 38 46 45 47 48 36
69 68 71 72 73 70 71 63 61 61 61 64 63 65 61 60 62 47 45 46 41 44 47 46 46 45 40 38 36 33 31 31 29 33 33 33 33 36 37 36 46 45 45 43 25
79 76 74 73 74 73 67 66 68 65 67 68 61 63 67 64 61 51 49 46 44 43 46 47 49 48 43 40 38 37 33 31 31 31 32 34 33 34 37 37 44 45 40 40 15
78 74 75 76 77 73 72 70 72 76 72 70 70 69 66 67 67 59 51 50 49 47 47 47 48 50 46 43 40 39 37 34 33 34 33 32 33 34 38 35 43 44 43 38 11
82 81 81 81 78 78 77 76 78 79 77 76 75 74 76 71 74 67 65 55 53 49 51 51 49 49 49 43 42 42 40 37 33 35 34 32 32 35 33 32 39 38 41 34 13
86 84 82 82 81 82 85 82 82 81 82 81 82 80 73 74 71 70 63 56 57 52 49 52 50 49 49 45 44 43 42 39 37 36 34 31 30 35 32 31 33 35 35 30 11
90 89 89 91 90 90 90 91 90 89 89 85 84 83 76 78 79 75 63 55 52 52 51 54 52 50 48 47 48 44 44 43 38 40 40 35 31 32 31 29 26 34 32 26 22
96 95 96 96 95 93 94 97 94 94 95 93 88 84 82 88 81 75 65 57 55 52 51 51 50 50 49 49 49 47 43 44 38 42 40 37 30 32 31 26 26 32 37 30 21
99 101 100 101 101 101 102 99 102 103 101 93 91 87 86 88 82 71 65 57 55 55 52 50 49 50 49 51 51 50 49 44 41 41 41 41 34 30 32 25 27 30 35 33 23
103 103 102 104 103 104 105 106 103 99 97 92 92 89 88 83 76 68 65 62 60 59 52 52 52 50 49 51 54 53 46 43 47 38 37 41 36 31 32 28 27 29 33 39 25
99 103 103 106 107 106 102 104 103 100 93 94 93 82 82 76 73 68 67 62 62 60 55 54 51 52 57 56 55 50 46 47 52 37 38 39 40 32 31 27 27 29 37 35 25
98 97 100 109 107 109 108 107 101 99 92 94 85 74 74 67 65 67 67 64 60 63 58 53 49 53 62 57 58 50 46 48 52 38 33 41 38 31 30 28 25 30 35 31 26
97 98 99 103 104 105 102 99 101 96 87 79 73 67 67 63 65 70 67 65 64 63 59 56 56 58 58 61 56 55 49 49 49 37 31 37 38 32 28 27 25 29 31 31 31
100 101 102 102 102 104 103 101 98 89 79 68 70 63 61 63 63 67 65 68 66 64 63 58 59 59 57 59 58 51 54 48 46 41 37 36 40 34 27 29 26 24 29 28 32
107 106 107 104 106 105 101 94 86 80 70 63 64 61 62 63 59 63 62 64 64 64 64 60 66 62 56 59 57 50 53 48 44 42 38 39 39 36 30 29 26 24 30 29 27
105 103 102 102 101 97 91 84 77 73 58 56 59 62 63 63 60 61 62 61 65 63 62 61 64 63 59 55 56 55 51 50 48 43 37 44 40 40 31 28 28 26 31 29 28
99 98 94 93 93 89 87 79 72 63 56 54 56 63 65 61 60 60 62 59 60 60 61 62 60 65 61 57 57 59 54 56 54 46 46 48 42 43 32 26 30 29 30 29 26
91 89 88 88 86 84 83 75 66 58 60 58 60 63 66 64 64 64 64 62 58 57 56 55 59 62 63 60 60 61 58 58 56 46 49 48 35 42 35 30 33 32 29 30 22
84 82 82 85 85 83 80 70 61 61 61 61 62 63 65 68 67 68 65 61 57 55 54 54 55 56 62 64 62 59 56 59 57 46 48 43 36 43 38 30 34 36 32 31 23
72 73 78 78 79 77 71 65 63 62 64 67 65 64 66 66 69 71 69 60 56 56 53 55 57 55 59 63 62 59 57 55 52 44 46 47 42 40 40 33 35 37 35 32 28
66 68 73 71 68 63 60 62 62 63 66 69 68 67 67 70 72 72 69 63 60 58 56 53 57 57 58 62 60 59 57 55 52 46 48 45 43 42 47 38 35 35 36 36 28
62 61 66 62 60 59 60 61 61 65 70 72 73 71 69 72 73 72 71 64 59 59 56 57 55 56 61 63 63 63 57 58 53 51 52 49 47 44 47 41 41 38 38 39 32
55 57 59 58 57 58 60 60 63 67 71 74 75 74 72 71 73 74 72 66 61 59 56 56 53 62 61 60 60 63 64 66 63 60 61 57 51 49 48 49 46 46 42 39 46
51 54 57 56 55 57 60 60 61 67 71 74 75 74 73 72 73 74 74 69 63 65 60 62 61 61 63 67 62 60 56 56 59 54 59 56 56 53 52 54 54 50 51 44 46
49 54 56 52 56 55 56 58 61 65 71 73 75 77 77 73 72 72 75 70 63 63 68 66 68 69 67 62 65 71 71 70 70 69 67 65 61 59 58 58 58 57 52 48 50
49 53 53 51 51 53 53 57 62 66 68 73 79 79 76 74 74 71 71 67 70 67 70 77 75 72 71 72 75 68 64 68 74 76 77 76 72 68 65 64 57 60 54 55 56
48 47 44 48 50 49 53 60 65 64 66 71 78 75 75 76 71 70 69 69 71 69 68 71 77 80 80 76 74 71 77 74 69 65 69 66 62 63 63 60 62 60 57 54 58

GFSSW_250_spd_093.txt.gz
Wind_Speed
73 69 69 69 68 70 68 68 62 64 65 66 62 59 57 59 60 60 58 57 47 43 41 34 39 39 43 43 43 43 40 36 36 37 35 33 33 31 33 33 36 37 43 41 38
77 74 76 69 73 72 69 67 71 73 71 69 69 65 64 60 62 63 58 59 58 50 45 41 35 42 41 46 46 44 40 39 36 35 39 33 30 31 30 33 38 33 37 39 36
79 79 75 71 69 68 77 74 72 67 72 70 67 65 64 62 65 64 64 60 61 60 57 48 40 38 41 45 48 48 45 42 37 38 40 37 32 30 30 34 38 33 36 34 36
76 78 79 81 85 83 79 79 73 72 70 71 69 67 66 69 68 68 67 64 67 66 56 50 51 48 43 44 48 51 50 43 41 37 40 41 35 30 30 32 38 33 31 32 35
83 80 83 82 81 85 79 75 73 73 74 74 71 70 72 73 73 72 72 73 73 73 68 56 50 53 44 45 45 50 51 45 42 38 39 42 38 33 30 30 36 26 29 32 34
86 86 82 81 82 81 78 79 78 77 77 73 75 72 75 79 82 80 77 77 77 77 70 61 53 52 48 51 48 49 51 48 43 41 38 40 39 36 34 33 35 29 29 31 33
88 88 87 87 87 85 84 83 81 81 82 82 84 84 86 87 82 84 83 84 82 81 71 67 58 51 55 50 51 53 50 47 46 40 39 43 42 35 37 33 34 30 29 30 32
93 94 92 92 90 89 89 87 87 88 89 91 90 90 88 88 88 88 87 88 85 85 81 71 64 52 51 50 50 52 49 53 51 41 40 42 41 35 38 35 32 32 30 31 33
99 95 95 97 94 94 95 96 95 92 94 94 94 93 90 93 93 91 90 91 89 85 80 73 68 55 51 50 51 53 51 50 50 41 39 43 43 34 39 36 32 32 29 30 32
103 106 98 99 95 93 94 95 95 94 95 94 94 95 95 96 97 97 96 93 88 82 82 76 67 54 50 50 49 57 55 52 44 47 42 45 47 37 34 33 32 30 28 30 32
107 108 105 101 101 100 101 98 97 99 94 95 98 98 99 97 98 99 93 94 91 86 84 74 67 51 54 52 57 59 56 51 50 49 39 46 45 41 35 36 34 32 28 29 30
104 102 106 102 101 103 104 101 104 101 98 101 101 101 101 103 100 103 100 96 88 83 81 68 60 56 59 57 55 56 56 54 56 49 40 45 46 48 37 35 35 33 27 27 29
96 94 101 99 102 99 102 103 106 104 103 97 104 101 97 100 98 99 87 88 88 77 71 65 64 61 61 58 55 55 57 56 56 50 43 44 44 50 39 36 33 33 28 25 29
101 98 96 100 100 100 101 106 101 105 107 102 98 98 94 97 91 89 86 88 78 67 69 63 68 63 62 58 58 55 55 61 60 53 46 44 42 46 39 33 33 33 29 25 29
105 106 106 104 103 103 105 107 104 104 110 105 94 94 92 94 86 86 77 75 68 68 68 58 66 63 61 58 59 55 58 54 59 57 50 44 40 48 38 35 36 32 30 26 29
102 104 106 108 112 109 110 108 105 107 108 106 95 92 92 91 86 77 72 70 67 68 64 64 68 67 62 65 59 58 57 54 59 59 47 45 44 48 41 34 37 33 32 28 28
97 99 101 103 107 111 110 111 110 107 107 102 93 89 87 81 75 70 67 67 67 66 63 70 70 70 68 67 62 61 58 56 55 57 47 44 42 47 42 38 39 35 32 30 28
94 95 96 97 97 99 100 102 102 94 96 99 88 79 80 72 69 66 66 67 68 66 65 66 68 71 70 68 65 65 63 53 54 55 50 46 44 45 45 42 40 37 35 34 28
85 89 93 93 91 91 90 87 83 89 89 81 74 74 74 69 67 67 67 69 67 66 66 64 66 61 66 69 65 64 61 59 55 52 50 48 48 47 49 47 40 39 34 35 35
83 83 82 85 87 86 81 74 80 85 78 71 76 73 71 70 67 69 68 70 68 67 65 65 63 61 62 63 62 60 64 63 59 57 56 53 50 51 55 53 43 41 37 35 36
76 76 76 76 78 76 75 77 81 78 73 74 78 72 73 69 70 73 71 72 68 66 64 64 60 59 58 57 60 61 60 63 60 54 53 55 53 54 55 58 47 44 40 35 35
69 69 71 70 69 67 68 73 78 77 75 76 77 76 75 73 73 75 74 71 69 68 65 63 61 62 61 55 60 58 59 62 64 59 55 55 54 50 58 56 52 49 47 41 38
60 62 64 65 62 65 70 74 71 71 71 74 76 75 74 74 75 76 72 71 73 70 65 64 62 60 59 59 58 54 52 56 61 60 56 57 53 53 60 61 56 55 50 44 42
54 56 61 61 63 65 68 67 65 66 68 71 74 72 74 75 77 76 74 74 71 69 68 66 61 61 60 62 58 57 57 60 56 58 61 58 59 56 62 62 59 56 52 51 43
51 55 56 56 58 59 60 59 61 63 66 67 68 68 73 73 75 77 77 75 75 69 68 68 65 68 66 62 60 64 65 65 60 61 61 61 58 62 64 66 63 60 56 51 50
49 53 52 52 53 53 52 57 57 59 62 62 65 66 68 70 74 81 78 76 75 71 71 69 69 66 67 66 68 62 64 62 64 65 68 64 67 68 66 66 63 60 56 53 52
46 46 48 47 48 47 49 51 55 56 57 58 60 62 67 72 70 76 76 74 74 73 74 73 69 66 65 68 64 59 70 62 63 65 69 73 73 72 67 66 68 67 63 60 58

GFSSW_250_spd_096.txt.gz
Wind_Speed
71 74 70 72 70 70 72 71 68 69 67 63 63 72 66 62 69 66 66 59 58 57 54 48 46 42 42 41 43 41 43 44 43 42 36 36 36 35 36 34 37 37 33 39 40
71 74 75 77 77 75 75 74 76 68 66 62 73 71 65 68 67 68 65 65 59 56 57 56 53 47 45 44 44 44 37 46 45 43 37 37 36 37 35 36 36 35 33 35 38
76 76 77 75 78 75 74 71 72 72 67 67 77 66 75 73 70 62 68 62 58 59 59 59 56 54 54 46 46 45 43 46 46 45 42 40 41 37 37 39 35 34 33 35 34
83 82 82 82 80 77 75 74 75 74 74 73 70 76 77 71 70 66 67 65 60 60 62 61 63 63 58 54 47 47 51 47 46 43 47 44 42 40 38 38 36 34 33 34 38
86 85 87 84 85 82 77 75 74 74 76 77 80 78 75 68 72 65 68 66 66 63 64 68 67 68 66 61 58 48 55 47 46 43 46 44 45 38 40 37 36 36 36 33 35
85 87 87 90 86 88 87 87 86 87 81 78 81 77 74 68 74 73 71 69 68 69 73 76 74 72 71 71 62 57 49 49 46 47 43 43 45 40 41 38 38 35 35 32 35
86 84 84 83 84 83 84 83 83 90 88 83 80 76 74 79 74 75 74 72 75 78 80 80 79 76 77 76 68 57 46 55 48 47 46 46 43 42 35 40 38 35 36 33 34
92 92 93 93 91 93 92 89 88 85 88 90 85 82 77 80 79 78 77 78 82 82 83 82 79 78 80 78 74 59 50 53 54 51 47 44 41 44 35 40 38 37 34 31 34
104 105 104 102 101 101 98 99 95 91 91 91 90 90 85 83 82 84 84 87 88 87 86 85 85 83 81 81 68 60 54 55 56 55 47 41 47 51 33 39 40 37 32 31 34
107 107 104 105 109 106 103 101 102 97 95 94 95 90 93 91 90 88 90 90 89 89 89 89 90 89 86 85 74 69 59 61 54 56 51 41 45 49 37 36 42 37 35 33 33
110 108 107 108 110 106 103 107 106 107 99 100 98 94 92 93 89 90 94 92 91 90 91 94 95 87 86 85 80 67 61 59 55 54 52 47 44 51 43 36 41 39 39 33 33
117 111 116 113 114 111 110 111 105 113 105 106 104 95 98 99 90 92 92 89 93 93 95 98 95 92 89 86 75 67 62 61 56 54 57 52 45 43 42 40 39 42 40 32 34
115 115 114 116 117 116 116 114 112 114 108 100 106 102 101 101 99 97 97 96 96 98 98 97 94 93 82 70 67 63 55 64 55 55 60 57 47 46 43 37 36 43 40 33 31
115 117 118 119 122 119 120 117 116 109 112 96 103 101 98 101 100 97 100 98 96 93 96 92 87 81 76 70 68 55 62 65 57 54 54 57 51 51 46 40 34 38 39 35 30
111 112 113 118 122 120 121 113 115 112 113 105 98 92 99 102 99 100 99 97 96 96 98 84 83 78 70 65 59 52 67 66 57 54 54 53 52 47 50 43 37 37 40 34 32
106 105 104 109 109 113 112 115 114 116 112 103 105 96 96 98 98 99 95 99 97 96 94 82 81 78 71 58 55 57 67 65 60 58 50 50 52 45 47 49 38 34 41 35 31
100 98 97 101 104 105 106 106 107 107 103 107 112 102 98 99 98 99 96 96 95 96 88 83 79 76 63 57 56 61 69 66 62 58 45 51 53 47 49 50 42 35 41 37 32
91 88 91 95 98 97 100 100 95 88 96 107 113 98 97 99 101 98 101 100 94 87 87 80 69 63 56 53 57 62 69 68 63 57 49 52 46 46 52 48 40 34 41 38 33
84 85 85 88 90 90 92 89 86 93 95 95 96 92 94 101 100 101 99 92 92 84 78 71 61 60 54 54 58 61 66 65 64 58 51 49 47 50 50 46 37 39 40 38 35
76 77 78 81 84 84 80 78 85 94 87 82 83 85 87 93 87 87 91 88 77 75 73 64 58 55 52 58 61 63 67 68 63 60 54 48 50 49 50 45 45 44 39 40 36
64 64 67 72 76 76 75 78 80 85 76 81 78 74 76 80 75 74 78 77 69 68 63 59 57 55 56 58 64 66 66 67 67 62 59 52 52 54 48 47 53 51 45 38 44
55 56 58 63 63 67 72 74 75 73 72 74 77 74 71 73 70 65 68 72 54 62 60 56 56 55 57 59 60 62 62 65 67 65 62 58 54 53 56 56 54 52 46 45 49
49 49 53 55 55 59 63 67 68 68 68 69 73 72 73 69 65 64 70 59 59 61 55 58 60 59 61 62 62 59 62 59 60 63 60 61 57 59 57 55 58 56 50 47 53
44 47 49 48 51 51 55 58 62 64 64 64 69 68 70 66 65 64 62 56 61 59 60 62 60 58 62 64 61 61 58 52 55 57 58 57 60 59 58 62 55 52 51 51 51
44 45 44 44 47 49 50 54 55 58 60 62 63 64 66 65 66 65 60 57 63 60 63 64 62 62 65 61 61 64 59 56 57 59 58 58 63 65 65 54 53 55 54 56 56
41 39 38 40 42 43 44 49 50 52 53 55 57 61 60 60 61 60 61 60 63 60 63 64 63 63 66 64 60 61 59 59 58 62 62 57 62 67 67 62 58 61 62 59 59
37 33 34 34 37 39 40 40 43 44 47 49 51 53 56 58 52 54 45 50 60 58 61 64 68 66 67 69 61 56 57 64 60 63 61 60 58 61 65 65 65 65 62 64 66

GFSSW_250_spd_099.txt.gz
Wind_Speed
67 66 64 68 68 67 67 68 69 67 66 65 64 69 67 67 68 62 61 59 64 56 58 57 55 55 50 52 44 38 37 40 41 45 47 43 40 40 38 34 36 32 28 33 35
71 71 69 71 70 74 74 75 76 78 76 76 77 75 74 71 68 68 60 64 64 60 63 60 60 54 56 57 49 45 42 46 39 39 42 40 43 40 37 38 36 34 32 31 34
74 73 73 73 72 74 71 76 77 80 83 81 78 75 73 66 64 62 61 66 65 64 68 65 65 55 55 58 54 55 46 53 45 42 44 45 47 43 42 42 38 37 33 35 34
78 77 76 77 78 79 80 81 75 76 78 76 75 78 74 69 65 62 65 68 66 71 71 63 59 53 55 56 63 52 52 57 55 51 44 46 46 42 44 43 36 39 33 35 34
79 78 80 81 83 85 84 86 88 86 84 85 80 75 70 65 69 60 69 74 73 72 65 59 59 62 59 59 60 61 56 58 59 58 46 46 47 46 46 41 37 36 33 34 35
86 85 84 86 85 86 85 89 90 92 92 90 87 77 70 65 68 68 68 74 78 74 70 67 65 62 57 59 63 64 60 61 60 61 54 47 45 47 50 39 36 37 34 34 33
94 94 92 90 92 89 91 90 89 90 93 92 92 87 84 90 84 77 73 77 72 73 73 70 70 64 64 62 65 69 68 63 62 61 56 49 39 49 48 43 38 37 34 34 33
98 98 97 97 95 96 94 96 99 92 93 89 89 86 74 85 83 84 82 76 75 73 75 75 73 70 66 68 69 72 71 66 66 69 71 58 34 51 48 43 37 40 37 34 34
104 103 104 104 103 100 100 99 101 97 97 94 91 88 83 86 83 81 81 81 79 76 77 76 74 72 70 73 73 76 76 72 71 77 74 64 37 52 55 42 41 41 39 34 38
107 109 110 111 110 110 106 107 105 104 101 100 102 98 94 95 92 88 86 83 84 85 84 86 83 79 77 78 76 80 83 78 75 77 80 62 42 41 54 48 42 42 40 37 37
106 114 113 116 119 116 112 115 114 112 105 107 108 107 103 102 95 93 97 90 86 84 83 87 87 82 83 85 86 86 82 80 74 77 80 67 42 39 43 52 41 37 38 41 31
105 110 115 116 118 121 119 120 116 121 112 110 111 105 108 112 98 98 103 94 94 89 86 85 79 86 90 89 86 82 79 78 78 72 76 58 43 43 42 43 46 40 35 39 30
100 107 110 117 122 124 119 125 122 124 126 109 117 108 115 115 102 97 105 101 99 96 93 88 83 88 85 84 82 80 82 84 75 68 58 52 44 47 47 41 48 42 38 35 27
99 101 109 114 121 126 131 129 127 127 132 114 117 112 114 111 104 101 106 104 101 98 101 92 88 95 94 91 92 89 91 88 74 62 52 60 43 50 47 37 46 45 40 36 28
108 108 109 115 121 125 131 129 130 132 132 118 122 118 115 115 117 109 103 104 101 101 101 87 90 93 92 91 95 88 84 76 63 57 51 53 46 49 49 43 40 53 43 35 30
100 101 102 105 105 117 118 119 123 126 118 118 122 118 117 116 116 113 110 106 103 98 95 86 87 88 88 91 90 85 82 72 63 53 43 51 52 45 45 46 42 56 48 32 30
95 96 98 98 100 99 101 101 103 101 98 102 109 112 114 115 116 116 110 112 108 102 92 87 85 86 88 86 83 80 79 68 61 49 43 53 57 43 46 50 49 50 53 43 32
93 92 94 94 95 94 95 90 91 84 94 99 98 99 96 98 104 110 110 107 107 106 99 93 84 83 80 78 75 75 72 61 56 48 50 56 52 48 51 49 48 54 52 45 39
82 82 86 82 84 87 87 80 78 86 94 91 85 88 88 91 87 92 96 98 100 101 96 88 82 84 85 76 71 72 60 59 52 51 50 54 56 52 48 49 53 55 47 43 36
72 75 79 74 74 74 73 74 76 84 84 78 80 84 84 83 73 80 81 85 87 83 81 83 78 82 76 73 59 66 65 54 51 48 48 56 54 51 52 48 50 50 51 44 34
62 67 67 62 60 58 60 63 68 74 71 70 76 75 79 74 73 75 71 67 75 71 73 78 76 80 69 72 68 64 58 51 49 47 51 58 54 51 52 48 51 48 47 41 36
58 58 56 54 51 50 54 54 58 61 59 66 69 69 69 65 68 69 68 62 63 60 70 57 65 70 66 62 58 53 51 50 51 46 50 55 53 52 55 50 52 47 51 46 46
50 50 48 48 43 45 46 47 50 52 53 59 60 59 61 59 62 66 63 53 54 58 58 51 53 57 57 53 53 51 48 53 50 51 49 55 54 56 54 50 51 53 52 51 51
46 44 43 43 40 42 42 43 46 47 48 51 54 55 57 56 55 60 57 46 49 57 52 51 52 50 50 49 53 47 49 47 47 48 51 50 56 57 56 54 55 56 51 59 48
43 40 38 37 37 37 38 40 39 41 43 44 47 53 53 53 52 55 53 47 49 55 47 47 47 47 47 50 44 42 45 49 52 53 52 56 57 58 54 56 61 60 60 65 53
37 33 33 32 30 34 35 35 35 36 38 39 43 46 47 51 52 51 48 46 50 52 50 49 52 49 49 52 44 47 49 49 53 53 52 52 51 57 59 62 69 64 64 61 56
29 26 29 26 27 32 29 28 28 29 32 36 39 43 46 47 47 48 47 43 49 49 50 45 50 52 53 53 49 48 54 58 58 53 52 51 56 59 62 68 70 64 62 55 53

GFSSW_250_spd_102.txt.gz
Wind_Speed
65 65 66 68 68 67 69 69 69 70 70 66 64 60 55 57 59 59 60 63 65 64 67 66 61 58 53 56 54 53 49 57 51 48 39 36 34 37 37 43 47 42 35 32 33
70 72 71 73 73 73 74 73 73 70 73 73 70 69 69 68 70 72 67 69 72 72 68 68 65 60 53 59 55 53 49 58 55 52 45 36 38 39 40 38 46 43 36 35 35
72 74 75 78 77 80 78 73 76 77 77 76 78 77 76 75 77 78 77 76 73 70 67 59 62 58 55 61 62 58 45 59 58 57 48 46 43 43 42 45 47 46 42 41 35
77 79 80 81 83 84 83 80 78 76 76 75 76 76 74 70 73 81 76 74 71 72 69 64 60 60 59 58 67 56 49 54 59 60 52 48 45 49 48 47 47 45 40 38 34
67 76 87 85 87 86 87 86 85 83 82 80 75 79 71 70 78 68 71 70 72 74 74 68 65 61 62 63 67 56 57 56 61 58 54 51 50 44 47 49 47 48 44 36 35
74 72 77 87 90 91 89 90 91 90 90 86 86 84 84 86 91 85 76 72 73 70 69 61 63 62 58 65 69 65 60 53 54 56 58 54 55 51 55 51 47 48 46 40 36
89 85 81 76 80 91 95 97 95 94 90 89 89 89 88 91 92 91 90 87 82 73 65 63 66 64 68 69 65 65 61 56 56 60 59 62 58 57 57 58 47 47 49 45 37
97 93 91 87 86 87 90 99 103 99 98 98 93 91 83 96 90 89 84 88 90 88 85 81 71 68 69 68 65 64 62 56 62 64 65 69 60 59 64 58 48 49 51 51 41
95 95 90 92 94 95 96 93 104 104 104 102 100 96 88 96 95 94 89 84 88 90 86 87 79 74 70 69 67 68 62 63 61 67 69 69 67 62 62 60 50 48 50 48 40
98 96 98 101 103 102 98 98 102 106 101 107 107 101 95 98 99 97 96 93 87 87 88 85 82 75 73 72 68 73 76 75 70 71 75 76 65 63 59 59 54 44 46 48 42
97 100 99 95 97 99 97 100 101 107 107 105 107 108 105 105 102 102 97 99 93 93 93 91 85 77 79 80 78 80 78 77 74 76 77 75 70 65 59 55 52 44 44 47 43
89 90 92 92 95 98 97 99 102 111 111 111 111 108 110 114 106 104 108 105 100 99 98 96 85 88 91 87 85 81 80 73 72 73 75 74 67 63 62 58 42 48 42 42 39
87 91 90 88 90 95 101 101 104 108 110 105 115 112 112 120 111 104 114 112 105 106 103 98 94 97 94 91 87 83 81 75 70 75 72 70 63 65 67 59 44 48 43 36 37
83 86 89 88 91 97 101 99 101 104 109 94 104 112 112 116 120 107 114 116 110 106 108 103 98 99 99 94 94 85 85 81 76 78 76 79 72 75 71 50 40 49 44 40 35
91 93 95 97 98 102 103 105 107 108 110 96 99 109 111 114 119 114 115 116 106 106 111 102 100 103 95 93 98 86 93 87 89 87 82 84 87 76 72 51 44 49 47 38 37
98 101 99 101 100 97 98 102 101 101 97 95 99 106 110 113 116 119 118 117 116 115 109 100 100 96 94 92 92 88 87 85 82 81 78 76 78 60 50 54 47 51 55 43 46
89 91 95 96 96 92 92 95 96 85 81 86 89 87 91 96 108 113 114 116 116 115 108 107 101 100 98 92 88 86 85 84 78 74 70 72 62 45 51 52 46 48 56 39 46
90 92 95 90 91 90 90 91 93 86 88 89 78 84 79 87 87 98 105 108 111 112 113 111 103 96 91 87 87 89 87 82 76 68 69 68 45 43 47 49 48 51 55 44 33
88 90 87 86 83 80 82 82 84 81 79 77 73 77 80 77 80 86 87 90 95 96 96 92 86 91 90 87 88 83 81 76 73 62 59 47 44 48 43 49 51 55 59 54 53
81 81 77 78 75 74 74 75 76 76 72 69 70 68 71 71 74 80 77 80 86 85 78 75 72 77 83 85 83 82 79 77 68 63 62 50 44 42 42 52 54 53 54 54 52
73 73 71 68 64 61 61 59 61 60 55 55 63 66 66 68 66 72 69 75 72 72 68 64 64 67 72 70 73 74 74 76 70 59 52 48 43 45 45 52 56 51 50 48 46
66 66 64 58 55 52 50 49 49 46 43 47 54 56 56 59 61 64 65 66 66 65 62 57 58 64 63 64 66 65 73 79 62 57 54 46 45 45 50 56 58 51 48 47 45
62 58 54 50 44 44 43 41 41 37 36 40 45 45 48 53 55 58 59 56 56 55 57 55 58 59 59 58 58 57 56 55 48 54 50 45 46 49 53 55 58 54 51 46 43
56 50 46 44 35 36 37 36 35 32 33 33 39 41 43 46 48 49 53 51 49 50 54 54 53 54 49 49 51 50 49 48 46 44 44 40 50 53 57 58 54 52 41 44 48
48 44 41 39 31 31 33 31 30 30 28 30 34 35 37 40 41 45 46 46 44 48 50 50 54 42 44 46 44 42 44 42 44 41 42 46 51 53 59 58 56 54 51 51 50
43 38 39 33 28 30 30 28 27 25 26 29 30 33 34 34 33 35 38 44 44 46 48 54 47 40 43 44 43 38 41 42 44 44 48 50 54 56 56 56 55 56 50 51 50
35 35 37 28 25 31 26 23 21 23 24 26 29 32 31 34 36 39 44 46 45 47 50 55 47 48 48 47 46 40 44 45 45 48 54 57 57 57 55 55 58 57 51 53 52

GFSSW_250_spd_108.txt.gz
Wind_Speed
53 53 53 53 56 60 63 62 65 69 71 71 72 75 77 76 77 78 75 76 75 71 68 66 66 64 64 64 61 58 53 51 62 64 61 56 56 51 50 45 47 42 42 38 34
55 59 56 55 59 63 66 67 68 68 69 72 74 74 77 77 79 82 78 79 80 77 76 75 74 68 64 62 65 63 56 52 64 66 61 62 56 51 49 46 51 43 47 44 47
63 61 64 61 64 67 70 70 72 72 74 73 75 78 78 76 80 84 83 80 80 79 77 77 78 76 69 66 63 63 55 58 62 69 64 64 53 49 48 48 49 44 48 48 44
77 74 71 69 69 71 71 78 79 73 76 77 79 77 78 80 85 86 82 85 87 86 85 82 83 80 79 75 73 70 65 66 67 71 68 63 58 50 51 52 48 46 48 48 51
84 84 84 85 82 81 82 78 82 81 77 78 79 79 80 82 87 83 86 87 87 88 89 91 90 87 83 83 81 77 75 73 71 74 66 65 63 51 45 61 51 47 46 47 49
87 85 92 93 96 94 89 87 83 78 77 85 81 79 79 75 83 89 86 86 83 85 87 87 91 90 88 87 87 85 81 77 75 71 69 69 64 58 58 61 52 47 48 48 53
88 91 93 94 98 97 94 90 92 86 86 80 89 81 75 81 86 89 89 88 91 90 87 88 88 87 86 81 83 83 82 79 70 64 67 67 59 61 59 57 50 49 51 55 58
89 90 95 93 90 85 89 90 87 92 93 88 86 86 82 88 87 83 88 87 91 94 93 94 93 89 83 80 77 74 74 65 60 66 64 73 58 64 63 59 56 51 55 58 58
91 89 86 86 81 72 76 86 86 87 88 91 91 86 82 89 96 93 89 89 91 93 95 101 98 93 90 86 83 79 73 72 67 67 69 74 60 63 64 57 54 55 59 60 55
90 89 82 79 69 63 68 80 85 88 89 89 93 95 89 89 99 97 95 94 93 93 93 95 103 99 93 90 85 87 86 83 79 74 80 77 65 58 62 64 65 66 62 58 58
88 85 76 70 65 60 64 73 82 82 83 90 92 94 93 101 98 98 102 100 96 98 96 100 101 95 97 100 96 94 92 87 84 81 78 71 61 65 69 69 66 63 61 62 60
93 87 76 69 65 62 63 69 75 77 72 80 81 81 94 101 95 98 107 103 105 101 102 102 100 94 93 93 98 96 91 85 86 84 86 83 69 70 70 66 69 69 67 61 61
93 82 74 69 67 64 67 70 70 73 74 71 85 88 95 95 89 91 106 107 103 103 102 106 97 98 94 92 94 97 96 93 91 92 89 84 71 73 74 71 70 70 69 67 64
90 78 71 68 69 70 70 70 71 71 73 74 86 95 94 96 92 95 101 107 106 100 106 107 100 101 101 93 92 91 90 92 96 100 93 91 77 74 72 70 70 69 66 65 63
85 74 71 67 67 70 71 72 74 74 71 69 81 85 89 93 90 94 101 101 97 100 106 95 97 101 101 92 99 89 95 95 94 93 93 89 84 71 73 75 78 74 70 69 59
80 72 70 68 68 69 70 71 73 76 76 71 75 74 74 78 79 83 98 102 95 98 101 92 95 94 91 94 93 94 94 96 97 95 89 84 83 68 68 76 80 74 66 58 51
76 70 68 68 69 71 72 74 76 77 77 73 70 72 70 68 71 73 79 88 94 97 93 88 89 90 89 87 88 91 92 92 92 89 80 76 76 63 66 68 66 66 56 52 49
74 69 68 68 70 73 75 76 75 74 74 72 69 64 61 61 60 63 71 78 86 94 93 87 84 85 82 83 84 85 86 86 83 82 78 77 70 65 61 62 61 52 46 44 44
73 69 69 71 74 77 79 78 73 69 70 71 66 55 54 51 53 56 64 71 78 84 84 83 76 86 85 83 90 90 86 82 88 83 78 72 67 65 60 62 60 51 44 44 41
72 70 70 73 76 77 77 73 71 67 65 64 58 52 49 48 50 56 60 68 71 74 77 77 72 76 84 91 88 87 85 90 91 82 74 68 67 65 65 68 55 49 43 40 38
72 71 73 75 74 75 72 67 68 63 60 58 53 46 44 44 46 52 61 64 62 62 63 68 67 73 77 82 84 88 89 89 87 83 76 73 70 69 70 67 58 55 44 40 30
72 72 73 74 72 71 67 61 65 56 50 49 43 40 39 42 44 47 51 52 58 60 59 61 62 70 72 74 78 78 81 87 87 82 81 78 75 71 72 71 68 60 45 35 29
74 73 73 72 70 67 62 56 61 54 43 42 38 37 35 35 39 44 44 50 56 56 55 57 58 67 72 72 74 73 72 72 69 70 71 80 78 75 72 73 64 53 43 33 35
76 73 70 67 65 63 60 53 53 47 40 38 35 35 33 32 34 36 39 45 46 53 55 55 57 63 66 66 67 63 61 63 62 57 57 62 64 66 68 65 58 51 46 38 37
75 70 67 67 63 59 55 51 44 43 36 34 33 34 31 30 31 32 33 37 41 44 50 55 53 56 59 57 57 58 59 57 55 50 52 52 56 59 59 59 56 52 46 38 36
72 67 67 66 59 55 51 47 42 36 36 35 31 31 31 31 33 33 30 34 38 39 40 41 47 52 56 56 54 55 56 56 54 49 49 51 53 57 59 58 57 51 48 41 37
68 65 63 63 57 50 47 44 39 33 36 34 29 30 30 33 36 33 33 33 35 39 40 39 40 48 53 51 49 52 52 52 47 47 48 53 54 57 59 56 52 52 50 45 41

GFSSW_250_spd_111.txt.gz
Wind_Speed
55 58 57 58 64 64 63 60 65 64 61 59 60 61 68 71 72 76 78 78 77 78 76 76 75 72 71 67 63 63 59 55 62 66 67 60 50 48 46 51 50 50 43 42 41
57 59 63 66 65 68 67 69 71 71 72 68 64 65 64 69 78 76 78 83 83 82 82 81 80 77 77 74 68 67 60 61 66 69 70 64 55 49 49 51 53 55 48 42 42
61 63 61 64 68 73 73 75 74 76 81 79 77 72 69 70 73 77 81 80 85 87 86 84 83 84 82 78 75 72 66 67 64 69 69 65 60 52 51 54 57 59 53 43 43
62 65 67 72 70 73 78 81 83 86 80 84 92 87 79 75 78 79 79 83 85 89 89 87 87 85 83 79 78 75 72 71 69 69 71 68 63 55 55 58 58 60 50 40 46
70 70 71 73 75 80 83 87 88 93 88 86 85 94 97 87 86 82 80 80 86 84 88 88 88 89 86 84 81 77 73 74 74 77 72 70 68 68 61 62 63 65 55 47 46
73 73 75 76 79 83 89 91 95 93 94 89 87 89 97 102 96 88 86 84 84 83 87 91 92 91 89 88 87 85 84 79 77 78 78 78 76 71 65 70 70 66 54 44 46
75 76 78 80 81 85 90 95 95 89 91 90 86 85 92 104 103 99 92 91 90 89 90 90 95 93 91 87 88 85 84 85 83 83 85 84 76 70 73 76 71 63 58 51 45
78 80 79 81 83 88 92 92 90 91 92 89 84 85 90 96 102 96 92 95 98 95 91 92 91 87 86 86 85 85 84 78 74 78 82 84 71 77 78 75 69 69 57 54 50
80 83 81 82 82 88 94 94 91 90 83 78 76 84 89 95 99 100 95 95 95 98 99 96 94 88 88 87 88 86 80 77 75 74 75 76 68 74 73 71 67 61 56 54 49
85 89 88 86 84 86 87 87 82 76 69 66 69 77 85 97 99 100 99 98 100 97 98 100 102 101 93 91 87 86 89 89 83 82 82 76 65 62 64 63 61 61 57 54 50
88 91 92 94 88 85 85 82 73 61 60 62 65 69 81 87 96 102 102 102 103 103 100 105 106 93 98 93 95 92 89 88 87 90 88 83 77 75 73 70 66 61 60 57 54
92 94 95 97 90 86 82 75 68 59 51 64 63 67 71 79 88 99 104 103 103 101 108 107 102 98 102 99 94 93 92 81 83 89 94 91 78 80 76 73 70 69 65 61 59
96 97 98 99 89 86 84 73 64 58 53 59 64 69 72 76 81 92 103 111 107 106 107 111 94 101 101 103 102 97 90 89 89 92 87 86 78 83 81 78 77 73 70 67 62
97 96 99 97 90 90 83 72 62 57 52 51 59 65 73 78 78 85 100 105 107 108 111 109 99 103 103 98 97 97 92 90 92 95 88 86 76 80 81 79 77 76 70 68 66
98 99 99 93 89 88 80 69 61 57 56 49 59 64 66 72 76 83 90 93 95 101 107 100 100 108 108 96 102 96 98 96 95 95 95 86 80 70 75 76 79 75 73 69 64
101 98 92 86 89 84 73 64 61 59 58 58 61 62 61 67 70 69 80 85 82 89 95 87 98 98 97 100 101 99 98 98 97 95 91 80 79 72 69 70 71 73 70 68 63
100 99 90 89 87 78 68 62 61 60 62 63 61 65 67 64 66 67 69 74 79 82 79 77 84 89 95 96 97 98 99 99 98 94 84 82 82 69 72 68 67 69 68 65 61
99 91 87 88 82 71 65 63 62 63 66 67 62 64 62 56 62 64 64 64 72 79 79 76 72 76 81 85 87 93 94 93 88 87 78 80 73 71 70 68 69 70 69 63 55
90 87 88 84 76 67 64 64 65 67 69 63 62 61 56 56 55 57 57 61 66 74 75 76 70 71 76 79 85 86 92 81 90 85 79 72 68 67 65 66 67 67 60 55 51
89 86 84 78 69 65 65 67 69 68 66 63 57 59 54 54 49 51 52 55 61 67 68 74 70 68 69 74 81 82 82 88 85 77 70 64 61 61 61 61 60 60 57 52 51
88 84 78 72 67 65 66 68 69 68 65 63 55 53 50 48 43 41 43 48 54 59 63 63 62 69 69 69 76 79 83 80 80 76 69 62 60 59 59 59 56 56 52 46 49
87 80 74 68 66 66 67 68 67 66 64 60 50 49 45 40 38 36 36 40 40 49 54 57 53 66 65 69 75 74 76 81 85 72 70 69 68 65 64 63 61 58 54 51 50
84 77 73 68 66 67 67 66 65 64 60 57 47 45 39 35 35 31 31 31 34 42 47 47 48 62 64 66 69 70 69 70 68 70 67 66 62 67 68 66 65 60 59 55 51
80 75 73 68 67 67 66 64 63 58 56 54 47 41 37 32 30 27 27 29 35 40 43 46 51 63 64 64 66 66 65 63 62 63 60 62 64 69 70 69 67 69 66 62 57
82 76 73 68 67 66 63 62 59 56 51 50 45 39 34 31 28 25 25 30 32 36 37 39 49 60 61 61 61 60 60 58 58 57 58 58 59 64 68 73 74 75 72 67 64
81 77 72 70 65 63 59 57 56 53 49 44 44 35 33 29 25 22 24 27 30 33 34 38 44 48 52 54 54 54 56 57 52 51 49 52 56 58 62 64 66 71 72 64 62
80 72 70 68 63 61 55 54 54 50 43 43 40 33 32 28 23 22 22 27 29 32 34 35 35 41 45 47 46 49 49 50 49 49 49 48 51 55 59 62 65 67 67 62 59

GFSSW_250_spd_114.txt.gz
Wind_Speed
45 45 48 50 54 55 56 58 61 63 61 60 59 68 72 72 74 71 69 71 70 70 69 73 73 75 72 71 71 72 68 66 66 73 74 68 58 52 49 47 48 51 51 47 49
47 50 52 55 58 58 62 61 60 62 64 66 68 68 66 75 79 78 76 72 76 75 76 74 78 80 78 76 75 74 71 66 67 71 68 66 59 52 53 52 51 54 53 53 52
52 54 58 58 61 62 63 65 64 67 69 69 74 75 74 73 73 83 81 84 81 79 81 81 78 84 81 82 80 80 75 76 71 73 71 69 66 63 58 55 56 57 55 59 52
59 60 62 63 67 65 70 71 72 72 72 75 79 80 83 85 82 81 79 85 89 84 82 83 86 83 86 87 87 82 82 80 77 80 75 69 67 64 63 59 59 58 60 59 54
65 64 67 69 72 72 75 74 77 75 77 78 82 86 90 93 90 85 83 85 87 94 94 87 86 89 88 86 89 87 86 82 81 80 77 78 75 73 66 60 58 60 62 61 56
72 70 71 73 74 78 80 78 76 75 77 77 80 86 91 92 94 91 87 87 90 92 99 99 93 90 88 89 88 90 87 86 84 82 81 78 75 77 71 69 69 69 69 68 61
76 75 75 77 78 80 83 79 81 77 76 78 80 80 83 84 85 83 82 84 87 95 98 104 101 94 88 85 88 87 90 91 87 85 83 83 78 78 77 77 77 76 74 70 64
79 79 79 83 88 90 84 82 78 81 85 86 84 81 80 80 76 79 82 84 84 91 99 104 107 99 93 88 85 86 86 86 86 85 88 90 80 85 84 84 84 81 76 71 67
85 84 83 85 91 90 86 87 85 85 89 89 84 81 79 76 74 75 76 82 89 92 98 103 107 105 99 95 93 86 81 84 86 87 87 84 78 85 83 84 82 77 72 66 58
89 88 88 87 90 88 90 91 89 89 94 93 83 82 80 75 72 70 72 76 86 93 97 103 109 105 101 100 91 96 93 85 84 87 89 87 80 79 75 75 72 67 63 58 53
91 89 91 89 87 87 92 93 92 93 95 91 83 80 77 72 68 67 67 72 79 90 97 105 108 103 108 108 100 100 97 94 90 93 90 87 84 80 77 72 68 62 56 51 49
90 92 92 90 89 91 93 95 96 95 91 91 87 82 73 64 67 67 68 70 78 84 94 104 103 105 111 108 102 103 99 93 95 93 93 86 82 86 83 78 76 71 65 62 60
94 93 91 93 95 93 91 94 96 97 94 89 84 78 71 67 63 65 70 71 75 83 94 101 91 112 116 112 107 103 97 99 102 103 99 92 81 81 81 82 82 81 77 75 72
91 94 94 96 95 94 92 92 94 95 90 83 80 73 67 64 66 66 70 70 75 82 90 95 96 105 113 111 109 105 100 101 100 105 99 97 84 87 80 76 76 76 74 74 75
91 96 97 96 95 94 94 92 93 89 88 80 76 68 65 61 61 65 67 69 70 76 88 74 90 102 108 98 117 104 109 107 106 103 100 90 92 84 79 78 78 78 75 73 72
96 100 98 98 94 92 93 92 89 86 83 79 73 66 61 61 65 63 65 71 70 72 75 65 85 85 92 107 111 107 110 111 108 108 100 89 92 90 82 77 77 76 76 74 70
99 99 97 93 94 92 88 88 84 82 80 75 68 67 65 60 66 66 68 69 71 71 75 70 70 78 79 90 102 109 113 112 109 105 95 93 91 80 81 80 76 76 76 72 68
99 95 94 94 91 90 89 86 82 79 77 71 65 67 66 63 64 60 62 60 64 64 67 70 68 68 73 79 84 96 102 107 102 100 94 102 92 84 86 83 78 78 77 75 69
93 93 94 91 92 90 89 82 80 76 72 65 65 66 65 64 61 56 53 54 57 57 60 64 69 69 68 69 82 83 95 81 96 97 91 87 85 86 85 85 81 82 80 74 71
89 89 89 90 90 90 84 81 76 73 66 62 61 62 58 60 57 54 47 47 49 51 52 57 59 64 65 69 76 81 78 90 92 85 81 81 80 77 76 77 76 76 76 74 70
86 87 89 89 87 84 82 79 75 67 62 61 61 58 56 54 54 50 46 43 42 41 46 49 50 59 63 67 72 75 74 83 81 79 77 73 70 75 67 67 67 65 66 64 65
86 87 85 85 83 81 79 77 69 62 59 61 61 57 53 49 50 45 39 37 36 36 38 43 49 54 59 62 64 67 70 73 77 72 69 69 72 67 64 65 62 61 60 59 60
88 85 84 83 80 78 77 70 63 61 61 62 60 55 52 46 43 38 34 32 33 36 36 36 44 48 50 55 57 63 68 69 68 67 65 67 67 63 64 62 59 55 53 52 54
84 84 83 78 77 75 70 64 63 63 63 63 59 52 49 43 38 34 32 28 31 34 33 35 42 44 47 52 55 61 64 66 66 64 56 62 63 61 59 63 60 56 54 53 50
82 82 78 75 75 69 65 66 67 65 63 61 57 49 47 41 35 31 29 26 29 29 29 31 35 41 46 49 52 58 60 60 62 62 60 55 61 60 65 64 63 64 62 60 58
81 78 76 72 67 69 70 72 69 67 62 57 53 47 40 37 31 28 28 25 27 24 24 28 31 34 38 46 50 54 57 58 56 53 54 56 55 59 61 62 68 69 68 68 66
78 74 70 70 72 73 74 73 69 64 60 54 51 46 36 35 28 26 25 23 25 23 23 25 28 29 30 38 45 47 50 51 51 47 50 53 52 56 55 58 65 69 69 68 66

GFSSW_250_spd_120.txt.gz
Wind_Speed
48 49 46 45 45 47 48 46 49 53 53 54 53 55 57 58 57 57 59 58 59 60 61 64 64 64 60 58 66 68 64 55 59 62 65 75 76 68 63 67 67 63 65 62 50
50 55 51 50 52 52 52 53 55 56 59 59 62 62 63 65 65 64 64 65 66 68 69 70 72 70 68 67 65 67 67 60 67 67 70 75 81 76 64 70 68 64 63 60 55
50 53 57 56 56 58 59 60 59 62 62 64 63 65 66 67 66 69 68 68 71 72 75 76 77 77 74 73 74 72 62 69 70 73 72 74 79 79 73 73 67 64 60 65 57
58 60 62 62 62 63 63 63 65 65 68 67 66 67 70 72 72 74 75 74 74 78 78 79 76 76 79 78 78 81 72 70 70 75 77 74 77 73 75 72 67 67 68 66 65
62 65 65 67 69 69 71 71 72 71 71 70 70 74 78 81 83 83 81 81 81 83 84 84 82 81 80 84 88 83 82 79 73 75 77 81 77 78 75 77 76 69 71 65 64
67 68 72 73 74 75 76 76 75 75 73 74 81 83 79 82 87 86 86 88 87 89 91 89 84 85 89 90 96 95 85 84 82 77 77 80 80 87 73 80 81 77 73 71 68
68 68 70 75 78 76 77 77 79 80 81 80 84 84 87 87 89 91 90 90 93 95 91 94 87 85 90 91 96 98 96 82 85 85 83 81 81 79 82 85 80 77 79 78 71
73 72 74 73 71 70 74 77 82 82 81 83 88 87 89 94 95 96 98 99 100 97 95 96 87 82 84 85 87 91 92 85 76 90 87 92 73 79 86 91 85 82 79 77 78
74 75 75 77 79 81 82 84 85 86 89 91 92 93 93 96 98 102 102 103 100 97 99 94 86 77 77 78 74 80 87 89 81 88 91 95 73 84 89 88 86 85 83 78 75
74 75 77 79 78 82 83 85 87 88 91 92 93 96 97 99 102 103 105 107 100 101 101 93 83 71 78 79 70 78 89 88 80 85 90 92 83 85 85 89 85 84 82 80 80
80 79 79 80 80 84 87 90 93 93 93 98 101 102 99 105 104 103 101 101 101 102 98 91 78 76 78 73 68 73 79 82 80 82 94 92 91 90 88 91 85 81 77 76 78
82 81 83 85 86 88 91 95 98 99 98 101 101 101 104 106 105 105 100 98 100 98 94 88 79 78 77 65 67 67 71 74 77 83 94 97 96 91 90 88 88 80 75 76 77
83 85 86 87 89 90 91 94 97 100 101 100 103 101 102 103 102 103 101 102 99 95 92 89 83 81 79 63 62 62 69 65 77 87 97 101 97 90 88 88 87 86 79 77 76
80 76 81 84 86 88 91 95 98 100 99 95 98 99 97 99 101 101 100 99 96 94 89 87 84 84 75 65 61 64 63 65 78 87 97 98 92 93 88 85 86 87 86 81 80
89 86 85 85 86 88 91 92 96 100 101 93 94 97 99 97 96 95 95 94 92 88 89 84 83 77 66 62 61 56 57 66 72 79 90 94 93 75 83 83 86 87 91 85 80
90 88 88 89 84 84 85 88 92 89 89 95 93 91 94 90 87 88 88 90 90 86 84 82 73 71 62 58 59 51 57 65 66 73 84 77 77 64 75 81 84 88 91 91 88
98 98 95 92 84 82 86 88 93 94 96 92 90 94 88 84 84 85 87 89 93 86 79 72 73 67 58 51 59 53 57 61 64 70 61 65 74 62 75 80 85 90 94 86 82
90 91 87 91 89 88 87 93 95 97 95 88 88 88 85 82 83 87 88 90 91 86 75 58 64 64 60 52 51 54 55 56 61 60 54 62 75 64 78 84 87 90 86 84 84
89 89 92 98 88 90 94 100 95 97 96 92 88 85 85 85 85 87 89 90 87 82 71 64 69 62 54 51 49 55 48 49 57 60 52 68 69 74 82 80 81 91 80 82 84
89 89 89 90 95 97 92 94 96 97 94 90 88 86 87 87 88 89 88 86 82 78 73 69 59 55 51 43 45 46 46 47 49 52 47 62 63 67 77 78 82 85 77 81 88
100 103 100 100 100 97 94 93 95 94 92 91 86 86 87 88 88 88 86 82 79 77 73 60 49 51 43 40 37 43 45 43 45 53 53 54 64 69 76 81 86 83 79 65 82
101 96 100 96 95 97 98 97 96 89 90 87 87 88 87 87 86 86 83 81 78 74 65 52 46 44 38 35 34 37 39 39 42 50 50 47 55 80 79 75 77 75 69 67 73
100 98 98 98 96 98 97 94 93 89 90 89 89 88 86 85 84 82 79 81 73 65 56 46 38 40 35 33 31 33 35 38 40 43 44 47 51 66 81 73 65 60 56 49 64
97 97 98 97 98 100 98 97 95 92 90 90 88 87 84 81 79 78 77 73 63 57 48 40 36 34 32 31 28 28 33 36 38 35 40 44 51 59 65 72 51 63 58 42 50
98 96 96 95 98 99 100 97 94 92 94 88 86 84 80 78 76 80 74 58 58 53 43 33 34 30 29 29 29 23 29 33 35 37 40 48 54 62 58 71 63 54 53 72 68
94 94 95 97 98 97 97 96 96 93 90 87 83 80 78 74 76 75 62 50 54 48 40 30 30 26 28 27 24 26 26 28 32 35 35 44 55 54 49 62 59 53 49 75 83
93 93 96 93 94 95 98 97 94 92 86 82 77 75 74 74 69 65 57 51 47 41 36 28 27 27 28 26 26 29 27 31 30 36 42 48 57 52 53 57 65 25 35 48 62

GFSSW_250_spd_123.txt.gz
Wind_Speed
41 41 42 43 42 44 47 45 44 45 45 47 49 46 47 48 49 53 52 53 55 56 57 56 57 60 62 67 66 65 57 52 57 58 58 56 64 66 60 57 58 60 69 64 59
45 43 41 40 46 49 51 56 54 51 53 54 52 53 53 52 56 56 55 55 58 64 65 65 65 65 68 72 73 74 69 69 62 62 61 66 62 67 64 54 57 65 70 59 58
49 49 49 48 47 51 55 59 59 60 60 57 59 56 57 59 60 60 59 62 66 69 69 71 70 72 75 72 73 78 75 81 77 71 67 68 68 69 69 55 57 60 72 67 61
56 56 54 55 54 57 60 61 61 65 67 67 67 67 63 62 63 63 65 68 72 73 72 76 78 79 77 76 79 83 87 87 78 83 74 72 75 72 73 59 60 64 70 68 67
57 62 61 61 63 63 64 65 66 68 70 71 71 72 72 70 71 72 72 73 74 76 78 77 75 78 80 86 94 94 94 90 85 84 87 78 77 77 75 65 67 68 70 66 63
63 63 64 67 68 69 69 70 71 72 73 74 74 74 73 75 73 75 75 75 75 78 79 78 86 88 88 91 95 98 98 90 85 84 89 92 85 84 73 76 72 72 70 69 66
64 66 69 70 71 72 71 72 74 74 75 75 76 77 79 78 78 78 78 78 79 79 84 84 84 86 93 98 101 104 103 94 87 89 90 95 85 83 73 87 80 77 75 72 69
67 70 74 74 74 73 73 73 74 73 72 71 74 76 76 76 77 74 76 80 83 83 86 92 94 98 101 107 106 105 99 92 78 82 82 91 75 74 79 90 87 85 78 75 72
70 71 74 77 78 76 75 72 73 74 74 78 77 76 78 78 76 76 80 84 88 94 95 96 103 105 108 112 101 96 91 86 70 78 81 90 76 70 84 90 94 85 79 78 76
75 76 74 78 78 79 76 74 74 76 74 76 78 75 78 79 84 88 92 95 97 103 100 103 108 107 111 108 94 87 83 69 67 66 84 84 75 72 82 91 95 93 83 82 79
78 77 76 78 79 79 76 76 75 77 80 81 83 85 88 89 91 93 97 99 96 95 98 105 109 106 101 96 88 81 74 67 58 64 81 81 79 75 76 89 93 95 86 82 78
80 78 75 78 77 74 76 76 78 74 78 83 82 84 86 89 89 90 92 93 96 99 103 104 100 97 92 89 87 78 73 65 56 59 82 78 80 73 77 82 87 89 91 86 78
71 73 74 76 80 79 82 82 80 80 78 80 84 88 90 93 94 98 95 98 97 99 96 92 91 89 89 89 90 82 82 74 67 58 77 80 73 69 76 79 85 85 89 86 74
70 70 73 74 77 79 78 76 80 80 79 80 84 89 91 92 90 91 89 87 90 89 87 86 89 87 89 90 90 83 81 80 68 60 67 76 61 62 73 81 81 80 85 83 76
72 74 76 76 75 75 80 82 86 89 82 83 87 91 85 84 86 86 86 86 86 85 85 85 86 89 91 89 84 84 78 68 66 62 67 64 60 40 71 78 78 80 82 84 84
80 81 81 82 83 86 89 88 89 90 91 93 92 90 89 87 90 93 89 84 84 83 84 83 87 94 91 82 78 73 65 62 60 60 57 55 60 38 60 71 79 81 85 88 88
82 84 84 86 86 84 84 86 90 94 94 95 95 93 92 90 92 93 88 88 86 85 84 85 87 93 94 80 65 66 53 52 50 51 41 51 52 41 57 68 73 77 85 87 87
81 85 87 87 88 88 89 92 94 97 97 93 95 93 97 97 97 94 91 91 91 92 89 88 79 86 85 76 50 59 48 45 37 38 37 50 37 45 57 64 76 77 78 78 81
80 86 89 87 89 91 92 93 95 95 97 96 96 99 101 102 99 93 93 91 93 94 91 86 83 81 66 62 49 55 49 40 34 35 31 41 31 51 56 68 72 70 76 75 72
83 90 92 90 91 94 89 92 92 93 93 94 100 105 106 105 96 94 91 92 93 93 89 81 72 74 67 59 56 48 41 36 30 29 27 35 35 45 56 67 68 68 68 65 60
87 86 94 91 88 92 95 91 91 95 98 103 106 106 107 100 96 93 92 92 93 87 85 77 70 68 67 61 53 43 35 31 25 24 24 33 41 47 56 62 66 61 66 61 51
93 94 90 87 85 90 96 97 102 98 101 104 103 102 101 98 96 96 91 93 88 84 79 73 65 65 63 55 46 37 32 25 24 20 26 33 40 44 59 64 65 58 56 46 50
98 97 98 100 101 99 92 94 100 100 103 104 101 98 98 99 96 96 94 90 86 78 74 67 63 62 55 47 38 32 28 23 19 20 24 33 42 51 60 63 51 30 45 54 58
99 99 108 102 100 98 98 96 97 100 104 103 101 99 98 96 95 95 91 85 80 74 70 65 62 51 47 40 33 27 25 22 16 20 27 42 54 51 49 60 59 43 43 56 61
106 103 101 101 96 98 99 99 100 104 103 102 101 101 98 94 92 88 86 81 74 68 68 60 55 44 38 35 28 28 22 22 16 22 34 45 46 48 47 52 53 56 36 40 58
88 87 89 96 98 95 95 99 101 102 103 102 97 95 91 85 87 83 81 73 65 67 60 53 46 38 33 31 26 27 22 23 22 24 32 40 42 40 40 45 63 50 49 52 55
72 69 73 77 85 89 94 94 96 98 97 96 94 90 87 86 84 80 74 66 63 60 54 45 40 33 31 27 27 28 24 24 25 29 36 40 39 46 52 51 66 65 61 60 50

GFSSW_250_spd_126.txt.gz
Wind_Speed
54 53 48 44 43 40 36 34 36 40 41 42 44 43 41 44 47 46 44 43 46 50 50 50 53 55 55 59 55 53 49 52 56 57 52 61 57 61 57 61 61 62 52 45 45
58 56 56 47 47 43 43 42 40 42 45 46 46 50 49 50 52 54 53 53 56 56 56 56 59 60 62 65 61 60 56 60 63 62 62 65 70 79 70 57 61 64 61 51 47
58 60 58 55 52 48 47 47 49 50 49 49 52 49 52 54 59 58 60 61 60 62 61 61 61 64 65 66 65 67 64 65 68 70 71 70 73 81 84 68 61 67 66 60 51
59 60 62 60 58 58 55 53 53 55 57 57 57 55 57 58 60 62 64 64 65 64 66 65 64 64 64 68 72 68 69 70 72 75 74 76 78 81 82 76 76 64 68 67 61
53 61 62 64 61 60 60 61 62 63 62 63 63 63 63 65 68 69 68 68 68 69 70 69 71 70 68 70 72 73 76 76 74 79 86 90 88 89 90 82 78 77 70 68 67
57 57 61 62 65 63 63 63 62 66 67 70 70 70 70 67 68 70 71 70 71 71 72 74 74 70 68 73 78 81 79 82 87 89 92 97 95 99 79 82 79 81 75 70 71
59 64 70 66 64 68 67 65 68 69 70 70 74 74 74 73 75 75 73 71 71 72 75 70 64 66 73 80 82 86 92 96 93 98 101 110 92 84 77 83 85 83 82 71 71
63 64 68 70 66 68 70 71 69 71 73 75 77 76 75 71 68 69 71 73 71 64 64 67 70 76 82 89 97 100 102 100 98 105 103 105 82 76 80 81 82 83 83 80 71
68 69 69 70 67 67 67 68 72 70 75 75 75 73 73 75 73 74 66 59 62 68 72 77 85 91 94 94 97 100 103 104 96 97 96 96 83 67 79 80 75 81 83 76 75
71 72 72 73 71 70 70 73 73 75 76 72 70 70 69 65 63 62 68 74 78 78 83 84 86 90 94 99 102 106 109 107 94 80 84 78 77 61 73 79 74 75 79 75 73
81 79 78 76 74 73 71 74 76 75 77 72 71 68 68 69 70 66 70 72 76 79 82 84 87 90 92 95 95 98 99 90 81 80 77 75 70 63 72 81 75 74 77 77 77
86 82 84 76 76 74 74 74 77 73 73 73 70 69 71 71 72 74 75 72 74 77 79 81 84 86 88 89 90 95 91 84 73 74 82 75 68 62 70 77 81 72 72 73 73
88 83 80 81 79 78 77 76 74 73 71 72 72 74 77 72 75 71 76 78 79 82 80 81 83 86 85 87 90 90 96 90 86 76 79 86 60 60 57 75 76 70 69 71 69
89 83 84 81 77 75 72 73 73 73 71 72 75 75 74 75 75 79 79 80 83 81 80 82 84 86 89 91 95 90 94 91 88 81 72 80 58 50 59 70 68 65 68 69 68
91 86 85 85 77 70 67 74 74 72 71 72 72 75 77 79 82 80 84 88 89 89 86 86 86 90 92 94 97 96 90 86 82 74 71 64 56 35 56 57 55 60 67 68 69
90 86 84 78 74 71 73 75 77 77 74 74 76 81 84 84 84 85 89 92 89 92 90 92 96 95 93 96 98 93 86 79 72 66 61 62 46 42 50 44 50 61 64 64 69
87 83 78 78 77 71 75 81 81 80 80 81 84 87 86 84 86 90 93 95 96 93 94 97 98 101 100 97 98 93 87 71 56 59 59 46 40 44 49 46 55 54 46 55 66
82 84 75 75 79 76 76 78 78 80 81 84 86 86 85 84 92 95 94 98 96 94 98 92 94 99 101 99 90 79 76 65 47 41 40 28 36 42 43 45 51 43 45 48 56
81 82 78 78 76 73 72 75 77 75 79 83 82 86 87 89 95 96 99 101 99 100 103 99 95 101 97 93 86 71 65 56 36 31 28 26 30 36 43 45 42 35 39 38 47
84 82 84 80 84 76 74 80 81 81 81 85 86 87 91 94 94 96 101 102 102 102 105 103 97 99 92 86 77 64 54 44 35 27 24 28 33 41 44 44 36 31 31 14 20
87 86 85 87 86 86 75 79 80 77 80 85 89 90 94 97 97 100 104 106 104 106 108 105 100 90 84 75 71 55 48 35 27 19 24 29 32 36 38 36 27 33 40 54 47
90 88 86 86 89 90 84 82 79 77 78 82 84 88 92 96 97 99 104 107 108 110 111 106 93 80 78 66 65 53 47 37 22 21 26 29 31 32 39 34 36 36 39 56 45
91 90 87 87 90 91 88 86 87 89 89 89 88 89 95 100 102 104 106 111 113 113 107 91 83 70 74 61 58 53 44 33 18 25 25 26 30 38 41 35 41 31 29 38 45
90 89 90 89 91 89 88 89 86 89 91 91 93 96 99 101 102 105 110 111 113 110 94 82 75 66 61 59 56 50 40 30 19 26 21 27 32 41 41 36 47 41 31 34 40
87 86 92 92 91 93 92 94 92 91 91 94 97 99 102 103 101 105 107 110 112 96 84 73 68 62 55 56 52 46 36 27 21 23 19 30 34 40 41 42 52 40 37 42 35
88 86 92 94 95 97 96 96 94 93 94 94 98 100 105 102 100 105 105 104 91 80 75 67 62 59 54 53 46 39 31 25 22 19 24 30 34 36 42 47 56 51 45 48 54
75 80 91 92 92 96 95 96 98 97 96 97 95 99 87 91 94 95 93 82 75 74 68 62 57 58 52 48 40 34 29 24 21 23 27 33 35 39 49 50 62 58 57 55 56

GFSSW_250_spd_129.txt.gz
Wind_Speed
57 55 57 57 52 50 53 51 45 40 35 33 36 34 37 41 43 44 45 46 45 45 44 44 47 49 50 52 53 53 49 51 54 55 52 58 57 59 52 52 56 58 57 47 43
59 59 60 59 55 53 53 55 50 47 44 40 39 40 38 42 46 48 47 51 52 53 54 53 52 56 57 58 56 55 57 57 57 57 56 57 60 65 57 55 63 60 55 58 50
60 60 61 57 57 54 56 56 54 51 48 47 48 46 46 49 51 47 50 53 55 55 57 57 59 61 64 65 65 63 61 63 62 63 62 58 60 64 67 59 66 74 77 71 58
57 61 61 54 53 53 54 56 57 56 55 56 53 53 53 57 59 55 57 58 59 59 61 65 66 67 69 68 67 64 67 64 65 65 62 63 63 67 67 68 85 87 82 79 75
59 63 62 57 51 50 50 54 59 58 59 59 60 61 61 64 67 64 62 63 65 66 67 67 69 70 74 73 71 68 70 69 65 65 68 70 68 66 70 88 88 93 93 88 86
63 66 62 57 52 50 55 52 54 61 62 61 60 61 60 59 61 63 67 70 71 71 69 69 72 74 73 74 73 67 62 62 68 73 78 79 76 83 85 91 91 92 94 91 82
62 65 65 61 56 57 57 57 59 64 69 66 65 63 62 65 67 64 69 73 75 75 73 70 70 70 74 69 61 63 65 72 76 83 88 92 88 91 92 96 94 92 87 88 83
63 68 66 63 65 65 62 60 65 64 67 68 69 68 68 67 69 67 70 74 75 73 70 67 65 60 58 63 68 73 74 77 85 93 99 101 90 86 87 82 80 79 79 79 83
62 71 70 68 71 75 70 67 66 67 68 70 69 67 66 70 70 75 74 73 71 69 68 54 55 64 69 77 81 82 83 85 82 81 87 96 82 73 79 81 74 73 74 76 75
73 70 70 74 81 77 75 75 73 69 70 71 71 73 73 73 73 75 73 75 69 57 57 64 70 72 73 74 77 80 84 79 79 78 86 91 84 75 74 77 77 74 72 72 75
77 76 84 80 75 73 77 75 73 76 75 70 69 70 72 73 73 74 70 62 59 66 68 71 75 78 79 78 78 79 77 79 79 85 88 91 83 76 75 78 81 77 74 74 74
89 87 84 76 76 78 79 79 79 75 75 73 71 72 73 70 71 72 68 67 68 71 76 79 81 79 76 77 79 81 82 84 78 88 95 93 74 73 78 79 84 82 78 77 78
88 89 84 82 79 82 82 80 81 78 75 75 73 73 73 73 69 70 70 71 75 78 80 78 77 79 78 83 84 89 91 86 89 87 94 105 81 74 76 86 75 77 80 80 81
93 90 90 87 85 88 89 88 84 84 81 76 76 77 73 71 68 70 71 72 74 72 73 76 80 81 87 89 86 89 93 94 96 100 95 98 77 64 78 81 80 74 77 75 79
100 98 94 93 93 96 92 91 87 84 83 79 76 76 69 68 68 68 71 73 73 75 79 84 85 87 93 96 93 95 98 100 102 100 95 89 88 63 65 64 67 59 62 68 74
103 100 100 99 100 98 96 90 89 85 77 75 71 73 72 71 68 69 72 75 76 79 84 88 87 91 94 97 98 101 100 103 102 95 81 82 74 57 57 48 51 45 48 57 62
107 110 110 108 102 98 96 89 87 79 79 73 75 74 71 72 72 75 77 78 79 84 89 87 89 94 99 98 104 111 112 107 95 82 77 72 63 58 51 42 39 32 36 39 44
106 116 110 105 104 98 96 92 81 77 73 73 77 78 73 71 73 77 79 80 81 82 84 87 91 96 102 104 102 108 107 102 84 71 60 60 56 53 46 36 27 28 24 19 19
98 102 106 102 100 99 98 88 79 77 71 74 75 74 75 71 74 78 79 79 81 84 88 91 93 99 106 103 107 107 109 99 79 69 57 47 48 45 36 28 19 14 11 16 24
95 100 98 98 96 94 88 83 77 79 72 79 77 67 69 75 77 79 82 84 86 88 91 96 96 99 106 110 113 116 100 86 75 54 47 42 39 35 25 16 8 8 9 17 19
99 96 93 90 86 83 83 83 80 77 76 75 71 68 68 72 76 80 82 85 86 89 90 92 98 103 109 113 117 115 96 78 62 49 35 35 29 28 18 15 15 25 29 27 29
92 101 88 88 86 85 86 82 81 78 79 80 75 76 75 74 74 74 78 80 84 89 93 99 102 104 113 115 115 103 84 70 52 43 31 29 23 20 17 17 23 39 43 36 35
89 86 81 80 79 82 85 85 82 80 80 84 83 79 81 82 81 85 87 89 90 93 95 100 105 108 116 113 105 91 69 57 44 34 28 22 18 15 18 21 31 48 46 42 34
82 76 74 72 67 70 77 80 83 83 78 81 82 83 84 89 89 90 94 96 96 98 100 104 110 111 107 92 86 78 61 48 41 32 23 18 20 19 25 29 36 53 52 50 60
81 76 76 70 68 66 66 72 76 80 81 82 81 82 84 87 88 91 95 98 100 101 102 105 107 111 94 80 74 61 54 43 40 24 20 18 22 26 31 36 43 62 61 58 54
75 77 75 76 78 73 70 68 71 74 82 82 84 84 85 88 93 96 99 100 100 100 102 106 103 84 80 65 61 53 48 42 37 21 18 21 27 30 35 39 45 64 69 64 62
73 72 72 73 71 70 70 69 68 74 78 82 82 83 84 89 94 96 98 95 94 97 98 85 74 70 69 57 54 49 46 41 31 22 20 23 31 35 44 49 54 57 77 70 59